<?xml version='1.0' encoding='UTF-8'?><gpx version="1.1" creator="JPX - https://github.com/jenetics/jpx" xmlns="http://www.topografix.com/GPX/1/1"><trk><trkseg><trkpt lat="45.9949526" lon="11.7596872"><ele>604.0</ele><time>2026-05-01T08:05:12.721Z</time></trkpt><trkpt lat="45.9950093" lon="11.759642"><ele>604.0</ele><time>2026-05-01T08:05:48.695Z</time></trkpt><trkpt lat="45.9950299" lon="11.7597397"><ele>604.0</ele><time>2026-05-01T08:08:23.342Z</time></trkpt><trkpt lat="45.9950093" lon="11.7598432"><ele>604.0</ele><time>2026-05-01T08:08:28.77Z</time></trkpt><trkpt lat="45.9949692" lon="11.7599182"><ele>604.0</ele><time>2026-05-01T08:08:30.74Z</time></trkpt><trkpt lat="45.9948949" lon="11.7599816"><ele>604.0</ele><time>2026-05-01T08:08:33.724Z</time></trkpt><trkpt lat="45.9947798" lon="11.7598431"><ele>604.0</ele><time>2026-05-01T08:08:35.736Z</time></trkpt><trkpt lat="45.9947259" lon="11.7597777"><ele>604.0</ele><time>2026-05-01T08:08:36.759Z</time></trkpt><trkpt lat="45.9946657" lon="11.7596074"><ele>604.0</ele><time>2026-05-01T08:08:39.763Z</time></trkpt><trkpt lat="45.994542" lon="11.7595798"><ele>604.0</ele><time>2026-05-01T08:08:41.762Z</time></trkpt><trkpt lat="45.9944761" lon="11.7594846"><ele>604.0</ele><time>2026-05-01T08:08:44.741Z</time></trkpt><trkpt lat="45.9944605" lon="11.7593513"><ele>604.6666666666667</ele><time>2026-05-01T08:08:46.762Z</time></trkpt><trkpt lat="45.9944718" lon="11.7592543"><ele>605.3333333333334</ele><time>2026-05-01T08:08:49.763Z</time></trkpt><trkpt lat="45.9944506" lon="11.7591651"><ele>606.0</ele><time>2026-05-01T08:08:51.736Z</time></trkpt><trkpt lat="45.9943751" lon="11.7591357"><ele>606.6666666666666</ele><time>2026-05-01T08:08:53.746Z</time></trkpt><trkpt lat="45.9942651" lon="11.7592452"><ele>607.3333333333333</ele><time>2026-05-01T08:08:55.761Z</time></trkpt><trkpt lat="45.9941929" lon="11.7592945"><ele>608.0</ele><time>2026-05-01T08:08:56.784Z</time></trkpt><trkpt lat="45.9941374" lon="11.7593628"><ele>604.0</ele><time>2026-05-01T08:08:57.762Z</time></trkpt><trkpt lat="45.9940347" lon="11.7594758"><ele>600.0</ele><time>2026-05-01T08:08:58.752Z</time></trkpt><trkpt lat="45.9939609" lon="11.7595523"><ele>596.0</ele><time>2026-05-01T08:08:59.777Z</time></trkpt><trkpt lat="45.9938773" lon="11.7595535"><ele>592.0</ele><time>2026-05-01T08:09:01.757Z</time></trkpt><trkpt lat="45.9937967" lon="11.7595287"><ele>588.0</ele><time>2026-05-01T08:09:03.775Z</time></trkpt><trkpt lat="45.9937322" lon="11.7594495"><ele>588.0</ele><time>2026-05-01T08:09:05.778Z</time></trkpt><trkpt lat="45.9936588" lon="11.7593745"><ele>588.0</ele><time>2026-05-01T08:09:07.766Z</time></trkpt><trkpt lat="45.9935629" lon="11.7594157"><ele>588.0</ele><time>2026-05-01T08:09:19.751Z</time></trkpt><trkpt lat="45.9934995" lon="11.7594156"><ele>588.0</ele><time>2026-05-01T08:09:20.767Z</time></trkpt><trkpt lat="45.9934315" lon="11.75941"><ele>588.0</ele><time>2026-05-01T08:09:21.774Z</time></trkpt><trkpt lat="45.9933618" lon="11.7594025"><ele>588.0</ele><time>2026-05-01T08:09:22.758Z</time></trkpt><trkpt lat="45.9932627" lon="11.7593847"><ele>583.1666666666666</ele><time>2026-05-01T08:09:24.778Z</time></trkpt><trkpt lat="45.9931185" lon="11.7593844"><ele>578.3333333333334</ele><time>2026-05-01T08:09:26.791Z</time></trkpt><trkpt lat="45.9930496" lon="11.7593721"><ele>573.5</ele><time>2026-05-01T08:09:27.791Z</time></trkpt><trkpt lat="45.9929757" lon="11.7593702"><ele>568.6666666666667</ele><time>2026-05-01T08:09:28.778Z</time></trkpt><trkpt lat="45.992893" lon="11.7593826"><ele>563.8333333333334</ele><time>2026-05-01T08:09:29.747Z</time></trkpt><trkpt lat="45.9928278" lon="11.7594002"><ele>559.0</ele><time>2026-05-01T08:09:30.771Z</time></trkpt><trkpt lat="45.9927024" lon="11.7594339"><ele>559.0</ele><time>2026-05-01T08:09:32.785Z</time></trkpt><trkpt lat="45.9926226" lon="11.759447"><ele>559.0</ele><time>2026-05-01T08:09:34.784Z</time></trkpt><trkpt lat="45.9925227" lon="11.7594124"><ele>559.0</ele><time>2026-05-01T08:09:38.764Z</time></trkpt><trkpt lat="45.9924588" lon="11.7592247"><ele>559.0</ele><time>2026-05-01T08:09:40.779Z</time></trkpt><trkpt lat="45.9924282" lon="11.7591205"><ele>559.0</ele><time>2026-05-01T08:09:41.775Z</time></trkpt><trkpt lat="45.9923947" lon="11.7590091"><ele>556.6666666666667</ele><time>2026-05-01T08:09:42.761Z</time></trkpt><trkpt lat="45.9923606" lon="11.758894"><ele>554.3333333333334</ele><time>2026-05-01T08:09:43.775Z</time></trkpt><trkpt lat="45.9923226" lon="11.7587674"><ele>552.0</ele><time>2026-05-01T08:09:44.784Z</time></trkpt><trkpt lat="45.9922882" lon="11.7586481"><ele>549.6666666666666</ele><time>2026-05-01T08:09:45.798Z</time></trkpt><trkpt lat="45.9922553" lon="11.7585303"><ele>547.3333333333333</ele><time>2026-05-01T08:09:46.779Z</time></trkpt><trkpt lat="45.9922247" lon="11.7584174"><ele>545.0</ele><time>2026-05-01T08:09:47.774Z</time></trkpt><trkpt lat="45.992189" lon="11.7582988"><ele>545.0</ele><time>2026-05-01T08:09:48.764Z</time></trkpt><trkpt lat="45.9921569" lon="11.7581866"><ele>545.0</ele><time>2026-05-01T08:09:49.768Z</time></trkpt><trkpt lat="45.9921392" lon="11.758095"><ele>545.0</ele><time>2026-05-01T08:09:50.766Z</time></trkpt><trkpt lat="45.9921243" lon="11.7579744"><ele>545.0</ele><time>2026-05-01T08:09:52.771Z</time></trkpt><trkpt lat="45.9920658" lon="11.7578367"><ele>545.0</ele><time>2026-05-01T08:09:54.77Z</time></trkpt><trkpt lat="45.991991" lon="11.7577501"><ele>545.0</ele><time>2026-05-01T08:09:56.77Z</time></trkpt><trkpt lat="45.9919023" lon="11.7576647"><ele>545.0</ele><time>2026-05-01T08:09:58.771Z</time></trkpt><trkpt lat="45.9917826" lon="11.7576309"><ele>545.0</ele><time>2026-05-01T08:10:00.766Z</time></trkpt><trkpt lat="45.9917076" lon="11.7576182"><ele>545.0</ele><time>2026-05-01T08:10:01.775Z</time></trkpt><trkpt lat="45.9916315" lon="11.757612"><ele>545.0</ele><time>2026-05-01T08:10:02.778Z</time></trkpt><trkpt lat="45.991563" lon="11.7576112"><ele>545.0</ele><time>2026-05-01T08:10:03.782Z</time></trkpt><trkpt lat="45.9914895" lon="11.7576058"><ele>545.0</ele><time>2026-05-01T08:10:04.785Z</time></trkpt><trkpt lat="45.9914256" lon="11.757597"><ele>543.6</ele><time>2026-05-01T08:10:05.761Z</time></trkpt><trkpt lat="45.9913034" lon="11.7575691"><ele>542.2</ele><time>2026-05-01T08:10:07.767Z</time></trkpt><trkpt lat="45.9911834" lon="11.7575211"><ele>540.8</ele><time>2026-05-01T08:10:09.769Z</time></trkpt><trkpt lat="45.991111" lon="11.7574918"><ele>539.4</ele><time>2026-05-01T08:10:10.78Z</time></trkpt><trkpt lat="45.9910393" lon="11.7574553"><ele>538.0</ele><time>2026-05-01T08:10:11.772Z</time></trkpt><trkpt lat="45.9909642" lon="11.7574218"><ele>538.0</ele><time>2026-05-01T08:10:12.741Z</time></trkpt><trkpt lat="45.9908942" lon="11.7573909"><ele>538.0</ele><time>2026-05-01T08:10:13.769Z</time></trkpt><trkpt lat="45.9908299" lon="11.7573674"><ele>538.0</ele><time>2026-05-01T08:10:14.773Z</time></trkpt><trkpt lat="45.9907304" lon="11.7573869"><ele>538.0</ele><time>2026-05-01T08:10:16.787Z</time></trkpt><trkpt lat="45.9906664" lon="11.7574086"><ele>538.0</ele><time>2026-05-01T08:10:19.734Z</time></trkpt><trkpt lat="45.9905816" lon="11.7574627"><ele>538.0</ele><time>2026-05-01T08:13:56.772Z</time></trkpt><trkpt lat="45.9904851" lon="11.7575113"><ele>537.8</ele><time>2026-05-01T08:13:57.739Z</time></trkpt><trkpt lat="45.9903442" lon="11.757584"><ele>537.5999999999999</ele><time>2026-05-01T08:13:58.744Z</time></trkpt><trkpt lat="45.990238" lon="11.7576358"><ele>537.4000000000001</ele><time>2026-05-01T08:13:59.737Z</time></trkpt><trkpt lat="45.9901678" lon="11.7576634"><ele>537.2</ele><time>2026-05-01T08:14:00.752Z</time></trkpt><trkpt lat="45.9900898" lon="11.7576392"><ele>537.0</ele><time>2026-05-01T08:14:02.774Z</time></trkpt><trkpt lat="45.9900298" lon="11.75757"><ele>533.0</ele><time>2026-05-01T08:14:03.749Z</time></trkpt><trkpt lat="45.9899578" lon="11.7574815"><ele>529.0</ele><time>2026-05-01T08:14:04.77Z</time></trkpt><trkpt lat="45.9899012" lon="11.7573604"><ele>525.0</ele><time>2026-05-01T08:14:05.791Z</time></trkpt><trkpt lat="45.9898599" lon="11.7572755"><ele>521.0</ele><time>2026-05-01T08:14:06.771Z</time></trkpt><trkpt lat="45.9898151" lon="11.7571493"><ele>517.0</ele><time>2026-05-01T08:14:07.762Z</time></trkpt><trkpt lat="45.9897787" lon="11.7570152"><ele>517.0</ele><time>2026-05-01T08:14:08.758Z</time></trkpt><trkpt lat="45.9897508" lon="11.756879"><ele>517.0</ele><time>2026-05-01T08:14:09.774Z</time></trkpt><trkpt lat="45.9897142" lon="11.7567863"><ele>517.0</ele><time>2026-05-01T08:14:10.763Z</time></trkpt><trkpt lat="45.9896466" lon="11.7566824"><ele>517.0</ele><time>2026-05-01T08:14:12.773Z</time></trkpt><trkpt lat="45.9895791" lon="11.7566603"><ele>517.0</ele><time>2026-05-01T08:14:13.785Z</time></trkpt><trkpt lat="45.9895008" lon="11.7566575"><ele>517.0</ele><time>2026-05-01T08:14:14.767Z</time></trkpt><trkpt lat="45.9894228" lon="11.7566605"><ele>515.0</ele><time>2026-05-01T08:14:15.765Z</time></trkpt><trkpt lat="45.9893341" lon="11.7566877"><ele>513.0</ele><time>2026-05-01T08:14:16.771Z</time></trkpt><trkpt lat="45.9892393" lon="11.7567283"><ele>511.00000000000006</ele><time>2026-05-01T08:14:17.767Z</time></trkpt><trkpt lat="45.9891302" lon="11.7567898"><ele>509.0</ele><time>2026-05-01T08:14:18.783Z</time></trkpt><trkpt lat="45.9890418" lon="11.7568703"><ele>507.0</ele><time>2026-05-01T08:14:19.752Z</time></trkpt><trkpt lat="45.9889554" lon="11.7569348"><ele>505.40000000000003</ele><time>2026-05-01T08:14:20.745Z</time></trkpt><trkpt lat="45.9888923" lon="11.7569627"><ele>503.80000000000007</ele><time>2026-05-01T08:14:21.763Z</time></trkpt><trkpt lat="45.9887818" lon="11.7569618"><ele>502.2</ele><time>2026-05-01T08:14:23.77Z</time></trkpt><trkpt lat="45.988683" lon="11.7570108"><ele>500.6</ele><time>2026-05-01T08:14:25.773Z</time></trkpt><trkpt lat="45.9886081" lon="11.7570895"><ele>499.0</ele><time>2026-05-01T08:14:26.783Z</time></trkpt><trkpt lat="45.988524" lon="11.7571757"><ele>499.0</ele><time>2026-05-01T08:14:28.789Z</time></trkpt><trkpt lat="45.9885133" lon="11.7573845"><ele>499.0</ele><time>2026-05-01T08:14:30.771Z</time></trkpt><trkpt lat="45.9884992" lon="11.7575602"><ele>499.0</ele><time>2026-05-01T08:14:32.76Z</time></trkpt><trkpt lat="45.9884489" lon="11.7576601"><ele>499.0</ele><time>2026-05-01T08:14:34.724Z</time></trkpt><trkpt lat="45.9883797" lon="11.7577261"><ele>499.0</ele><time>2026-05-01T08:14:35.771Z</time></trkpt><trkpt lat="45.9883116" lon="11.7577931"><ele>496.2</ele><time>2026-05-01T08:14:36.771Z</time></trkpt><trkpt lat="45.98824" lon="11.7578825"><ele>493.4</ele><time>2026-05-01T08:14:38.778Z</time></trkpt><trkpt lat="45.9881654" lon="11.7579977"><ele>490.6</ele><time>2026-05-01T08:14:40.766Z</time></trkpt><trkpt lat="45.9881223" lon="11.7581132"><ele>487.8</ele><time>2026-05-01T08:14:42.773Z</time></trkpt><trkpt lat="45.9881179" lon="11.7582044"><ele>485.0</ele><time>2026-05-01T08:14:43.765Z</time></trkpt><trkpt lat="45.9880899" lon="11.7583747"><ele>484.4</ele><time>2026-05-01T08:14:45.77Z</time></trkpt><trkpt lat="45.988064" lon="11.7585552"><ele>483.8</ele><time>2026-05-01T08:14:47.769Z</time></trkpt><trkpt lat="45.9880488" lon="11.7586531"><ele>483.20000000000005</ele><time>2026-05-01T08:14:48.782Z</time></trkpt><trkpt lat="45.988033" lon="11.7587468"><ele>482.6</ele><time>2026-05-01T08:14:49.794Z</time></trkpt><trkpt lat="45.9880096" lon="11.7589057"><ele>482.0</ele><time>2026-05-01T08:14:51.771Z</time></trkpt><trkpt lat="45.9879952" lon="11.759067"><ele>482.0</ele><time>2026-05-01T08:14:53.787Z</time></trkpt><trkpt lat="45.9879871" lon="11.7591945"><ele>482.00000000000006</ele><time>2026-05-01T08:14:55.769Z</time></trkpt><trkpt lat="45.9879794" lon="11.7593334"><ele>482.00000000000006</ele><time>2026-05-01T08:14:57.793Z</time></trkpt><trkpt lat="45.9879641" lon="11.7594844"><ele>482.0</ele><time>2026-05-01T08:14:59.779Z</time></trkpt><trkpt lat="45.98796" lon="11.7596198"><ele>482.0</ele><time>2026-05-01T08:15:01.774Z</time></trkpt><trkpt lat="45.9879745" lon="11.7597819"><ele>482.25</ele><time>2026-05-01T08:15:03.773Z</time></trkpt><trkpt lat="45.9880014" lon="11.7599315"><ele>482.5</ele><time>2026-05-01T08:15:05.766Z</time></trkpt><trkpt lat="45.988016" lon="11.7600797"><ele>482.75</ele><time>2026-05-01T08:15:07.731Z</time></trkpt><trkpt lat="45.9879715" lon="11.7602298"><ele>483.0</ele><time>2026-05-01T08:15:09.764Z</time></trkpt><trkpt lat="45.9878585" lon="11.7603188"><ele>486.0</ele><time>2026-05-01T08:15:11.753Z</time></trkpt><trkpt lat="45.9877589" lon="11.7603829"><ele>489.0</ele><time>2026-05-01T08:15:12.751Z</time></trkpt><trkpt lat="45.9876277" lon="11.7604591"><ele>492.0</ele><time>2026-05-01T08:15:13.772Z</time></trkpt><trkpt lat="45.9874836" lon="11.7605551"><ele>495.0</ele><time>2026-05-01T08:15:14.773Z</time></trkpt><trkpt lat="45.9873802" lon="11.7604694"><ele>495.0</ele><time>2026-05-01T08:15:15.769Z</time></trkpt><trkpt lat="45.9872808" lon="11.7604586"><ele>495.0</ele><time>2026-05-01T08:15:16.781Z</time></trkpt><trkpt lat="45.9873564" lon="11.7604863"><ele>495.0</ele><time>2026-05-01T08:15:18.778Z</time></trkpt><trkpt lat="45.9872292" lon="11.7605092"><ele>495.0</ele><time>2026-05-01T08:15:20.782Z</time></trkpt><trkpt lat="45.9871527" lon="11.7605218"><ele>495.0</ele><time>2026-05-01T08:15:21.79Z</time></trkpt><trkpt lat="45.9870423" lon="11.7605088"><ele>495.0</ele><time>2026-05-01T08:15:22.766Z</time></trkpt><trkpt lat="45.9869682" lon="11.7605543"><ele>495.0</ele><time>2026-05-01T08:15:23.778Z</time></trkpt><trkpt lat="45.9868954" lon="11.7606173"><ele>495.0</ele><time>2026-05-01T08:15:24.767Z</time></trkpt><trkpt lat="45.9868253" lon="11.7607073"><ele>495.0</ele><time>2026-05-01T08:15:25.774Z</time></trkpt><trkpt lat="45.9868267" lon="11.7608821"><ele>495.0</ele><time>2026-05-01T08:15:26.749Z</time></trkpt><trkpt lat="45.9867864" lon="11.7610794"><ele>495.0</ele><time>2026-05-01T08:15:27.779Z</time></trkpt><trkpt lat="45.9867613" lon="11.7611773"><ele>495.0</ele><time>2026-05-01T08:15:28.77Z</time></trkpt><trkpt lat="45.9867612" lon="11.7609483"><ele>495.0</ele><time>2026-05-01T08:15:32.785Z</time></trkpt><trkpt lat="45.9866929" lon="11.761115"><ele>495.0</ele><time>2026-05-01T08:15:35.773Z</time></trkpt><trkpt lat="45.9867033" lon="11.7612079"><ele>495.0</ele><time>2026-05-01T08:15:36.772Z</time></trkpt><trkpt lat="45.9866769" lon="11.7613541"><ele>495.1666666666667</ele><time>2026-05-01T08:15:50.784Z</time></trkpt><trkpt lat="45.9866622" lon="11.7614708"><ele>495.33333333333337</ele><time>2026-05-01T08:15:51.766Z</time></trkpt><trkpt lat="45.9866484" lon="11.7616141"><ele>495.5</ele><time>2026-05-01T08:15:53.779Z</time></trkpt><trkpt lat="45.9866369" lon="11.7617134"><ele>495.6666666666667</ele><time>2026-05-01T08:15:54.787Z</time></trkpt><trkpt lat="45.9866205" lon="11.7618012"><ele>495.83333333333337</ele><time>2026-05-01T08:15:55.765Z</time></trkpt><trkpt lat="45.986599" lon="11.7619003"><ele>496.0</ele><time>2026-05-01T08:15:56.794Z</time></trkpt><trkpt lat="45.9865666" lon="11.7620166"><ele>496.00000000000006</ele><time>2026-05-01T08:15:57.777Z</time></trkpt><trkpt lat="45.98655" lon="11.7621184"><ele>496.0</ele><time>2026-05-01T08:15:58.764Z</time></trkpt><trkpt lat="45.9865284" lon="11.7622482"><ele>496.0</ele><time>2026-05-01T08:15:59.767Z</time></trkpt><trkpt lat="45.9864925" lon="11.7623595"><ele>496.0</ele><time>2026-05-01T08:16:00.79Z</time></trkpt><trkpt lat="45.986498" lon="11.7624933"><ele>496.00000000000006</ele><time>2026-05-01T08:16:02.757Z</time></trkpt><trkpt lat="45.9865354" lon="11.7625895"><ele>496.0</ele><time>2026-05-01T08:16:08.765Z</time></trkpt><trkpt lat="45.9866818" lon="11.7626013"><ele>496.8</ele><time>2026-05-01T08:16:13.773Z</time></trkpt><trkpt lat="45.9866401" lon="11.7627309"><ele>497.6</ele><time>2026-05-01T08:16:15.79Z</time></trkpt><trkpt lat="45.9865648" lon="11.7627909"><ele>498.4</ele><time>2026-05-01T08:16:24.769Z</time></trkpt><trkpt lat="45.986415" lon="11.7628135"><ele>499.2</ele><time>2026-05-01T08:16:26.767Z</time></trkpt><trkpt lat="45.9863169" lon="11.7627975"><ele>500.0</ele><time>2026-05-01T08:16:27.749Z</time></trkpt><trkpt lat="45.9862057" lon="11.7627981"><ele>500.0</ele><time>2026-05-01T08:16:28.777Z</time></trkpt><trkpt lat="45.9864851" lon="11.7629319"><ele>500.0</ele><time>2026-05-01T08:16:29.772Z</time></trkpt><trkpt lat="45.9867316" lon="11.7634708"><ele>499.4</ele><time>2026-05-01T08:16:30.779Z</time></trkpt><trkpt lat="45.9867869" lon="11.7635536"><ele>498.8</ele><time>2026-05-01T08:16:45.773Z</time></trkpt><trkpt lat="45.9868916" lon="11.7636382"><ele>498.20000000000005</ele><time>2026-05-01T08:16:47.765Z</time></trkpt><trkpt lat="45.9870041" lon="11.7637096"><ele>497.6</ele><time>2026-05-01T08:16:49.768Z</time></trkpt><trkpt lat="45.9871034" lon="11.7637169"><ele>497.0</ele><time>2026-05-01T08:16:51.78Z</time></trkpt><trkpt lat="45.9871813" lon="11.7637324"><ele>496.99999999999994</ele><time>2026-05-01T08:16:56.762Z</time></trkpt><trkpt lat="45.9872526" lon="11.7637609"><ele>497.0</ele><time>2026-05-01T08:17:01.779Z</time></trkpt><trkpt lat="45.987344" lon="11.7638007"><ele>497.0</ele><time>2026-05-01T08:17:06.764Z</time></trkpt><trkpt lat="45.9874035" lon="11.7638502"><ele>497.0</ele><time>2026-05-01T08:17:10.781Z</time></trkpt><trkpt lat="45.987457" lon="11.7639235"><ele>496.99999999999994</ele><time>2026-05-01T08:17:12.74Z</time></trkpt><trkpt lat="45.9875116" lon="11.7639791"><ele>497.0</ele><time>2026-05-01T08:17:14.772Z</time></trkpt><trkpt lat="45.9875841" lon="11.764038"><ele>499.20000000000005</ele><time>2026-05-01T08:17:18.718Z</time></trkpt><trkpt lat="45.987658" lon="11.7640954"><ele>501.40000000000003</ele><time>2026-05-01T08:17:20.725Z</time></trkpt><trkpt lat="45.9877691" lon="11.7642006"><ele>503.59999999999997</ele><time>2026-05-01T08:17:22.722Z</time></trkpt><trkpt lat="45.9878755" lon="11.764304"><ele>505.79999999999995</ele><time>2026-05-01T08:17:24.722Z</time></trkpt><trkpt lat="45.9879414" lon="11.7643686"><ele>508.0</ele><time>2026-05-01T08:17:25.73Z</time></trkpt><trkpt lat="45.9880148" lon="11.7644574"><ele>503.79999999999995</ele><time>2026-05-01T08:17:27.711Z</time></trkpt><trkpt lat="45.9881114" lon="11.7645058"><ele>499.59999999999997</ele><time>2026-05-01T08:17:30.724Z</time></trkpt><trkpt lat="45.9881808" lon="11.7645375"><ele>495.40000000000003</ele><time>2026-05-01T08:17:31.716Z</time></trkpt><trkpt lat="45.9882763" lon="11.7645699"><ele>491.20000000000005</ele><time>2026-05-01T08:17:32.717Z</time></trkpt><trkpt lat="45.9883704" lon="11.7645894"><ele>487.0</ele><time>2026-05-01T08:17:33.714Z</time></trkpt><trkpt lat="45.9884611" lon="11.7646095"><ele>487.00000000000006</ele><time>2026-05-01T08:17:34.717Z</time></trkpt><trkpt lat="45.9885413" lon="11.7646213"><ele>487.0</ele><time>2026-05-01T08:17:35.712Z</time></trkpt><trkpt lat="45.9886108" lon="11.7646499"><ele>487.0</ele><time>2026-05-01T08:17:36.707Z</time></trkpt><trkpt lat="45.9886885" lon="11.7646861"><ele>487.0</ele><time>2026-05-01T08:17:37.742Z</time></trkpt><trkpt lat="45.9887831" lon="11.7647094"><ele>487.00000000000006</ele><time>2026-05-01T08:17:38.711Z</time></trkpt><trkpt lat="45.9888639" lon="11.764714"><ele>487.0</ele><time>2026-05-01T08:17:39.729Z</time></trkpt><trkpt lat="45.9889366" lon="11.7647084"><ele>487.00000000000006</ele><time>2026-05-01T08:17:40.717Z</time></trkpt><trkpt lat="45.9890034" lon="11.7646654"><ele>487.0</ele><time>2026-05-01T08:17:41.695Z</time></trkpt><trkpt lat="45.9890664" lon="11.7646345"><ele>487.0</ele><time>2026-05-01T08:17:42.712Z</time></trkpt><trkpt lat="45.9892112" lon="11.7645648"><ele>487.0</ele><time>2026-05-01T08:17:44.771Z</time></trkpt><trkpt lat="45.9892816" lon="11.7645367"><ele>487.00000000000006</ele><time>2026-05-01T08:17:45.779Z</time></trkpt><trkpt lat="45.9893576" lon="11.764516"><ele>487.0</ele><time>2026-05-01T08:17:46.794Z</time></trkpt><trkpt lat="45.9894363" lon="11.764494"><ele>489.75</ele><time>2026-05-01T08:17:47.761Z</time></trkpt><trkpt lat="45.9896002" lon="11.7645134"><ele>492.5</ele><time>2026-05-01T08:17:49.77Z</time></trkpt><trkpt lat="45.9897058" lon="11.7645303"><ele>495.25</ele><time>2026-05-01T08:17:51.776Z</time></trkpt><trkpt lat="45.9898376" lon="11.7645579"><ele>498.0</ele><time>2026-05-01T08:17:53.792Z</time></trkpt><trkpt lat="45.989947" lon="11.764577"><ele>499.3333333333333</ele><time>2026-05-01T08:17:55.781Z</time></trkpt><trkpt lat="45.9900138" lon="11.7645723"><ele>500.66666666666663</ele><time>2026-05-01T08:17:58.765Z</time></trkpt><trkpt lat="45.9900149" lon="11.7644803"><ele>502.0</ele><time>2026-05-01T08:18:03.753Z</time></trkpt><trkpt lat="45.9900285" lon="11.7643849"><ele>503.3333333333333</ele><time>2026-05-01T08:18:12.744Z</time></trkpt><trkpt lat="45.9901101" lon="11.7643356"><ele>504.66666666666663</ele><time>2026-05-01T08:18:16.757Z</time></trkpt><trkpt lat="45.9901913" lon="11.7643141"><ele>506.0</ele><time>2026-05-01T08:18:18.761Z</time></trkpt><trkpt lat="45.9902801" lon="11.7643399"><ele>506.0</ele><time>2026-05-01T08:18:20.769Z</time></trkpt><trkpt lat="45.9904251" lon="11.7644143"><ele>506.0</ele><time>2026-05-01T08:18:22.766Z</time></trkpt><trkpt lat="45.9905305" lon="11.764423"><ele>506.0</ele><time>2026-05-01T08:18:24.773Z</time></trkpt><trkpt lat="45.9906255" lon="11.764388"><ele>506.0</ele><time>2026-05-01T08:18:25.777Z</time></trkpt><trkpt lat="45.9907384" lon="11.7643733"><ele>508.6</ele><time>2026-05-01T08:18:26.785Z</time></trkpt><trkpt lat="45.9908731" lon="11.7643646"><ele>511.20000000000005</ele><time>2026-05-01T08:18:27.781Z</time></trkpt><trkpt lat="45.9909779" lon="11.7643793"><ele>513.8</ele><time>2026-05-01T08:18:28.798Z</time></trkpt><trkpt lat="45.9910442" lon="11.764406"><ele>516.4</ele><time>2026-05-01T08:18:29.767Z</time></trkpt><trkpt lat="45.9911172" lon="11.764427"><ele>519.0</ele><time>2026-05-01T08:18:30.781Z</time></trkpt><trkpt lat="45.991187" lon="11.7644781"><ele>519.0</ele><time>2026-05-01T08:18:31.779Z</time></trkpt><trkpt lat="45.9912543" lon="11.7645267"><ele>519.0</ele><time>2026-05-01T08:18:33.769Z</time></trkpt><trkpt lat="45.9913249" lon="11.7643966"><ele>519.0</ele><time>2026-05-01T08:18:37.766Z</time></trkpt><trkpt lat="45.9913927" lon="11.7642659"><ele>519.0</ele><time>2026-05-01T08:18:39.775Z</time></trkpt><trkpt lat="45.991432" lon="11.7641871"><ele>519.0</ele><time>2026-05-01T08:18:40.783Z</time></trkpt><trkpt lat="45.9914918" lon="11.7640969"><ele>521.4</ele><time>2026-05-01T08:18:41.775Z</time></trkpt><trkpt lat="45.9915647" lon="11.7640106"><ele>523.8</ele><time>2026-05-01T08:18:42.783Z</time></trkpt><trkpt lat="45.9916463" lon="11.7639271"><ele>526.2</ele><time>2026-05-01T08:18:43.772Z</time></trkpt><trkpt lat="45.9917145" lon="11.7638585"><ele>528.6</ele><time>2026-05-01T08:18:44.777Z</time></trkpt><trkpt lat="45.9917603" lon="11.7637936"><ele>531.0</ele><time>2026-05-01T08:18:45.769Z</time></trkpt><trkpt lat="45.9918392" lon="11.7636723"><ele>531.0</ele><time>2026-05-01T08:18:47.774Z</time></trkpt><trkpt lat="45.9918681" lon="11.7635752"><ele>531.0</ele><time>2026-05-01T08:18:48.729Z</time></trkpt><trkpt lat="45.9919013" lon="11.7634494"><ele>531.0</ele><time>2026-05-01T08:18:49.714Z</time></trkpt><trkpt lat="45.9919437" lon="11.7633173"><ele>531.0</ele><time>2026-05-01T08:18:50.726Z</time></trkpt><trkpt lat="45.9919714" lon="11.7632292"><ele>531.0</ele><time>2026-05-01T08:18:51.699Z</time></trkpt><trkpt lat="45.9920354" lon="11.7631554"><ele>531.0</ele><time>2026-05-01T08:18:53.735Z</time></trkpt><trkpt lat="45.9921114" lon="11.7631688"><ele>531.8</ele><time>2026-05-01T08:18:54.735Z</time></trkpt><trkpt lat="45.9922086" lon="11.7631665"><ele>532.6</ele><time>2026-05-01T08:18:55.737Z</time></trkpt><trkpt lat="45.9922956" lon="11.7631357"><ele>533.4</ele><time>2026-05-01T08:18:56.723Z</time></trkpt><trkpt lat="45.9923768" lon="11.7631075"><ele>534.2</ele><time>2026-05-01T08:18:57.733Z</time></trkpt><trkpt lat="45.9924767" lon="11.7630816"><ele>535.0</ele><time>2026-05-01T08:18:58.728Z</time></trkpt><trkpt lat="45.992553" lon="11.7629304"><ele>537.1666666666667</ele><time>2026-05-01T08:19:12.765Z</time></trkpt><trkpt lat="45.9925903" lon="11.7628521"><ele>539.3333333333334</ele><time>2026-05-01T08:19:13.785Z</time></trkpt><trkpt lat="45.9926671" lon="11.7627499"><ele>541.5</ele><time>2026-05-01T08:19:15.766Z</time></trkpt><trkpt lat="45.9927437" lon="11.7626595"><ele>543.6666666666666</ele><time>2026-05-01T08:19:17.744Z</time></trkpt><trkpt lat="45.9927985" lon="11.7625811"><ele>545.8333333333333</ele><time>2026-05-01T08:19:18.761Z</time></trkpt><trkpt lat="45.9928433" lon="11.762504"><ele>548.0</ele><time>2026-05-01T08:19:19.791Z</time></trkpt><trkpt lat="45.9929053" lon="11.7623672"><ele>549.1999999999999</ele><time>2026-05-01T08:19:21.782Z</time></trkpt><trkpt lat="45.9929378" lon="11.7622839"><ele>550.4</ele><time>2026-05-01T08:19:22.763Z</time></trkpt><trkpt lat="45.9929768" lon="11.7621193"><ele>551.5999999999999</ele><time>2026-05-01T08:19:24.776Z</time></trkpt><trkpt lat="45.993032" lon="11.7619489"><ele>552.8</ele><time>2026-05-01T08:19:26.777Z</time></trkpt><trkpt lat="45.9931244" lon="11.7618734"><ele>554.0</ele><time>2026-05-01T08:19:28.783Z</time></trkpt><trkpt lat="45.9932021" lon="11.7618146"><ele>554.1666666666666</ele><time>2026-05-01T08:19:30.778Z</time></trkpt><trkpt lat="45.9932837" lon="11.761756"><ele>554.3333333333333</ele><time>2026-05-01T08:19:32.786Z</time></trkpt><trkpt lat="45.993344" lon="11.7618204"><ele>554.5</ele><time>2026-05-01T08:19:35.777Z</time></trkpt><trkpt lat="45.9934196" lon="11.761936"><ele>554.6666666666666</ele><time>2026-05-01T08:19:37.751Z</time></trkpt><trkpt lat="45.9934671" lon="11.7620184"><ele>554.8333333333334</ele><time>2026-05-01T08:19:38.77Z</time></trkpt><trkpt lat="45.993519" lon="11.7621016"><ele>555.0</ele><time>2026-05-01T08:19:39.748Z</time></trkpt><trkpt lat="45.9935787" lon="11.7621823"><ele>557.3333333333334</ele><time>2026-05-01T08:19:40.775Z</time></trkpt><trkpt lat="45.9936317" lon="11.7622606"><ele>559.6666666666666</ele><time>2026-05-01T08:19:41.786Z</time></trkpt><trkpt lat="45.9936817" lon="11.7623404"><ele>562.0</ele><time>2026-05-01T08:19:42.782Z</time></trkpt><trkpt lat="45.9937229" lon="11.7624162"><ele>564.3333333333333</ele><time>2026-05-01T08:19:43.784Z</time></trkpt><trkpt lat="45.9937703" lon="11.7625748"><ele>566.6666666666666</ele><time>2026-05-01T08:19:45.78Z</time></trkpt><trkpt lat="45.9937843" lon="11.7626689"><ele>569.0</ele><time>2026-05-01T08:19:46.777Z</time></trkpt><trkpt lat="45.9938027" lon="11.7627672"><ele>569.0000000000001</ele><time>2026-05-01T08:19:47.718Z</time></trkpt><trkpt lat="45.9938226" lon="11.7628773"><ele>569.0</ele><time>2026-05-01T08:19:48.734Z</time></trkpt><trkpt lat="45.9938441" lon="11.7629817"><ele>569.0</ele><time>2026-05-01T08:19:49.742Z</time></trkpt><trkpt lat="45.9938575" lon="11.7630772"><ele>569.0</ele><time>2026-05-01T08:19:50.721Z</time></trkpt><trkpt lat="45.9938739" lon="11.7631827"><ele>569.0</ele><time>2026-05-01T08:19:51.727Z</time></trkpt><trkpt lat="45.9938851" lon="11.7632861"><ele>569.0000000000001</ele><time>2026-05-01T08:19:52.731Z</time></trkpt><trkpt lat="45.9938967" lon="11.7633902"><ele>569.0</ele><time>2026-05-01T08:19:53.723Z</time></trkpt><trkpt lat="45.9939052" lon="11.763529"><ele>568.0</ele><time>2026-05-01T08:19:54.718Z</time></trkpt><trkpt lat="45.9939039" lon="11.7637063"><ele>567.0</ele><time>2026-05-01T08:19:55.735Z</time></trkpt><trkpt lat="45.9938938" lon="11.7639046"><ele>566.0</ele><time>2026-05-01T08:19:56.728Z</time></trkpt><trkpt lat="45.993878" lon="11.7640843"><ele>565.0</ele><time>2026-05-01T08:19:57.741Z</time></trkpt><trkpt lat="45.9938637" lon="11.7642485"><ele>564.6</ele><time>2026-05-01T08:19:58.73Z</time></trkpt><trkpt lat="45.9938464" lon="11.7644033"><ele>564.2</ele><time>2026-05-01T08:19:59.727Z</time></trkpt><trkpt lat="45.9938298" lon="11.7645288"><ele>563.8</ele><time>2026-05-01T08:20:00.736Z</time></trkpt><trkpt lat="45.9938125" lon="11.764654"><ele>563.4</ele><time>2026-05-01T08:20:01.725Z</time></trkpt><trkpt lat="45.9937935" lon="11.764782"><ele>563.0</ele><time>2026-05-01T08:20:02.7Z</time></trkpt><trkpt lat="45.9937646" lon="11.7649092"><ele>563.0</ele><time>2026-05-01T08:20:03.743Z</time></trkpt><trkpt lat="45.993717" lon="11.7650222"><ele>563.0</ele><time>2026-05-01T08:20:04.721Z</time></trkpt><trkpt lat="45.9936374" lon="11.7651484"><ele>563.0</ele><time>2026-05-01T08:20:05.722Z</time></trkpt><trkpt lat="45.9935483" lon="11.7652825"><ele>563.0</ele><time>2026-05-01T08:20:06.725Z</time></trkpt><trkpt lat="45.9934747" lon="11.7653982"><ele>563.0</ele><time>2026-05-01T08:20:07.702Z</time></trkpt><trkpt lat="45.9934113" lon="11.7655041"><ele>562.8</ele><time>2026-05-01T08:20:08.708Z</time></trkpt><trkpt lat="45.9933633" lon="11.7655892"><ele>562.5999999999999</ele><time>2026-05-01T08:20:09.698Z</time></trkpt><trkpt lat="45.9933364" lon="11.7656735"><ele>562.4000000000001</ele><time>2026-05-01T08:20:10.735Z</time></trkpt><trkpt lat="45.9933719" lon="11.7658128"><ele>562.2</ele><time>2026-05-01T08:20:12.744Z</time></trkpt><trkpt lat="45.9934815" lon="11.7659061"><ele>562.0</ele><time>2026-05-01T08:20:14.719Z</time></trkpt><trkpt lat="45.9935637" lon="11.765959"><ele>560.1666666666667</ele><time>2026-05-01T08:20:16.727Z</time></trkpt><trkpt lat="45.9936205" lon="11.7660728"><ele>558.3333333333334</ele><time>2026-05-01T08:20:18.716Z</time></trkpt><trkpt lat="45.9936645" lon="11.7661531"><ele>556.5</ele><time>2026-05-01T08:20:19.711Z</time></trkpt><trkpt lat="45.9937184" lon="11.7662227"><ele>554.6666666666666</ele><time>2026-05-01T08:20:20.725Z</time></trkpt><trkpt lat="45.9937763" lon="11.7662825"><ele>552.8333333333333</ele><time>2026-05-01T08:20:21.723Z</time></trkpt><trkpt lat="45.9938415" lon="11.7663337"><ele>551.0</ele><time>2026-05-01T08:20:22.727Z</time></trkpt><trkpt lat="45.9938992" lon="11.7663996"><ele>551.0</ele><time>2026-05-01T08:20:23.737Z</time></trkpt><trkpt lat="45.9939533" lon="11.7664759"><ele>551.0</ele><time>2026-05-01T08:20:24.716Z</time></trkpt><trkpt lat="45.9940004" lon="11.7665715"><ele>551.0</ele><time>2026-05-01T08:20:25.738Z</time></trkpt><trkpt lat="45.9940383" lon="11.7666762"><ele>551.0</ele><time>2026-05-01T08:20:26.723Z</time></trkpt><trkpt lat="45.994052" lon="11.7667894"><ele>551.0</ele><time>2026-05-01T08:20:27.726Z</time></trkpt><trkpt lat="45.9940429" lon="11.7669014"><ele>551.0</ele><time>2026-05-01T08:20:28.731Z</time></trkpt><trkpt lat="45.9940273" lon="11.767008"><ele>553.6</ele><time>2026-05-01T08:20:29.73Z</time></trkpt><trkpt lat="45.9940112" lon="11.7671066"><ele>556.2</ele><time>2026-05-01T08:20:30.749Z</time></trkpt><trkpt lat="45.9940318" lon="11.7672732"><ele>558.8</ele><time>2026-05-01T08:20:32.722Z</time></trkpt><trkpt lat="45.9940664" lon="11.7673491"><ele>561.4</ele><time>2026-05-01T08:20:33.723Z</time></trkpt><trkpt lat="45.9941321" lon="11.7674755"><ele>564.0</ele><time>2026-05-01T08:20:35.72Z</time></trkpt><trkpt lat="45.9941839" lon="11.7675855"><ele>564.0</ele><time>2026-05-01T08:20:36.716Z</time></trkpt><trkpt lat="45.9942356" lon="11.7676829"><ele>564.0</ele><time>2026-05-01T08:20:37.719Z</time></trkpt><trkpt lat="45.9942889" lon="11.7677705"><ele>564.0</ele><time>2026-05-01T08:20:38.741Z</time></trkpt><trkpt lat="45.994339" lon="11.7678595"><ele>564.0</ele><time>2026-05-01T08:20:39.732Z</time></trkpt><trkpt lat="45.9943896" lon="11.7679353"><ele>564.0</ele><time>2026-05-01T08:20:40.719Z</time></trkpt><trkpt lat="45.9945052" lon="11.7679819"><ele>564.0</ele><time>2026-05-01T08:20:42.73Z</time></trkpt><trkpt lat="45.9945453" lon="11.7680522"><ele>557.25</ele><time>2026-05-01T08:20:45.717Z</time></trkpt><trkpt lat="45.9945665" lon="11.7682539"><ele>550.5</ele><time>2026-05-01T08:20:47.723Z</time></trkpt><trkpt lat="45.9946325" lon="11.7684043"><ele>543.75</ele><time>2026-05-01T08:20:48.719Z</time></trkpt><trkpt lat="45.9947062" lon="11.768562"><ele>537.0</ele><time>2026-05-01T08:20:49.713Z</time></trkpt><trkpt lat="45.9947327" lon="11.7687164"><ele>534.8571428571428</ele><time>2026-05-01T08:20:50.693Z</time></trkpt><trkpt lat="45.994783" lon="11.7688219"><ele>532.7142857142857</ele><time>2026-05-01T08:20:53.732Z</time></trkpt><trkpt lat="45.9948134" lon="11.7689134"><ele>530.5714285714286</ele><time>2026-05-01T08:20:54.725Z</time></trkpt><trkpt lat="45.9948356" lon="11.7690073"><ele>528.4285714285713</ele><time>2026-05-01T08:20:56.726Z</time></trkpt><trkpt lat="45.9948794" lon="11.7690849"><ele>526.2857142857142</ele><time>2026-05-01T08:21:01.719Z</time></trkpt><trkpt lat="45.9948853" lon="11.7692019"><ele>524.1428571428571</ele><time>2026-05-01T08:21:05.713Z</time></trkpt><trkpt lat="45.9948173" lon="11.7692207"><ele>522.0</ele><time>2026-05-01T08:21:10.716Z</time></trkpt><trkpt lat="45.9947565" lon="11.7691557"><ele>522.0</ele><time>2026-05-01T08:21:11.722Z</time></trkpt><trkpt lat="45.9946941" lon="11.7690865"><ele>522.0</ele><time>2026-05-01T08:21:12.717Z</time></trkpt><trkpt lat="45.9946263" lon="11.7690495"><ele>522.0</ele><time>2026-05-01T08:21:13.73Z</time></trkpt><trkpt lat="45.9945535" lon="11.7690066"><ele>522.0</ele><time>2026-05-01T08:21:15.728Z</time></trkpt><trkpt lat="45.9944333" lon="11.7689295"><ele>522.0</ele><time>2026-05-01T08:21:17.725Z</time></trkpt><trkpt lat="45.9943854" lon="11.7688616"><ele>522.0</ele><time>2026-05-01T08:21:18.726Z</time></trkpt><trkpt lat="45.9942422" lon="11.7687742"><ele>522.2</ele><time>2026-05-01T08:21:20.718Z</time></trkpt><trkpt lat="45.9941326" lon="11.7687474"><ele>522.4000000000001</ele><time>2026-05-01T08:21:21.702Z</time></trkpt><trkpt lat="45.9940483" lon="11.7687479"><ele>522.5999999999999</ele><time>2026-05-01T08:21:22.718Z</time></trkpt><trkpt lat="45.9939462" lon="11.7687122"><ele>522.8</ele><time>2026-05-01T08:21:24.726Z</time></trkpt><trkpt lat="45.9938758" lon="11.7686253"><ele>523.0</ele><time>2026-05-01T08:21:26.717Z</time></trkpt><trkpt lat="45.9938285" lon="11.7685544"><ele>521.5</ele><time>2026-05-01T08:21:28.719Z</time></trkpt><trkpt lat="45.9937159" lon="11.7684996"><ele>520.0</ele><time>2026-05-01T08:21:30.716Z</time></trkpt><trkpt lat="45.9936427" lon="11.7684691"><ele>518.5</ele><time>2026-05-01T08:21:31.724Z</time></trkpt><trkpt lat="45.9935605" lon="11.7684518"><ele>517.0</ele><time>2026-05-01T08:21:32.742Z</time></trkpt><trkpt lat="45.993486" lon="11.7684135"><ele>515.5</ele><time>2026-05-01T08:21:33.738Z</time></trkpt><trkpt lat="45.9934122" lon="11.7684101"><ele>514.0</ele><time>2026-05-01T08:21:34.71Z</time></trkpt><trkpt lat="45.9933372" lon="11.7683956"><ele>511.50000000000006</ele><time>2026-05-01T08:21:35.736Z</time></trkpt><trkpt lat="45.9932674" lon="11.7683584"><ele>509.0</ele><time>2026-05-01T08:21:36.725Z</time></trkpt><trkpt lat="45.9931745" lon="11.7682792"><ele>506.5</ele><time>2026-05-01T08:21:38.73Z</time></trkpt><trkpt lat="45.9931344" lon="11.7681589"><ele>504.0</ele><time>2026-05-01T08:21:40.707Z</time></trkpt><trkpt lat="45.9931335" lon="11.7680468"><ele>501.50000000000006</ele><time>2026-05-01T08:21:41.716Z</time></trkpt><trkpt lat="45.993095" lon="11.7679282"><ele>499.0</ele><time>2026-05-01T08:21:43.719Z</time></trkpt><trkpt lat="45.9930027" lon="11.7678337"><ele>499.0</ele><time>2026-05-01T08:21:45.726Z</time></trkpt><trkpt lat="45.9929493" lon="11.7677757"><ele>499.0</ele><time>2026-05-01T08:21:47.734Z</time></trkpt><trkpt lat="45.9928714" lon="11.7676193"><ele>499.0</ele><time>2026-05-01T08:21:49.722Z</time></trkpt><trkpt lat="45.9928322" lon="11.7674463"><ele>499.0</ele><time>2026-05-01T08:21:51.716Z</time></trkpt><trkpt lat="45.9927859" lon="11.7673708"><ele>499.0</ele><time>2026-05-01T08:21:52.724Z</time></trkpt><trkpt lat="45.9926923" lon="11.7672459"><ele>499.00000000000006</ele><time>2026-05-01T08:21:54.719Z</time></trkpt><trkpt lat="45.9926057" lon="11.7672188"><ele>499.0</ele><time>2026-05-01T08:21:55.717Z</time></trkpt><trkpt lat="45.9925216" lon="11.7671564"><ele>499.0</ele><time>2026-05-01T08:21:56.714Z</time></trkpt><trkpt lat="45.9924442" lon="11.767112"><ele>499.0</ele><time>2026-05-01T08:21:57.711Z</time></trkpt><trkpt lat="45.9923788" lon="11.7670482"><ele>499.00000000000006</ele><time>2026-05-01T08:21:58.721Z</time></trkpt><trkpt lat="45.9923202" lon="11.766992"><ele>499.0</ele><time>2026-05-01T08:21:59.733Z</time></trkpt><trkpt lat="45.9922505" lon="11.7669628"><ele>497.33333333333337</ele><time>2026-05-01T08:22:00.717Z</time></trkpt><trkpt lat="45.9921954" lon="11.7669149"><ele>495.6666666666667</ele><time>2026-05-01T08:22:01.717Z</time></trkpt><trkpt lat="45.9921474" lon="11.7668503"><ele>494.0</ele><time>2026-05-01T08:22:05.731Z</time></trkpt><trkpt lat="45.9920326" lon="11.7667609"><ele>492.33333333333337</ele><time>2026-05-01T08:22:07.73Z</time></trkpt><trkpt lat="45.9919708" lon="11.7667181"><ele>490.6666666666667</ele><time>2026-05-01T08:22:08.731Z</time></trkpt><trkpt lat="45.9919117" lon="11.7666598"><ele>489.0</ele><time>2026-05-01T08:22:09.729Z</time></trkpt><trkpt lat="45.9918361" lon="11.7666236"><ele>489.0</ele><time>2026-05-01T08:22:10.695Z</time></trkpt><trkpt lat="45.9917675" lon="11.7665521"><ele>489.0</ele><time>2026-05-01T08:22:12.724Z</time></trkpt><trkpt lat="45.9916784" lon="11.7666053"><ele>489.0</ele><time>2026-05-01T08:22:15.724Z</time></trkpt><trkpt lat="45.9916192" lon="11.7666469"><ele>489.0</ele><time>2026-05-01T08:22:16.729Z</time></trkpt><trkpt lat="45.9915524" lon="11.76678"><ele>489.0</ele><time>2026-05-01T08:22:18.719Z</time></trkpt><trkpt lat="45.9914859" lon="11.7668232"><ele>489.0</ele><time>2026-05-01T08:22:19.718Z</time></trkpt><trkpt lat="45.9914039" lon="11.766857"><ele>473.0</ele><time>2026-05-01T08:22:21.722Z</time></trkpt><trkpt lat="45.9909095" lon="11.7663922"><ele>469.75</ele><time>2026-05-01T08:22:23.729Z</time></trkpt><trkpt lat="45.990771" lon="11.7663533"><ele>466.5</ele><time>2026-05-01T08:22:26.742Z</time></trkpt><trkpt lat="45.9906586" lon="11.7663254"><ele>463.25</ele><time>2026-05-01T08:22:28.716Z</time></trkpt><trkpt lat="45.9905323" lon="11.7662707"><ele>460.0</ele><time>2026-05-01T08:22:30.695Z</time></trkpt><trkpt lat="45.9904501" lon="11.7662416"><ele>460.0</ele><time>2026-05-01T08:22:31.723Z</time></trkpt><trkpt lat="45.9903532" lon="11.7662063"><ele>460.0</ele><time>2026-05-01T08:22:34.72Z</time></trkpt><trkpt lat="45.9902274" lon="11.7661626"><ele>460.0</ele><time>2026-05-01T08:22:36.74Z</time></trkpt><trkpt lat="45.9901249" lon="11.7661403"><ele>460.0</ele><time>2026-05-01T08:22:38.727Z</time></trkpt><trkpt lat="45.9899848" lon="11.766195"><ele>458.33333333333337</ele><time>2026-05-01T08:22:40.717Z</time></trkpt><trkpt lat="45.9899037" lon="11.7662496"><ele>456.6666666666667</ele><time>2026-05-01T08:22:41.749Z</time></trkpt><trkpt lat="45.9898096" lon="11.7662911"><ele>455.0</ele><time>2026-05-01T08:22:42.723Z</time></trkpt><trkpt lat="45.9897378" lon="11.766337"><ele>453.33333333333337</ele><time>2026-05-01T08:22:43.718Z</time></trkpt><trkpt lat="45.9896493" lon="11.7663597"><ele>451.6666666666667</ele><time>2026-05-01T08:22:48.741Z</time></trkpt><trkpt lat="45.98958" lon="11.7663308"><ele>450.0</ele><time>2026-05-01T08:22:51.73Z</time></trkpt><trkpt lat="45.9894963" lon="11.7662826"><ele>450.0</ele><time>2026-05-01T08:22:53.739Z</time></trkpt><trkpt lat="45.9894297" lon="11.7663671"><ele>450.0</ele><time>2026-05-01T08:22:55.714Z</time></trkpt><trkpt lat="45.9893456" lon="11.7663687"><ele>450.0</ele><time>2026-05-01T08:22:56.729Z</time></trkpt><trkpt lat="45.9892469" lon="11.7663495"><ele>450.0</ele><time>2026-05-01T08:22:57.729Z</time></trkpt><trkpt lat="45.9891701" lon="11.766328"><ele>450.0</ele><time>2026-05-01T08:22:58.717Z</time></trkpt><trkpt lat="45.9890771" lon="11.7663145"><ele>450.0</ele><time>2026-05-01T08:22:59.725Z</time></trkpt><trkpt lat="45.9890251" lon="11.7663714"><ele>449.00000000000006</ele><time>2026-05-01T08:23:01.724Z</time></trkpt><trkpt lat="45.9889552" lon="11.7663973"><ele>448.0</ele><time>2026-05-01T08:23:04.719Z</time></trkpt><trkpt lat="45.9888868" lon="11.7663997"><ele>447.0</ele><time>2026-05-01T08:23:07.724Z</time></trkpt><trkpt lat="45.9887985" lon="11.7663856"><ele>446.0</ele><time>2026-05-01T08:23:09.718Z</time></trkpt><trkpt lat="45.9887272" lon="11.7663609"><ele>445.0</ele><time>2026-05-01T08:23:10.725Z</time></trkpt><trkpt lat="45.9886926" lon="11.766282"><ele>444.0</ele><time>2026-05-01T08:23:12.72Z</time></trkpt><trkpt lat="45.9886299" lon="11.7662677"><ele>443.0</ele><time>2026-05-01T08:23:13.721Z</time></trkpt><trkpt lat="45.9885628" lon="11.7662402"><ele>442.99999999999994</ele><time>2026-05-01T08:23:14.715Z</time></trkpt><trkpt lat="45.988488" lon="11.7662434"><ele>443.0</ele><time>2026-05-01T08:23:19.727Z</time></trkpt><trkpt lat="45.9883773" lon="11.766207"><ele>443.0</ele><time>2026-05-01T08:23:21.718Z</time></trkpt><trkpt lat="45.9883106" lon="11.7661863"><ele>443.0</ele><time>2026-05-01T08:23:22.729Z</time></trkpt><trkpt lat="45.9882487" lon="11.7661622"><ele>442.99999999999994</ele><time>2026-05-01T08:23:23.725Z</time></trkpt><trkpt lat="45.9881801" lon="11.7661487"><ele>443.0</ele><time>2026-05-01T08:23:24.729Z</time></trkpt><trkpt lat="45.9881058" lon="11.7661498"><ele>441.99999999999994</ele><time>2026-05-01T08:23:26.725Z</time></trkpt><trkpt lat="45.9880349" lon="11.7661303"><ele>441.0</ele><time>2026-05-01T08:23:40.727Z</time></trkpt><trkpt lat="45.9880448" lon="11.7660298"><ele>440.0</ele><time>2026-05-01T08:23:55.781Z</time></trkpt><trkpt lat="45.9880963" lon="11.7659749"><ele>439.0</ele><time>2026-05-01T08:23:57.772Z</time></trkpt><trkpt lat="45.9880732" lon="11.7660664"><ele>437.99999999999994</ele><time>2026-05-01T08:24:03.77Z</time></trkpt><trkpt lat="45.9880056" lon="11.7660503"><ele>437.0</ele><time>2026-05-01T08:24:06.787Z</time></trkpt><trkpt lat="45.9878722" lon="11.7659803"><ele>436.99999999999994</ele><time>2026-05-01T08:24:08.786Z</time></trkpt><trkpt lat="45.9877934" lon="11.7658365"><ele>437.0</ele><time>2026-05-01T08:24:10.786Z</time></trkpt><trkpt lat="45.9877323" lon="11.7657956"><ele>437.0</ele><time>2026-05-01T08:24:11.775Z</time></trkpt><trkpt lat="45.9876619" lon="11.7657898"><ele>437.0</ele><time>2026-05-01T08:24:12.782Z</time></trkpt><trkpt lat="45.9876148" lon="11.7657126"><ele>436.99999999999994</ele><time>2026-05-01T08:24:14.789Z</time></trkpt><trkpt lat="45.9875734" lon="11.7657862"><ele>437.0</ele><time>2026-05-01T08:24:19.785Z</time></trkpt><trkpt lat="45.9875243" lon="11.7658487"><ele>435.99999999999994</ele><time>2026-05-01T08:24:20.76Z</time></trkpt><trkpt lat="45.9874555" lon="11.7659321"><ele>435.0</ele><time>2026-05-01T08:24:21.77Z</time></trkpt><trkpt lat="45.9873988" lon="11.7659973"><ele>434.0</ele><time>2026-05-01T08:24:22.78Z</time></trkpt><trkpt lat="45.9873484" lon="11.7660709"><ele>433.0</ele><time>2026-05-01T08:24:23.772Z</time></trkpt><trkpt lat="45.9872816" lon="11.7660861"><ele>431.99999999999994</ele><time>2026-05-01T08:24:25.776Z</time></trkpt><trkpt lat="45.9872343" lon="11.7661562"><ele>431.0</ele><time>2026-05-01T08:24:28.775Z</time></trkpt><trkpt lat="45.9871469" lon="11.7662236"><ele>430.99999999999994</ele><time>2026-05-01T08:24:30.773Z</time></trkpt><trkpt lat="45.9870671" lon="11.7662221"><ele>431.0</ele><time>2026-05-01T08:24:32.783Z</time></trkpt><trkpt lat="45.9869701" lon="11.7662161"><ele>431.0</ele><time>2026-05-01T08:24:34.767Z</time></trkpt><trkpt lat="45.9869076" lon="11.7662034"><ele>431.0</ele><time>2026-05-01T08:24:35.773Z</time></trkpt><trkpt lat="45.9868294" lon="11.7661616"><ele>430.99999999999994</ele><time>2026-05-01T08:24:37.787Z</time></trkpt><trkpt lat="45.9867301" lon="11.7661989"><ele>431.0</ele><time>2026-05-01T08:24:39.783Z</time></trkpt><trkpt lat="45.9866528" lon="11.7662184"><ele>429.6</ele><time>2026-05-01T08:24:41.775Z</time></trkpt><trkpt lat="45.9865729" lon="11.7662946"><ele>428.20000000000005</ele><time>2026-05-01T08:24:43.786Z</time></trkpt><trkpt lat="45.9864667" lon="11.7663071"><ele>426.79999999999995</ele><time>2026-05-01T08:24:45.789Z</time></trkpt><trkpt lat="45.9864004" lon="11.7663051"><ele>425.4</ele><time>2026-05-01T08:24:46.782Z</time></trkpt><trkpt lat="45.9863331" lon="11.766289"><ele>424.0</ele><time>2026-05-01T08:24:47.773Z</time></trkpt><trkpt lat="45.9862358" lon="11.7661465"><ele>424.0</ele><time>2026-05-01T08:24:49.785Z</time></trkpt><trkpt lat="45.9861879" lon="11.7660437"><ele>424.0</ele><time>2026-05-01T08:24:50.789Z</time></trkpt><trkpt lat="45.9861233" lon="11.7660396"><ele>424.0</ele><time>2026-05-01T08:24:51.769Z</time></trkpt><trkpt lat="45.9859994" lon="11.7660777"><ele>424.0</ele><time>2026-05-01T08:24:53.771Z</time></trkpt><trkpt lat="45.9858865" lon="11.7660885"><ele>424.0</ele><time>2026-05-01T08:24:54.774Z</time></trkpt><trkpt lat="45.9857983" lon="11.765994"><ele>418.33333333333337</ele><time>2026-05-01T08:24:55.756Z</time></trkpt><trkpt lat="45.9857158" lon="11.7659382"><ele>412.6666666666667</ele><time>2026-05-01T08:24:56.785Z</time></trkpt><trkpt lat="45.985653" lon="11.7659261"><ele>407.0</ele><time>2026-05-01T08:24:57.797Z</time></trkpt><trkpt lat="45.9855653" lon="11.7659464"><ele>401.33333333333337</ele><time>2026-05-01T08:24:58.789Z</time></trkpt><trkpt lat="45.985462" lon="11.765956"><ele>395.6666666666667</ele><time>2026-05-01T08:24:59.781Z</time></trkpt><trkpt lat="45.9853609" lon="11.7659664"><ele>390.0</ele><time>2026-05-01T08:25:00.785Z</time></trkpt><trkpt lat="45.9852448" lon="11.7659784"><ele>390.0</ele><time>2026-05-01T08:25:01.787Z</time></trkpt><trkpt lat="45.985161" lon="11.7660171"><ele>390.0</ele><time>2026-05-01T08:25:02.761Z</time></trkpt><trkpt lat="45.9850556" lon="11.7660234"><ele>390.0</ele><time>2026-05-01T08:25:04.777Z</time></trkpt><trkpt lat="45.9849722" lon="11.7659439"><ele>390.0</ele><time>2026-05-01T08:25:05.795Z</time></trkpt><trkpt lat="45.9848945" lon="11.7658834"><ele>390.0</ele><time>2026-05-01T08:25:06.769Z</time></trkpt><trkpt lat="45.9848262" lon="11.7658424"><ele>390.7142857142857</ele><time>2026-05-01T08:25:08.777Z</time></trkpt><trkpt lat="45.984747" lon="11.7658596"><ele>391.42857142857144</ele><time>2026-05-01T08:25:13.782Z</time></trkpt><trkpt lat="45.984681" lon="11.7658714"><ele>392.1428571428571</ele><time>2026-05-01T08:25:14.781Z</time></trkpt><trkpt lat="45.9846163" lon="11.7658531"><ele>392.8571428571429</ele><time>2026-05-01T08:25:16.771Z</time></trkpt><trkpt lat="45.9846158" lon="11.7659445"><ele>393.5714285714286</ele><time>2026-05-01T08:25:21.776Z</time></trkpt><trkpt lat="45.9846909" lon="11.765989"><ele>394.2857142857143</ele><time>2026-05-01T08:25:41.797Z</time></trkpt><trkpt lat="45.9847113" lon="11.7661076"><ele>395.0</ele><time>2026-05-01T08:25:51.766Z</time></trkpt><trkpt lat="45.9846347" lon="11.7661968"><ele>394.99999999999994</ele><time>2026-05-01T08:25:53.753Z</time></trkpt><trkpt lat="45.9845788" lon="11.7662557"><ele>395.0</ele><time>2026-05-01T08:25:54.771Z</time></trkpt><trkpt lat="45.9845302" lon="11.7663153"><ele>395.0</ele><time>2026-05-01T08:25:55.779Z</time></trkpt><trkpt lat="45.9844464" lon="11.7663595"><ele>395.0</ele><time>2026-05-01T08:25:57.774Z</time></trkpt><trkpt lat="45.9843331" lon="11.7664049"><ele>394.99999999999994</ele><time>2026-05-01T08:25:59.763Z</time></trkpt><trkpt lat="45.9842453" lon="11.7664479"><ele>395.0</ele><time>2026-05-01T08:26:01.775Z</time></trkpt><trkpt lat="45.9841463" lon="11.7664673"><ele>389.3333333333333</ele><time>2026-05-01T08:26:04.779Z</time></trkpt><trkpt lat="45.9840279" lon="11.7664472"><ele>383.66666666666663</ele><time>2026-05-01T08:26:06.778Z</time></trkpt><trkpt lat="45.983955" lon="11.7664345"><ele>378.0</ele><time>2026-05-01T08:26:07.787Z</time></trkpt><trkpt lat="45.9838731" lon="11.7664426"><ele>372.3333333333333</ele><time>2026-05-01T08:26:09.769Z</time></trkpt><trkpt lat="45.9837674" lon="11.7664388"><ele>366.66666666666663</ele><time>2026-05-01T08:26:11.773Z</time></trkpt><trkpt lat="45.9836986" lon="11.7664371"><ele>361.0</ele><time>2026-05-01T08:26:12.79Z</time></trkpt><trkpt lat="45.9836012" lon="11.7664548"><ele>361.0</ele><time>2026-05-01T08:26:14.799Z</time></trkpt><trkpt lat="45.983516" lon="11.7664889"><ele>361.0</ele><time>2026-05-01T08:26:16.783Z</time></trkpt><trkpt lat="45.983462" lon="11.7665529"><ele>361.0</ele><time>2026-05-01T08:26:19.742Z</time></trkpt><trkpt lat="45.9834051" lon="11.7666144"><ele>361.0</ele><time>2026-05-01T08:26:36.781Z</time></trkpt><trkpt lat="45.9833162" lon="11.7666408"><ele>361.0</ele><time>2026-05-01T08:26:38.772Z</time></trkpt><trkpt lat="45.9832503" lon="11.7666496"><ele>361.0</ele><time>2026-05-01T08:26:39.797Z</time></trkpt><trkpt lat="45.9831698" lon="11.7666661"><ele>357.20000000000005</ele><time>2026-05-01T08:26:40.783Z</time></trkpt><trkpt lat="45.983061" lon="11.7666898"><ele>353.40000000000003</ele><time>2026-05-01T08:26:41.774Z</time></trkpt><trkpt lat="45.9829493" lon="11.7667058"><ele>349.6</ele><time>2026-05-01T08:26:42.779Z</time></trkpt><trkpt lat="45.9828367" lon="11.7667249"><ele>345.8</ele><time>2026-05-01T08:26:43.765Z</time></trkpt><trkpt lat="45.98274" lon="11.7667448"><ele>342.0</ele><time>2026-05-01T08:26:44.781Z</time></trkpt><trkpt lat="45.9826344" lon="11.7667787"><ele>342.0</ele><time>2026-05-01T08:26:45.779Z</time></trkpt><trkpt lat="45.9825338" lon="11.7668073"><ele>342.0</ele><time>2026-05-01T08:26:46.783Z</time></trkpt><trkpt lat="45.9824269" lon="11.76683"><ele>342.0</ele><time>2026-05-01T08:26:47.783Z</time></trkpt><trkpt lat="45.9823305" lon="11.7668626"><ele>342.0</ele><time>2026-05-01T08:26:48.793Z</time></trkpt><trkpt lat="45.9822273" lon="11.766895"><ele>342.0</ele><time>2026-05-01T08:26:49.794Z</time></trkpt><trkpt lat="45.9821068" lon="11.7669218"><ele>339.8</ele><time>2026-05-01T08:26:50.766Z</time></trkpt><trkpt lat="45.9820023" lon="11.7669331"><ele>337.6</ele><time>2026-05-01T08:26:51.771Z</time></trkpt><trkpt lat="45.9818995" lon="11.7669518"><ele>335.40000000000003</ele><time>2026-05-01T08:26:52.812Z</time></trkpt><trkpt lat="45.9817936" lon="11.7669708"><ele>333.20000000000005</ele><time>2026-05-01T08:26:53.796Z</time></trkpt><trkpt lat="45.9816814" lon="11.7669905"><ele>331.0</ele><time>2026-05-01T08:26:54.781Z</time></trkpt><trkpt lat="45.9815864" lon="11.7670021"><ele>329.0</ele><time>2026-05-01T08:26:55.795Z</time></trkpt><trkpt lat="45.981493" lon="11.7670113"><ele>327.0</ele><time>2026-05-01T08:26:56.782Z</time></trkpt><trkpt lat="45.9814162" lon="11.7670128"><ele>325.0</ele><time>2026-05-01T08:26:57.781Z</time></trkpt><trkpt lat="45.981333" lon="11.7669972"><ele>323.0</ele><time>2026-05-01T08:26:58.789Z</time></trkpt><trkpt lat="45.981254" lon="11.76698"><ele>321.0</ele><time>2026-05-01T08:26:59.765Z</time></trkpt><trkpt lat="45.9811764" lon="11.7669614"><ele>319.0</ele><time>2026-05-01T08:27:00.781Z</time></trkpt><trkpt lat="45.9811035" lon="11.7669393"><ele>319.0</ele><time>2026-05-01T08:27:01.783Z</time></trkpt><trkpt lat="45.9810121" lon="11.7669176"><ele>319.0</ele><time>2026-05-01T08:27:03.776Z</time></trkpt><trkpt lat="45.9809433" lon="11.7668894"><ele>319.0</ele><time>2026-05-01T08:27:07.77Z</time></trkpt><trkpt lat="45.9809053" lon="11.7667008"><ele>319.0</ele><time>2026-05-01T08:27:09.746Z</time></trkpt><trkpt lat="45.9809215" lon="11.7665339"><ele>319.0</ele><time>2026-05-01T08:27:10.784Z</time></trkpt><trkpt lat="45.980951" lon="11.7664261"><ele>319.3333333333333</ele><time>2026-05-01T08:27:11.763Z</time></trkpt><trkpt lat="45.9809896" lon="11.7662992"><ele>319.66666666666663</ele><time>2026-05-01T08:27:13.769Z</time></trkpt><trkpt lat="45.9809993" lon="11.7661958"><ele>320.0</ele><time>2026-05-01T08:27:15.774Z</time></trkpt><trkpt lat="45.9809267" lon="11.7662194"><ele>320.3333333333333</ele><time>2026-05-01T08:27:19.778Z</time></trkpt><trkpt lat="45.9808732" lon="11.7662989"><ele>320.6666666666667</ele><time>2026-05-01T08:27:22.786Z</time></trkpt><trkpt lat="45.9807758" lon="11.7662771"><ele>321.0</ele><time>2026-05-01T08:27:25.792Z</time></trkpt><trkpt lat="45.9807052" lon="11.7662467"><ele>319.40000000000003</ele><time>2026-05-01T08:27:27.781Z</time></trkpt><trkpt lat="45.9806103" lon="11.7662277"><ele>317.8</ele><time>2026-05-01T08:27:30.766Z</time></trkpt><trkpt lat="45.9805044" lon="11.7662554"><ele>316.20000000000005</ele><time>2026-05-01T08:27:32.782Z</time></trkpt><trkpt lat="45.9804159" lon="11.7662267"><ele>314.6</ele><time>2026-05-01T08:27:34.774Z</time></trkpt><trkpt lat="45.980349" lon="11.7661801"><ele>313.0</ele><time>2026-05-01T08:27:36.775Z</time></trkpt><trkpt lat="45.98026" lon="11.7661704"><ele>313.0</ele><time>2026-05-01T08:27:38.776Z</time></trkpt><trkpt lat="45.9801888" lon="11.7660879"><ele>313.0</ele><time>2026-05-01T08:27:41.773Z</time></trkpt><trkpt lat="45.9801495" lon="11.7660036"><ele>313.0</ele><time>2026-05-01T08:27:44.765Z</time></trkpt><trkpt lat="45.980108" lon="11.7659244"><ele>313.0</ele><time>2026-05-01T08:27:47.783Z</time></trkpt><trkpt lat="45.9799975" lon="11.7659108"><ele>313.0</ele><time>2026-05-01T08:27:49.778Z</time></trkpt><trkpt lat="45.9799092" lon="11.7658802"><ele>313.0</ele><time>2026-05-01T08:27:52.776Z</time></trkpt><trkpt lat="45.979823" lon="11.7658848"><ele>315.8333333333333</ele><time>2026-05-01T08:27:54.79Z</time></trkpt><trkpt lat="45.9797863" lon="11.76581"><ele>318.66666666666663</ele><time>2026-05-01T08:27:56.787Z</time></trkpt><trkpt lat="45.9798068" lon="11.76571"><ele>321.5</ele><time>2026-05-01T08:27:57.777Z</time></trkpt><trkpt lat="45.9797663" lon="11.7655856"><ele>324.3333333333333</ele><time>2026-05-01T08:27:59.784Z</time></trkpt><trkpt lat="45.9796979" lon="11.7655341"><ele>327.1666666666667</ele><time>2026-05-01T08:28:00.791Z</time></trkpt><trkpt lat="45.9796023" lon="11.7655014"><ele>330.0</ele><time>2026-05-01T08:28:03.78Z</time></trkpt><trkpt lat="45.9794962" lon="11.7654604"><ele>330.0</ele><time>2026-05-01T08:28:05.794Z</time></trkpt><trkpt lat="45.9793812" lon="11.7654301"><ele>330.0</ele><time>2026-05-01T08:28:07.775Z</time></trkpt><trkpt lat="45.9793096" lon="11.7654611"><ele>330.0</ele><time>2026-05-01T08:28:09.776Z</time></trkpt><trkpt lat="45.979245" lon="11.7654941"><ele>330.0</ele><time>2026-05-01T08:28:16.781Z</time></trkpt><trkpt lat="45.9791707" lon="11.7654542"><ele>330.0</ele><time>2026-05-01T08:28:25.78Z</time></trkpt><trkpt lat="45.9791238" lon="11.7653597"><ele>330.0</ele><time>2026-05-01T08:28:31.78Z</time></trkpt><trkpt lat="45.9790744" lon="11.7652938"><ele>331.3333333333333</ele><time>2026-05-01T08:28:33.783Z</time></trkpt><trkpt lat="45.9790202" lon="11.7652174"><ele>332.6666666666667</ele><time>2026-05-01T08:28:52.78Z</time></trkpt><trkpt lat="45.9789494" lon="11.7651676"><ele>334.0</ele><time>2026-05-01T08:28:55.787Z</time></trkpt><trkpt lat="45.9788472" lon="11.7651455"><ele>335.33333333333337</ele><time>2026-05-01T08:28:57.774Z</time></trkpt><trkpt lat="45.978786" lon="11.7651153"><ele>336.6666666666667</ele><time>2026-05-01T08:28:59.772Z</time></trkpt><trkpt lat="45.9787193" lon="11.7650857"><ele>338.0</ele><time>2026-05-01T08:29:01.778Z</time></trkpt><trkpt lat="45.9786391" lon="11.7649736"><ele>341.0</ele><time>2026-05-01T08:29:04.776Z</time></trkpt><trkpt lat="45.9785778" lon="11.7649282"><ele>344.0</ele><time>2026-05-01T08:29:05.776Z</time></trkpt><trkpt lat="45.9784846" lon="11.7648781"><ele>347.0</ele><time>2026-05-01T08:29:07.775Z</time></trkpt><trkpt lat="45.9784034" lon="11.7648638"><ele>350.0</ele><time>2026-05-01T08:29:12.755Z</time></trkpt><trkpt lat="45.978297" lon="11.7648344"><ele>353.0</ele><time>2026-05-01T08:29:14.777Z</time></trkpt><trkpt lat="45.9781843" lon="11.7647847"><ele>355.83333333333337</ele><time>2026-05-01T08:29:16.78Z</time></trkpt><trkpt lat="45.9781135" lon="11.7647166"><ele>358.6666666666667</ele><time>2026-05-01T08:29:18.782Z</time></trkpt><trkpt lat="45.9780371" lon="11.7646773"><ele>361.5</ele><time>2026-05-01T08:29:21.763Z</time></trkpt><trkpt lat="45.9779821" lon="11.764568"><ele>364.3333333333333</ele><time>2026-05-01T08:29:25.793Z</time></trkpt><trkpt lat="45.9779174" lon="11.7644947"><ele>367.16666666666663</ele><time>2026-05-01T08:29:27.775Z</time></trkpt><trkpt lat="45.9778563" lon="11.7644655"><ele>370.0</ele><time>2026-05-01T08:29:29.773Z</time></trkpt><trkpt lat="45.977798" lon="11.7645136"><ele>370.0</ele><time>2026-05-01T08:29:32.779Z</time></trkpt><trkpt lat="45.9776809" lon="11.764579"><ele>370.0</ele><time>2026-05-01T08:29:35.782Z</time></trkpt><trkpt lat="45.977573" lon="11.7646488"><ele>370.0</ele><time>2026-05-01T08:29:37.779Z</time></trkpt><trkpt lat="45.9774127" lon="11.7646965"><ele>370.0</ele><time>2026-05-01T08:29:39.785Z</time></trkpt><trkpt lat="45.9773379" lon="11.7646794"><ele>373.8</ele><time>2026-05-01T08:29:40.757Z</time></trkpt><trkpt lat="45.9772601" lon="11.7646429"><ele>377.6</ele><time>2026-05-01T08:29:41.781Z</time></trkpt><trkpt lat="45.9771607" lon="11.7646033"><ele>381.4</ele><time>2026-05-01T08:29:42.774Z</time></trkpt><trkpt lat="45.9770732" lon="11.764592"><ele>385.2</ele><time>2026-05-01T08:29:43.768Z</time></trkpt><trkpt lat="45.9769749" lon="11.7645949"><ele>389.0</ele><time>2026-05-01T08:29:45.795Z</time></trkpt><trkpt lat="45.976864" lon="11.7645704"><ele>389.0</ele><time>2026-05-01T08:29:47.768Z</time></trkpt><trkpt lat="45.9767446" lon="11.7645574"><ele>389.0</ele><time>2026-05-01T08:29:49.782Z</time></trkpt><trkpt lat="45.9766293" lon="11.7645173"><ele>389.0</ele><time>2026-05-01T08:29:51.769Z</time></trkpt><trkpt lat="45.9764919" lon="11.7644814"><ele>389.0</ele><time>2026-05-01T08:29:53.794Z</time></trkpt><trkpt lat="45.9764317" lon="11.7644549"><ele>389.0</ele><time>2026-05-01T08:29:54.787Z</time></trkpt><trkpt lat="45.9763482" lon="11.7644265"><ele>390.4</ele><time>2026-05-01T08:29:56.772Z</time></trkpt><trkpt lat="45.9762683" lon="11.7644128"><ele>391.79999999999995</ele><time>2026-05-01T08:29:57.779Z</time></trkpt><trkpt lat="45.9761871" lon="11.7644035"><ele>393.20000000000005</ele><time>2026-05-01T08:29:58.777Z</time></trkpt><trkpt lat="45.9760939" lon="11.7643996"><ele>394.6</ele><time>2026-05-01T08:29:59.786Z</time></trkpt><trkpt lat="45.9759917" lon="11.7643538"><ele>396.0</ele><time>2026-05-01T08:30:01.793Z</time></trkpt><trkpt lat="45.9759026" lon="11.7643243"><ele>402.6</ele><time>2026-05-01T08:30:02.783Z</time></trkpt><trkpt lat="45.9758225" lon="11.7642806"><ele>409.20000000000005</ele><time>2026-05-01T08:30:03.787Z</time></trkpt><trkpt lat="45.9757277" lon="11.7642454"><ele>415.79999999999995</ele><time>2026-05-01T08:30:05.78Z</time></trkpt><trkpt lat="45.9756105" lon="11.7642204"><ele>422.4</ele><time>2026-05-01T08:30:07.781Z</time></trkpt><trkpt lat="45.9754787" lon="11.7641804"><ele>429.0</ele><time>2026-05-01T08:30:09.786Z</time></trkpt><trkpt lat="45.9754066" lon="11.7641543"><ele>429.0</ele><time>2026-05-01T08:30:10.741Z</time></trkpt><trkpt lat="45.9753285" lon="11.7641199"><ele>429.0</ele><time>2026-05-01T08:30:11.751Z</time></trkpt><trkpt lat="45.9752582" lon="11.7640925"><ele>429.0</ele><time>2026-05-01T08:30:12.784Z</time></trkpt><trkpt lat="45.975146" lon="11.7640597"><ele>429.0</ele><time>2026-05-01T08:30:14.766Z</time></trkpt><trkpt lat="45.9750596" lon="11.7640697"><ele>429.0</ele><time>2026-05-01T08:30:17.758Z</time></trkpt><trkpt lat="45.9749942" lon="11.7640353"><ele>429.0</ele><time>2026-05-01T08:30:19.782Z</time></trkpt><trkpt lat="45.9749213" lon="11.7639793"><ele>428.7142857142857</ele><time>2026-05-01T08:30:20.782Z</time></trkpt><trkpt lat="45.974867" lon="11.7639234"><ele>428.42857142857144</ele><time>2026-05-01T08:30:21.776Z</time></trkpt><trkpt lat="45.974811" lon="11.7638706"><ele>428.1428571428571</ele><time>2026-05-01T08:30:22.742Z</time></trkpt><trkpt lat="45.9747427" lon="11.763805"><ele>427.8571428571429</ele><time>2026-05-01T08:30:23.757Z</time></trkpt><trkpt lat="45.9746755" lon="11.7637385"><ele>427.57142857142856</ele><time>2026-05-01T08:30:24.787Z</time></trkpt><trkpt lat="45.9746134" lon="11.7636998"><ele>427.2857142857143</ele><time>2026-05-01T08:30:25.773Z</time></trkpt><trkpt lat="45.9745544" lon="11.7636547"><ele>427.0</ele><time>2026-05-01T08:30:26.78Z</time></trkpt><trkpt lat="45.9744591" lon="11.7636044"><ele>427.0</ele><time>2026-05-01T08:30:28.737Z</time></trkpt><trkpt lat="45.9743996" lon="11.7635688"><ele>427.00000000000006</ele><time>2026-05-01T08:30:29.732Z</time></trkpt><trkpt lat="45.9743285" lon="11.7635285"><ele>427.00000000000006</ele><time>2026-05-01T08:30:30.735Z</time></trkpt><trkpt lat="45.9742335" lon="11.7634899"><ele>427.0</ele><time>2026-05-01T08:30:32.732Z</time></trkpt><trkpt lat="45.9741246" lon="11.763417"><ele>427.0</ele><time>2026-05-01T08:30:34.737Z</time></trkpt><trkpt lat="45.9740074" lon="11.7633293"><ele>429.83333333333337</ele><time>2026-05-01T08:30:36.728Z</time></trkpt><trkpt lat="45.9739433" lon="11.763303"><ele>432.6666666666667</ele><time>2026-05-01T08:30:37.739Z</time></trkpt><trkpt lat="45.9738544" lon="11.7632819"><ele>435.5</ele><time>2026-05-01T08:30:39.734Z</time></trkpt><trkpt lat="45.9737746" lon="11.7633063"><ele>438.33333333333337</ele><time>2026-05-01T08:30:42.766Z</time></trkpt><trkpt lat="45.9737081" lon="11.7633308"><ele>441.1666666666667</ele><time>2026-05-01T08:30:49.782Z</time></trkpt><trkpt lat="45.9736157" lon="11.7633202"><ele>444.0</ele><time>2026-05-01T08:30:52.784Z</time></trkpt><trkpt lat="45.9735225" lon="11.7633069"><ele>444.0</ele><time>2026-05-01T08:30:54.777Z</time></trkpt><trkpt lat="45.9734055" lon="11.7632951"><ele>444.0</ele><time>2026-05-01T08:30:56.758Z</time></trkpt><trkpt lat="45.9733323" lon="11.7632932"><ele>444.0</ele><time>2026-05-01T08:30:57.779Z</time></trkpt><trkpt lat="45.9731716" lon="11.7632513"><ele>444.0</ele><time>2026-05-01T08:30:59.783Z</time></trkpt><trkpt lat="45.9731031" lon="11.763252"><ele>444.0</ele><time>2026-05-01T08:31:00.79Z</time></trkpt><trkpt lat="45.9730366" lon="11.7632646"><ele>444.6666666666667</ele><time>2026-05-01T08:31:01.783Z</time></trkpt><trkpt lat="45.9729499" lon="11.763313"><ele>445.33333333333337</ele><time>2026-05-01T08:31:03.785Z</time></trkpt><trkpt lat="45.9728891" lon="11.7633474"><ele>446.0</ele><time>2026-05-01T08:31:04.785Z</time></trkpt><trkpt lat="45.9728262" lon="11.7633816"><ele>446.6666666666667</ele><time>2026-05-01T08:31:05.777Z</time></trkpt><trkpt lat="45.9727128" lon="11.763414"><ele>447.33333333333337</ele><time>2026-05-01T08:31:07.793Z</time></trkpt><trkpt lat="45.9726367" lon="11.7633883"><ele>448.0</ele><time>2026-05-01T08:31:09.785Z</time></trkpt><trkpt lat="45.9725672" lon="11.7633286"><ele>447.4</ele><time>2026-05-01T08:31:11.788Z</time></trkpt><trkpt lat="45.9724717" lon="11.7632744"><ele>446.79999999999995</ele><time>2026-05-01T08:31:13.78Z</time></trkpt><trkpt lat="45.9723922" lon="11.7632065"><ele>446.2</ele><time>2026-05-01T08:31:15.738Z</time></trkpt><trkpt lat="45.9722872" lon="11.763182"><ele>445.6</ele><time>2026-05-01T08:31:17.733Z</time></trkpt><trkpt lat="45.9722096" lon="11.7631735"><ele>445.0</ele><time>2026-05-01T08:31:18.725Z</time></trkpt><trkpt lat="45.9721129" lon="11.7631683"><ele>445.00000000000006</ele><time>2026-05-01T08:31:19.727Z</time></trkpt><trkpt lat="45.9720056" lon="11.7631674"><ele>445.0</ele><time>2026-05-01T08:31:20.688Z</time></trkpt><trkpt lat="45.9719134" lon="11.7631448"><ele>445.0</ele><time>2026-05-01T08:31:21.735Z</time></trkpt><trkpt lat="45.9718416" lon="11.7631055"><ele>445.0</ele><time>2026-05-01T08:31:22.742Z</time></trkpt><trkpt lat="45.9717729" lon="11.7630829"><ele>445.00000000000006</ele><time>2026-05-01T08:31:23.714Z</time></trkpt><trkpt lat="45.9717015" lon="11.7630658"><ele>445.0</ele><time>2026-05-01T08:31:24.736Z</time></trkpt><trkpt lat="45.9716305" lon="11.7630537"><ele>446.00000000000006</ele><time>2026-05-01T08:31:25.723Z</time></trkpt><trkpt lat="45.9715652" lon="11.7630591"><ele>447.0</ele><time>2026-05-01T08:31:26.731Z</time></trkpt><trkpt lat="45.9714492" lon="11.763056"><ele>448.0</ele><time>2026-05-01T08:31:28.74Z</time></trkpt><trkpt lat="45.9713689" lon="11.7630578"><ele>449.0</ele><time>2026-05-01T08:31:31.728Z</time></trkpt><trkpt lat="45.9712953" lon="11.7629874"><ele>450.00000000000006</ele><time>2026-05-01T08:31:34.745Z</time></trkpt><trkpt lat="45.9712253" lon="11.762918"><ele>451.0</ele><time>2026-05-01T08:31:36.718Z</time></trkpt><trkpt lat="45.9711458" lon="11.7628616"><ele>451.0</ele><time>2026-05-01T08:31:37.733Z</time></trkpt><trkpt lat="45.9710551" lon="11.7627857"><ele>451.0</ele><time>2026-05-01T08:31:38.732Z</time></trkpt><trkpt lat="45.9709723" lon="11.7627119"><ele>451.0</ele><time>2026-05-01T08:31:39.719Z</time></trkpt><trkpt lat="45.9708853" lon="11.7626353"><ele>451.0</ele><time>2026-05-01T08:31:40.717Z</time></trkpt><trkpt lat="45.9709732" lon="11.7625782"><ele>451.0</ele><time>2026-05-01T08:31:45.719Z</time></trkpt><trkpt lat="45.9711014" lon="11.7625251"><ele>449.1666666666667</ele><time>2026-05-01T08:31:47.73Z</time></trkpt><trkpt lat="45.9711725" lon="11.7624933"><ele>447.33333333333337</ele><time>2026-05-01T08:31:48.729Z</time></trkpt><trkpt lat="45.9712339" lon="11.7624682"><ele>445.5</ele><time>2026-05-01T08:31:49.728Z</time></trkpt><trkpt lat="45.971306" lon="11.7624334"><ele>443.66666666666663</ele><time>2026-05-01T08:31:51.755Z</time></trkpt><trkpt lat="45.9713823" lon="11.7624093"><ele>441.8333333333333</ele><time>2026-05-01T08:31:53.719Z</time></trkpt><trkpt lat="45.9714743" lon="11.7623713"><ele>440.0</ele><time>2026-05-01T08:31:55.733Z</time></trkpt><trkpt lat="45.9715424" lon="11.7623601"><ele>439.99999999999994</ele><time>2026-05-01T08:31:57.72Z</time></trkpt><trkpt lat="45.9716031" lon="11.7623303"><ele>440.0</ele><time>2026-05-01T08:32:00.72Z</time></trkpt><trkpt lat="45.9715656" lon="11.7622404"><ele>440.0</ele><time>2026-05-01T08:32:18.732Z</time></trkpt><trkpt lat="45.9714937" lon="11.7621815"><ele>440.0</ele><time>2026-05-01T08:32:20.72Z</time></trkpt><trkpt lat="45.9714243" lon="11.7621115"><ele>440.0</ele><time>2026-05-01T08:32:22.741Z</time></trkpt><trkpt lat="45.9713583" lon="11.7620451"><ele>439.99999999999994</ele><time>2026-05-01T08:32:24.736Z</time></trkpt><trkpt lat="45.9713119" lon="11.7619835"><ele>440.0</ele><time>2026-05-01T08:32:26.72Z</time></trkpt><trkpt lat="45.9712335" lon="11.761886"><ele>433.49999999999994</ele><time>2026-05-01T08:32:29.737Z</time></trkpt><trkpt lat="45.9711564" lon="11.7618226"><ele>427.0</ele><time>2026-05-01T08:32:31.726Z</time></trkpt><trkpt lat="45.9710422" lon="11.7617854"><ele>420.5</ele><time>2026-05-01T08:32:33.728Z</time></trkpt><trkpt lat="45.9709713" lon="11.7617699"><ele>414.0</ele><time>2026-05-01T08:32:34.745Z</time></trkpt><trkpt lat="45.9708995" lon="11.7617493"><ele>407.49999999999994</ele><time>2026-05-01T08:32:35.728Z</time></trkpt><trkpt lat="45.9708343" lon="11.761742"><ele>401.0</ele><time>2026-05-01T08:32:36.73Z</time></trkpt><trkpt lat="45.9707583" lon="11.7617226"><ele>400.66666666666663</ele><time>2026-05-01T08:32:38.741Z</time></trkpt><trkpt lat="45.9706917" lon="11.7616829"><ele>400.3333333333333</ele><time>2026-05-01T08:32:40.709Z</time></trkpt><trkpt lat="45.9706174" lon="11.7616426"><ele>400.0</ele><time>2026-05-01T08:32:43.718Z</time></trkpt><trkpt lat="45.9705889" lon="11.761554"><ele>399.66666666666663</ele><time>2026-05-01T08:32:47.704Z</time></trkpt><trkpt lat="45.9705618" lon="11.761457"><ele>399.3333333333333</ele><time>2026-05-01T08:32:48.729Z</time></trkpt><trkpt lat="45.970495" lon="11.7613814"><ele>399.0</ele><time>2026-05-01T08:32:49.73Z</time></trkpt><trkpt lat="45.9704044" lon="11.7613615"><ele>399.0</ele><time>2026-05-01T08:32:51.72Z</time></trkpt><trkpt lat="45.9703368" lon="11.7613099"><ele>399.0</ele><time>2026-05-01T08:32:53.735Z</time></trkpt><trkpt lat="45.9702415" lon="11.7612709"><ele>399.0</ele><time>2026-05-01T08:32:55.732Z</time></trkpt><trkpt lat="45.970146" lon="11.76133"><ele>399.0</ele><time>2026-05-01T08:32:57.724Z</time></trkpt><trkpt lat="45.9700606" lon="11.7614134"><ele>399.0</ele><time>2026-05-01T08:32:59.726Z</time></trkpt><trkpt lat="45.9699766" lon="11.761503"><ele>393.8333333333333</ele><time>2026-05-01T08:33:01.711Z</time></trkpt><trkpt lat="45.96991" lon="11.7615826"><ele>388.6666666666667</ele><time>2026-05-01T08:33:03.711Z</time></trkpt><trkpt lat="45.9698526" lon="11.7616382"><ele>383.5</ele><time>2026-05-01T08:33:06.722Z</time></trkpt><trkpt lat="45.9697665" lon="11.7617002"><ele>378.33333333333337</ele><time>2026-05-01T08:33:09.722Z</time></trkpt><trkpt lat="45.9696844" lon="11.7617327"><ele>373.1666666666667</ele><time>2026-05-01T08:33:12.728Z</time></trkpt><trkpt lat="45.9696166" lon="11.7617509"><ele>368.0</ele><time>2026-05-01T08:33:14.687Z</time></trkpt><trkpt lat="45.9695637" lon="11.7618357"><ele>368.0</ele><time>2026-05-01T08:33:17.725Z</time></trkpt><trkpt lat="45.9694553" lon="11.761856"><ele>368.0</ele><time>2026-05-01T08:33:20.721Z</time></trkpt><trkpt lat="45.9694094" lon="11.7619239"><ele>368.0</ele><time>2026-05-01T08:33:25.72Z</time></trkpt><trkpt lat="45.9694738" lon="11.7619885"><ele>368.0</ele><time>2026-05-01T08:33:36.728Z</time></trkpt><trkpt lat="45.9695249" lon="11.7620855"><ele>368.0</ele><time>2026-05-01T08:33:48.715Z</time></trkpt><trkpt lat="45.9695076" lon="11.7621847"><ele>368.0</ele><time>2026-05-01T08:33:50.723Z</time></trkpt><trkpt lat="45.9694576" lon="11.7622659"><ele>370.83333333333337</ele><time>2026-05-01T08:33:53.728Z</time></trkpt><trkpt lat="45.969368" lon="11.7622723"><ele>373.6666666666667</ele><time>2026-05-01T08:33:56.737Z</time></trkpt><trkpt lat="45.9692978" lon="11.7623151"><ele>376.5</ele><time>2026-05-01T08:33:59.747Z</time></trkpt><trkpt lat="45.9692445" lon="11.7623863"><ele>379.33333333333337</ele><time>2026-05-01T08:34:02.72Z</time></trkpt><trkpt lat="45.9692291" lon="11.7624805"><ele>382.1666666666667</ele><time>2026-05-01T08:34:05.709Z</time></trkpt><trkpt lat="45.9692231" lon="11.7626074"><ele>385.0</ele><time>2026-05-01T08:34:07.736Z</time></trkpt><trkpt lat="45.9692025" lon="11.7627668"><ele>385.00000000000006</ele><time>2026-05-01T08:34:09.727Z</time></trkpt><trkpt lat="45.9691995" lon="11.7628891"><ele>385.0</ele><time>2026-05-01T08:34:12.721Z</time></trkpt><trkpt lat="45.9691724" lon="11.762981"><ele>385.0</ele><time>2026-05-01T08:34:20.739Z</time></trkpt><trkpt lat="45.9691181" lon="11.7630802"><ele>385.0</ele><time>2026-05-01T08:34:23.725Z</time></trkpt><trkpt lat="45.9691303" lon="11.7629825"><ele>385.00000000000006</ele><time>2026-05-01T08:34:28.723Z</time></trkpt><trkpt lat="45.9691287" lon="11.7628842"><ele>385.0</ele><time>2026-05-01T08:34:30.733Z</time></trkpt><trkpt lat="45.9691065" lon="11.7627761"><ele>377.50000000000006</ele><time>2026-05-01T08:34:34.718Z</time></trkpt><trkpt lat="45.9690726" lon="11.7626853"><ele>370.0</ele><time>2026-05-01T08:34:37.727Z</time></trkpt><trkpt lat="45.9689923" lon="11.7626134"><ele>362.5</ele><time>2026-05-01T08:34:41.723Z</time></trkpt><trkpt lat="45.9689537" lon="11.7624954"><ele>355.0</ele><time>2026-05-01T08:34:44.72Z</time></trkpt><trkpt lat="45.9688996" lon="11.7624339"><ele>347.5</ele><time>2026-05-01T08:34:46.716Z</time></trkpt><trkpt lat="45.9688366" lon="11.7623129"><ele>340.0</ele><time>2026-05-01T08:34:48.736Z</time></trkpt><trkpt lat="45.9687962" lon="11.7622181"><ele>340.0</ele><time>2026-05-01T08:34:51.737Z</time></trkpt><trkpt lat="45.968802" lon="11.7621262"><ele>340.0</ele><time>2026-05-01T08:34:55.732Z</time></trkpt><trkpt lat="45.9687435" lon="11.7620831"><ele>340.0</ele><time>2026-05-01T08:35:20.761Z</time></trkpt><trkpt lat="45.9687443" lon="11.761982"><ele>340.0</ele><time>2026-05-01T08:35:22.785Z</time></trkpt><trkpt lat="45.96873" lon="11.7618927"><ele>340.0</ele><time>2026-05-01T08:35:27.78Z</time></trkpt><trkpt lat="45.968654" lon="11.7618447"><ele>340.0</ele><time>2026-05-01T08:35:30.782Z</time></trkpt><trkpt lat="45.9685711" lon="11.7617944"><ele>340.0</ele><time>2026-05-01T08:35:32.784Z</time></trkpt><trkpt lat="45.9685159" lon="11.7617089"><ele>339.5</ele><time>2026-05-01T08:35:35.766Z</time></trkpt><trkpt lat="45.9684639" lon="11.7616546"><ele>339.0</ele><time>2026-05-01T08:35:37.785Z</time></trkpt><trkpt lat="45.9683977" lon="11.7616534"><ele>338.5</ele><time>2026-05-01T08:35:43.783Z</time></trkpt><trkpt lat="45.9683423" lon="11.7615911"><ele>338.0</ele><time>2026-05-01T08:35:46.782Z</time></trkpt><trkpt lat="45.9682858" lon="11.7615039"><ele>337.5</ele><time>2026-05-01T08:35:48.792Z</time></trkpt><trkpt lat="45.9682672" lon="11.7613833"><ele>337.0</ele><time>2026-05-01T08:35:51.782Z</time></trkpt><trkpt lat="45.9682444" lon="11.7612577"><ele>334.66666666666663</ele><time>2026-05-01T08:35:54.775Z</time></trkpt><trkpt lat="45.9682048" lon="11.76117"><ele>332.3333333333333</ele><time>2026-05-01T08:35:56.781Z</time></trkpt><trkpt lat="45.9681537" lon="11.7610732"><ele>330.0</ele><time>2026-05-01T08:35:58.786Z</time></trkpt><trkpt lat="45.9680944" lon="11.7610083"><ele>327.6666666666667</ele><time>2026-05-01T08:36:01.789Z</time></trkpt><trkpt lat="45.9682076" lon="11.7609283"><ele>325.33333333333337</ele><time>2026-05-01T08:36:04.782Z</time></trkpt><trkpt lat="45.9682877" lon="11.7608994"><ele>323.0</ele><time>2026-05-01T08:36:05.783Z</time></trkpt><trkpt lat="45.9683696" lon="11.7608397"><ele>322.79999999999995</ele><time>2026-05-01T08:36:06.774Z</time></trkpt><trkpt lat="45.968452" lon="11.7607824"><ele>322.6</ele><time>2026-05-01T08:36:07.785Z</time></trkpt><trkpt lat="45.9685576" lon="11.760739"><ele>322.4</ele><time>2026-05-01T08:36:08.796Z</time></trkpt><trkpt lat="45.9686526" lon="11.7607052"><ele>322.20000000000005</ele><time>2026-05-01T08:36:09.789Z</time></trkpt><trkpt lat="45.9687244" lon="11.7606773"><ele>322.0</ele><time>2026-05-01T08:36:10.793Z</time></trkpt><trkpt lat="45.9687984" lon="11.7606074"><ele>322.0</ele><time>2026-05-01T08:36:11.836Z</time></trkpt><trkpt lat="45.9688716" lon="11.7605526"><ele>322.0</ele><time>2026-05-01T08:36:13.749Z</time></trkpt><trkpt lat="45.9688875" lon="11.7604023"><ele>322.0</ele><time>2026-05-01T08:36:16.794Z</time></trkpt><trkpt lat="45.9688119" lon="11.7602248"><ele>322.0</ele><time>2026-05-01T08:36:18.811Z</time></trkpt><trkpt lat="45.9687922" lon="11.7601143"><ele>322.0</ele><time>2026-05-01T08:36:19.789Z</time></trkpt><trkpt lat="45.9687688" lon="11.7600107"><ele>320.0</ele><time>2026-05-01T08:36:20.8Z</time></trkpt><trkpt lat="45.9687316" lon="11.759912"><ele>318.0</ele><time>2026-05-01T08:36:21.794Z</time></trkpt><trkpt lat="45.9686761" lon="11.7598265"><ele>316.0</ele><time>2026-05-01T08:36:22.793Z</time></trkpt><trkpt lat="45.9686247" lon="11.7597299"><ele>314.0</ele><time>2026-05-01T08:36:23.8Z</time></trkpt><trkpt lat="45.9685656" lon="11.7596072"><ele>312.0</ele><time>2026-05-01T08:36:25.798Z</time></trkpt><trkpt lat="45.968556" lon="11.7594584"><ele>310.0</ele><time>2026-05-01T08:36:27.799Z</time></trkpt><trkpt lat="45.968522" lon="11.7593383"><ele>308.0</ele><time>2026-05-01T08:36:29.781Z</time></trkpt><trkpt lat="45.9684823" lon="11.759262"><ele>306.0</ele><time>2026-05-01T08:36:31.788Z</time></trkpt><trkpt lat="45.9684257" lon="11.759184"><ele>304.0</ele><time>2026-05-01T08:36:34.776Z</time></trkpt><trkpt lat="45.9683233" lon="11.7590947"><ele>302.0</ele><time>2026-05-01T08:36:52.741Z</time></trkpt><trkpt lat="45.9682363" lon="11.7590624"><ele>300.0</ele><time>2026-05-01T08:36:53.728Z</time></trkpt><trkpt lat="45.9681508" lon="11.7590361"><ele>299.5</ele><time>2026-05-01T08:36:54.733Z</time></trkpt><trkpt lat="45.9680503" lon="11.7589931"><ele>299.0</ele><time>2026-05-01T08:36:55.735Z</time></trkpt><trkpt lat="45.9679246" lon="11.7589109"><ele>298.5</ele><time>2026-05-01T08:36:56.729Z</time></trkpt><trkpt lat="45.9677836" lon="11.7588035"><ele>298.0</ele><time>2026-05-01T08:36:57.738Z</time></trkpt><trkpt lat="45.967654" lon="11.7586885"><ele>298.0</ele><time>2026-05-01T08:36:58.734Z</time></trkpt><trkpt lat="45.9675404" lon="11.7585886"><ele>298.0</ele><time>2026-05-01T08:36:59.737Z</time></trkpt><trkpt lat="45.9674278" lon="11.758484"><ele>298.0</ele><time>2026-05-01T08:37:00.733Z</time></trkpt><trkpt lat="45.9673345" lon="11.7583986"><ele>298.0</ele><time>2026-05-01T08:37:01.736Z</time></trkpt><trkpt lat="45.967256" lon="11.7583292"><ele>297.4</ele><time>2026-05-01T08:37:02.724Z</time></trkpt><trkpt lat="45.9671662" lon="11.7582509"><ele>296.8</ele><time>2026-05-01T08:37:03.73Z</time></trkpt><trkpt lat="45.9670738" lon="11.7581679"><ele>296.2</ele><time>2026-05-01T08:37:04.747Z</time></trkpt><trkpt lat="45.9669856" lon="11.7580934"><ele>295.6</ele><time>2026-05-01T08:37:05.722Z</time></trkpt><trkpt lat="45.9668867" lon="11.7580169"><ele>295.0</ele><time>2026-05-01T08:37:06.748Z</time></trkpt><trkpt lat="45.9667691" lon="11.7579578"><ele>292.5</ele><time>2026-05-01T08:37:07.737Z</time></trkpt><trkpt lat="45.9666142" lon="11.7579277"><ele>290.0</ele><time>2026-05-01T08:37:08.73Z</time></trkpt><trkpt lat="45.9664591" lon="11.7579176"><ele>287.5</ele><time>2026-05-01T08:37:09.737Z</time></trkpt><trkpt lat="45.9663409" lon="11.7579077"><ele>285.0</ele><time>2026-05-01T08:37:10.747Z</time></trkpt><trkpt lat="45.9662564" lon="11.7578956"><ele>285.0</ele><time>2026-05-01T08:37:11.727Z</time></trkpt><trkpt lat="45.9661821" lon="11.7578721"><ele>285.0</ele><time>2026-05-01T08:37:12.748Z</time></trkpt><trkpt lat="45.9661152" lon="11.7578201"><ele>285.0</ele><time>2026-05-01T08:37:13.735Z</time></trkpt><trkpt lat="45.9660474" lon="11.7577199"><ele>285.0</ele><time>2026-05-01T08:37:14.741Z</time></trkpt><trkpt lat="45.965983" lon="11.7576134"><ele>285.0</ele><time>2026-05-01T08:37:15.737Z</time></trkpt><trkpt lat="45.9659272" lon="11.757519"><ele>285.0</ele><time>2026-05-01T08:37:16.717Z</time></trkpt><trkpt lat="45.9658572" lon="11.757423"><ele>285.4</ele><time>2026-05-01T08:37:17.737Z</time></trkpt><trkpt lat="45.9657865" lon="11.7573255"><ele>285.8</ele><time>2026-05-01T08:37:18.739Z</time></trkpt><trkpt lat="45.965709" lon="11.7572243"><ele>286.2</ele><time>2026-05-01T08:37:19.744Z</time></trkpt><trkpt lat="45.9656352" lon="11.7571366"><ele>286.6</ele><time>2026-05-01T08:37:20.726Z</time></trkpt><trkpt lat="45.9655541" lon="11.7570405"><ele>287.0</ele><time>2026-05-01T08:37:21.732Z</time></trkpt><trkpt lat="45.9654785" lon="11.7569635"><ele>288.8</ele><time>2026-05-01T08:37:22.741Z</time></trkpt><trkpt lat="45.9654004" lon="11.7568658"><ele>290.6</ele><time>2026-05-01T08:37:23.74Z</time></trkpt><trkpt lat="45.9653237" lon="11.7567692"><ele>292.40000000000003</ele><time>2026-05-01T08:37:24.728Z</time></trkpt><trkpt lat="45.9652458" lon="11.7566812"><ele>294.2</ele><time>2026-05-01T08:37:25.738Z</time></trkpt><trkpt lat="45.9651689" lon="11.7565918"><ele>296.0</ele><time>2026-05-01T08:37:26.753Z</time></trkpt><trkpt lat="45.9650917" lon="11.7565033"><ele>293.0</ele><time>2026-05-01T08:37:27.734Z</time></trkpt><trkpt lat="45.9650143" lon="11.7564113"><ele>290.0</ele><time>2026-05-01T08:37:28.748Z</time></trkpt><trkpt lat="45.9649415" lon="11.7563181"><ele>287.0</ele><time>2026-05-01T08:37:29.733Z</time></trkpt><trkpt lat="45.9648797" lon="11.7562411"><ele>284.0</ele><time>2026-05-01T08:37:30.719Z</time></trkpt><trkpt lat="45.964808" lon="11.7561554"><ele>281.0</ele><time>2026-05-01T08:37:31.739Z</time></trkpt><trkpt lat="45.9647386" lon="11.7560808"><ele>281.0</ele><time>2026-05-01T08:37:32.742Z</time></trkpt><trkpt lat="45.9646673" lon="11.7560252"><ele>281.0</ele><time>2026-05-01T08:37:33.73Z</time></trkpt><trkpt lat="45.9645924" lon="11.7559912"><ele>281.0</ele><time>2026-05-01T08:37:34.731Z</time></trkpt><trkpt lat="45.9645071" lon="11.7559818"><ele>281.0</ele><time>2026-05-01T08:37:35.756Z</time></trkpt><trkpt lat="45.9644237" lon="11.7559785"><ele>281.0</ele><time>2026-05-01T08:37:36.747Z</time></trkpt><trkpt lat="45.9643326" lon="11.7560127"><ele>281.0</ele><time>2026-05-01T08:37:37.741Z</time></trkpt><trkpt lat="45.9642231" lon="11.7560672"><ele>278.8</ele><time>2026-05-01T08:37:38.75Z</time></trkpt><trkpt lat="45.9641131" lon="11.7561234"><ele>276.6</ele><time>2026-05-01T08:37:39.736Z</time></trkpt><trkpt lat="45.9640028" lon="11.7561739"><ele>274.4</ele><time>2026-05-01T08:37:40.747Z</time></trkpt><trkpt lat="45.9638886" lon="11.7562194"><ele>272.2</ele><time>2026-05-01T08:37:41.74Z</time></trkpt><trkpt lat="45.9637934" lon="11.7562441"><ele>270.0</ele><time>2026-05-01T08:37:42.739Z</time></trkpt><trkpt lat="45.9636969" lon="11.756263"><ele>270.0</ele><time>2026-05-01T08:37:43.752Z</time></trkpt><trkpt lat="45.9636086" lon="11.7562682"><ele>270.0</ele><time>2026-05-01T08:37:44.734Z</time></trkpt><trkpt lat="45.9635292" lon="11.7562716"><ele>270.0</ele><time>2026-05-01T08:37:45.729Z</time></trkpt><trkpt lat="45.9634555" lon="11.756275"><ele>270.0</ele><time>2026-05-01T08:37:46.74Z</time></trkpt><trkpt lat="45.9633709" lon="11.7562822"><ele>270.0</ele><time>2026-05-01T08:37:47.733Z</time></trkpt><trkpt lat="45.963277" lon="11.756285"><ele>270.0</ele><time>2026-05-01T08:37:48.738Z</time></trkpt><trkpt lat="45.9631729" lon="11.7562871"><ele>270.0</ele><time>2026-05-01T08:37:49.735Z</time></trkpt><trkpt lat="45.9630739" lon="11.7562905"><ele>270.0</ele><time>2026-05-01T08:37:50.748Z</time></trkpt><trkpt lat="45.9629729" lon="11.7562959"><ele>270.0</ele><time>2026-05-01T08:37:51.738Z</time></trkpt><trkpt lat="45.9628645" lon="11.7563019"><ele>270.0</ele><time>2026-05-01T08:37:52.733Z</time></trkpt><trkpt lat="45.9627571" lon="11.7562904"><ele>270.0</ele><time>2026-05-01T08:37:53.732Z</time></trkpt><trkpt lat="45.9626591" lon="11.7562734"><ele>270.0</ele><time>2026-05-01T08:37:54.74Z</time></trkpt><trkpt lat="45.9625706" lon="11.7562555"><ele>270.0</ele><time>2026-05-01T08:37:55.73Z</time></trkpt><trkpt lat="45.9624767" lon="11.7562345"><ele>270.0</ele><time>2026-05-01T08:37:56.744Z</time></trkpt><trkpt lat="45.962389" lon="11.756213"><ele>270.0</ele><time>2026-05-01T08:37:57.74Z</time></trkpt><trkpt lat="45.9623069" lon="11.7561843"><ele>270.0</ele><time>2026-05-01T08:37:58.746Z</time></trkpt><trkpt lat="45.9622362" lon="11.7561514"><ele>270.0</ele><time>2026-05-01T08:37:59.737Z</time></trkpt><trkpt lat="45.9621783" lon="11.7561155"><ele>269.6</ele><time>2026-05-01T08:38:00.732Z</time></trkpt><trkpt lat="45.9620725" lon="11.7560383"><ele>269.2</ele><time>2026-05-01T08:38:02.744Z</time></trkpt><trkpt lat="45.9619875" lon="11.7559616"><ele>268.8</ele><time>2026-05-01T08:38:04.751Z</time></trkpt><trkpt lat="45.9619015" lon="11.7558524"><ele>268.4</ele><time>2026-05-01T08:38:06.747Z</time></trkpt><trkpt lat="45.9618542" lon="11.7557788"><ele>268.0</ele><time>2026-05-01T08:38:07.729Z</time></trkpt><trkpt lat="45.961809" lon="11.755696"><ele>269.6</ele><time>2026-05-01T08:38:08.739Z</time></trkpt><trkpt lat="45.9617696" lon="11.7556187"><ele>271.20000000000005</ele><time>2026-05-01T08:38:09.74Z</time></trkpt><trkpt lat="45.9617077" lon="11.7554755"><ele>272.8</ele><time>2026-05-01T08:38:11.733Z</time></trkpt><trkpt lat="45.9616764" lon="11.7553963"><ele>274.40000000000003</ele><time>2026-05-01T08:38:12.729Z</time></trkpt><trkpt lat="45.9616236" lon="11.7552469"><ele>276.0</ele><time>2026-05-01T08:38:14.718Z</time></trkpt><trkpt lat="45.9615616" lon="11.7550987"><ele>282.5</ele><time>2026-05-01T08:38:16.743Z</time></trkpt><trkpt lat="45.9614869" lon="11.7549634"><ele>289.0</ele><time>2026-05-01T08:38:18.724Z</time></trkpt><trkpt lat="45.9614044" lon="11.7548556"><ele>295.5</ele><time>2026-05-01T08:38:20.727Z</time></trkpt><trkpt lat="45.9613209" lon="11.7547197"><ele>302.0</ele><time>2026-05-01T08:38:22.729Z</time></trkpt><trkpt lat="45.9612409" lon="11.7545777"><ele>302.0</ele><time>2026-05-01T08:38:24.742Z</time></trkpt><trkpt lat="45.9611477" lon="11.7544337"><ele>302.0</ele><time>2026-05-01T08:38:26.729Z</time></trkpt><trkpt lat="45.9610761" lon="11.7543461"><ele>302.0</ele><time>2026-05-01T08:38:27.745Z</time></trkpt><trkpt lat="45.9610151" lon="11.7542292"><ele>302.0</ele><time>2026-05-01T08:38:28.732Z</time></trkpt><trkpt lat="45.9609557" lon="11.7541277"><ele>302.0</ele><time>2026-05-01T08:38:29.722Z</time></trkpt><trkpt lat="45.9608991" lon="11.754035"><ele>304.1666666666667</ele><time>2026-05-01T08:38:30.733Z</time></trkpt><trkpt lat="45.9608627" lon="11.753931"><ele>306.33333333333337</ele><time>2026-05-01T08:38:32.717Z</time></trkpt><trkpt lat="45.9608184" lon="11.7538171"><ele>308.5</ele><time>2026-05-01T08:38:34.739Z</time></trkpt><trkpt lat="45.9607848" lon="11.7537197"><ele>310.6666666666667</ele><time>2026-05-01T08:38:35.734Z</time></trkpt><trkpt lat="45.96074" lon="11.7536138"><ele>312.8333333333333</ele><time>2026-05-01T08:38:36.744Z</time></trkpt><trkpt lat="45.9607025" lon="11.7535167"><ele>315.0</ele><time>2026-05-01T08:38:37.73Z</time></trkpt><trkpt lat="45.9606649" lon="11.753432"><ele>320.0</ele><time>2026-05-01T08:38:38.737Z</time></trkpt><trkpt lat="45.9606279" lon="11.7533302"><ele>325.0</ele><time>2026-05-01T08:38:39.739Z</time></trkpt><trkpt lat="45.9605958" lon="11.7532374"><ele>330.0</ele><time>2026-05-01T08:38:40.722Z</time></trkpt><trkpt lat="45.9605664" lon="11.7531307"><ele>335.0</ele><time>2026-05-01T08:38:41.732Z</time></trkpt><trkpt lat="45.9605333" lon="11.753034"><ele>340.0</ele><time>2026-05-01T08:38:42.749Z</time></trkpt><trkpt lat="45.9604788" lon="11.7528726"><ele>345.0</ele><time>2026-05-01T08:38:44.719Z</time></trkpt><trkpt lat="45.9604433" lon="11.7527724"><ele>353.0</ele><time>2026-05-01T08:38:45.746Z</time></trkpt><trkpt lat="45.9603813" lon="11.7526235"><ele>361.0</ele><time>2026-05-01T08:38:47.735Z</time></trkpt><trkpt lat="45.9603138" lon="11.7524889"><ele>369.0</ele><time>2026-05-01T08:38:49.734Z</time></trkpt><trkpt lat="45.9602282" lon="11.7523691"><ele>377.0</ele><time>2026-05-01T08:38:51.733Z</time></trkpt><trkpt lat="45.9601593" lon="11.7522772"><ele>385.0</ele><time>2026-05-01T08:38:53.741Z</time></trkpt><trkpt lat="45.9601399" lon="11.7521224"><ele>385.0</ele><time>2026-05-01T08:38:55.744Z</time></trkpt><trkpt lat="45.9600748" lon="11.7520484"><ele>385.0</ele><time>2026-05-01T08:38:57.742Z</time></trkpt><trkpt lat="45.9600728" lon="11.7518149"><ele>385.0</ele><time>2026-05-01T08:38:59.769Z</time></trkpt><trkpt lat="45.9600662" lon="11.7517087"><ele>385.0</ele><time>2026-05-01T08:39:00.723Z</time></trkpt><trkpt lat="45.9600515" lon="11.7514986"><ele>382.4</ele><time>2026-05-01T08:39:02.734Z</time></trkpt><trkpt lat="45.96002" lon="11.7514134"><ele>379.8</ele><time>2026-05-01T08:39:03.754Z</time></trkpt><trkpt lat="45.9599613" lon="11.751251"><ele>377.20000000000005</ele><time>2026-05-01T08:39:05.745Z</time></trkpt><trkpt lat="45.9598845" lon="11.7511193"><ele>374.6</ele><time>2026-05-01T08:39:07.744Z</time></trkpt><trkpt lat="45.9598193" lon="11.7509643"><ele>372.0</ele><time>2026-05-01T08:39:09.722Z</time></trkpt><trkpt lat="45.9597547" lon="11.7509318"><ele>378.3333333333333</ele><time>2026-05-01T08:39:12.739Z</time></trkpt><trkpt lat="45.9596987" lon="11.7508582"><ele>384.66666666666663</ele><time>2026-05-01T08:39:14.742Z</time></trkpt><trkpt lat="45.9596674" lon="11.7507393"><ele>391.0</ele><time>2026-05-01T08:39:16.737Z</time></trkpt><trkpt lat="45.9596579" lon="11.7506273"><ele>397.3333333333333</ele><time>2026-05-01T08:39:17.755Z</time></trkpt><trkpt lat="45.9596553" lon="11.7505263"><ele>403.66666666666663</ele><time>2026-05-01T08:39:18.741Z</time></trkpt><trkpt lat="45.9596463" lon="11.7504238"><ele>410.0</ele><time>2026-05-01T08:39:20.097Z</time></trkpt><trkpt lat="45.9596054" lon="11.7502405"><ele>414.8333333333333</ele><time>2026-05-01T08:39:21.768Z</time></trkpt><trkpt lat="45.9595744" lon="11.7501066"><ele>419.66666666666663</ele><time>2026-05-01T08:39:22.788Z</time></trkpt><trkpt lat="45.9595495" lon="11.7500229"><ele>424.5</ele><time>2026-05-01T08:39:23.802Z</time></trkpt><trkpt lat="45.9595617" lon="11.7498864"><ele>429.33333333333337</ele><time>2026-05-01T08:39:26.801Z</time></trkpt><trkpt lat="45.9596125" lon="11.7497909"><ele>434.1666666666667</ele><time>2026-05-01T08:39:28.787Z</time></trkpt><trkpt lat="45.9597007" lon="11.7497056"><ele>439.0</ele><time>2026-05-01T08:39:30.786Z</time></trkpt><trkpt lat="45.9597867" lon="11.7494263"><ele>440.83333333333337</ele><time>2026-05-01T08:39:37.784Z</time></trkpt><trkpt lat="45.9598549" lon="11.7493207"><ele>442.6666666666667</ele><time>2026-05-01T08:39:39.788Z</time></trkpt><trkpt lat="45.9599106" lon="11.7492167"><ele>444.5</ele><time>2026-05-01T08:39:41.795Z</time></trkpt><trkpt lat="45.9599137" lon="11.7491017"><ele>446.33333333333337</ele><time>2026-05-01T08:39:43.797Z</time></trkpt><trkpt lat="45.9599287" lon="11.7490015"><ele>448.1666666666667</ele><time>2026-05-01T08:39:46.787Z</time></trkpt><trkpt lat="45.9599729" lon="11.748892"><ele>450.0</ele><time>2026-05-01T08:39:48.8Z</time></trkpt><trkpt lat="45.9600079" lon="11.7488098"><ele>450.0</ele><time>2026-05-01T08:39:50.782Z</time></trkpt><trkpt lat="45.9600203" lon="11.7486489"><ele>450.0</ele><time>2026-05-01T08:39:52.786Z</time></trkpt><trkpt lat="45.9600545" lon="11.7485091"><ele>450.0</ele><time>2026-05-01T08:39:54.779Z</time></trkpt><trkpt lat="45.9600812" lon="11.7483592"><ele>450.0</ele><time>2026-05-01T08:39:56.782Z</time></trkpt><trkpt lat="45.9600783" lon="11.748241"><ele>450.0</ele><time>2026-05-01T08:39:58.784Z</time></trkpt><trkpt lat="45.9600823" lon="11.7480602"><ele>461.6</ele><time>2026-05-01T08:40:00.795Z</time></trkpt><trkpt lat="45.9600882" lon="11.7479589"><ele>473.2</ele><time>2026-05-01T08:40:01.783Z</time></trkpt><trkpt lat="45.9600895" lon="11.7478645"><ele>484.79999999999995</ele><time>2026-05-01T08:40:02.794Z</time></trkpt><trkpt lat="45.9601255" lon="11.74773"><ele>496.4</ele><time>2026-05-01T08:40:04.774Z</time></trkpt><trkpt lat="45.9601519" lon="11.7475747"><ele>508.0</ele><time>2026-05-01T08:40:06.806Z</time></trkpt><trkpt lat="45.9601845" lon="11.7474152"><ele>508.33333333333337</ele><time>2026-05-01T08:40:08.767Z</time></trkpt><trkpt lat="45.9602152" lon="11.7473141"><ele>508.6666666666667</ele><time>2026-05-01T08:40:10.799Z</time></trkpt><trkpt lat="45.960233" lon="11.7472198"><ele>509.0</ele><time>2026-05-01T08:40:12.795Z</time></trkpt><trkpt lat="45.96026" lon="11.7471089"><ele>509.33333333333337</ele><time>2026-05-01T08:40:14.791Z</time></trkpt><trkpt lat="45.9602977" lon="11.7469689"><ele>509.6666666666667</ele><time>2026-05-01T08:40:16.783Z</time></trkpt><trkpt lat="45.9603184" lon="11.7468356"><ele>510.0</ele><time>2026-05-01T08:40:18.788Z</time></trkpt><trkpt lat="45.9603422" lon="11.7467288"><ele>510.4</ele><time>2026-05-01T08:40:20.792Z</time></trkpt><trkpt lat="45.9603913" lon="11.7465869"><ele>510.8</ele><time>2026-05-01T08:40:22.788Z</time></trkpt><trkpt lat="45.9604579" lon="11.7464443"><ele>511.20000000000005</ele><time>2026-05-01T08:40:24.786Z</time></trkpt><trkpt lat="45.9605191" lon="11.7463393"><ele>511.6</ele><time>2026-05-01T08:40:26.781Z</time></trkpt><trkpt lat="45.9605975" lon="11.7462092"><ele>512.0</ele><time>2026-05-01T08:40:28.812Z</time></trkpt><trkpt lat="45.9606494" lon="11.7461023"><ele>511.66666666666663</ele><time>2026-05-01T08:40:30.791Z</time></trkpt><trkpt lat="45.9606803" lon="11.7460173"><ele>511.3333333333333</ele><time>2026-05-01T08:40:31.796Z</time></trkpt><trkpt lat="45.9607118" lon="11.7459333"><ele>511.0</ele><time>2026-05-01T08:40:32.78Z</time></trkpt><trkpt lat="45.9607326" lon="11.7458425"><ele>510.66666666666663</ele><time>2026-05-01T08:40:33.794Z</time></trkpt><trkpt lat="45.9607495" lon="11.7457051"><ele>510.3333333333333</ele><time>2026-05-01T08:40:35.784Z</time></trkpt><trkpt lat="45.9607627" lon="11.7455631"><ele>510.0</ele><time>2026-05-01T08:40:37.788Z</time></trkpt><trkpt lat="45.9607746" lon="11.7454719"><ele>510.0</ele><time>2026-05-01T08:40:38.784Z</time></trkpt><trkpt lat="45.960791" lon="11.7453612"><ele>510.0</ele><time>2026-05-01T08:40:39.787Z</time></trkpt><trkpt lat="45.9608064" lon="11.7452724"><ele>510.0</ele><time>2026-05-01T08:40:40.791Z</time></trkpt><trkpt lat="45.9608512" lon="11.7451321"><ele>510.0</ele><time>2026-05-01T08:40:42.771Z</time></trkpt><trkpt lat="45.9609084" lon="11.7449921"><ele>510.0</ele><time>2026-05-01T08:40:44.793Z</time></trkpt><trkpt lat="45.9609473" lon="11.7448646"><ele>518.5</ele><time>2026-05-01T08:40:46.778Z</time></trkpt><trkpt lat="45.9609958" lon="11.7447215"><ele>527.0</ele><time>2026-05-01T08:40:48.787Z</time></trkpt><trkpt lat="45.9610273" lon="11.7446327"><ele>535.5</ele><time>2026-05-01T08:40:49.759Z</time></trkpt><trkpt lat="45.9610627" lon="11.7445431"><ele>544.0</ele><time>2026-05-01T08:40:50.779Z</time></trkpt><trkpt lat="45.9611088" lon="11.7444605"><ele>552.5</ele><time>2026-05-01T08:40:51.788Z</time></trkpt><trkpt lat="45.961151" lon="11.7443772"><ele>561.0</ele><time>2026-05-01T08:40:52.801Z</time></trkpt><trkpt lat="45.9611888" lon="11.7442963"><ele>562.0</ele><time>2026-05-01T08:40:53.779Z</time></trkpt><trkpt lat="45.9612615" lon="11.7441606"><ele>563.0</ele><time>2026-05-01T08:40:55.787Z</time></trkpt><trkpt lat="45.9613025" lon="11.744089"><ele>564.0</ele><time>2026-05-01T08:40:56.78Z</time></trkpt><trkpt lat="45.9613514" lon="11.7439916"><ele>565.0</ele><time>2026-05-01T08:40:57.793Z</time></trkpt><trkpt lat="45.9614103" lon="11.743861"><ele>566.0</ele><time>2026-05-01T08:40:59.787Z</time></trkpt><trkpt lat="45.9614166" lon="11.7437391"><ele>566.0</ele><time>2026-05-01T08:41:01.776Z</time></trkpt><trkpt lat="45.9613998" lon="11.7436263"><ele>566.0</ele><time>2026-05-01T08:41:03.785Z</time></trkpt><trkpt lat="45.9613599" lon="11.7437002"><ele>566.0</ele><time>2026-05-01T08:42:16.801Z</time></trkpt><trkpt lat="45.9612925" lon="11.7436529"><ele>566.0</ele><time>2026-05-01T08:42:36.788Z</time></trkpt><trkpt lat="45.9612393" lon="11.7435694"><ele>566.0</ele><time>2026-05-01T08:42:39.789Z</time></trkpt><trkpt lat="45.9611922" lon="11.7434534"><ele>566.0</ele><time>2026-05-01T08:42:41.798Z</time></trkpt><trkpt lat="45.961164" lon="11.7433063"><ele>567.2</ele><time>2026-05-01T08:42:43.791Z</time></trkpt><trkpt lat="45.9611566" lon="11.7431997"><ele>568.4000000000001</ele><time>2026-05-01T08:42:44.796Z</time></trkpt><trkpt lat="45.9611464" lon="11.7430815"><ele>569.6</ele><time>2026-05-01T08:42:45.784Z</time></trkpt><trkpt lat="45.9611428" lon="11.7429489"><ele>570.8000000000001</ele><time>2026-05-01T08:42:46.782Z</time></trkpt><trkpt lat="45.9611511" lon="11.7427987"><ele>572.0</ele><time>2026-05-01T08:42:47.793Z</time></trkpt><trkpt lat="45.9611633" lon="11.7426328"><ele>573.0</ele><time>2026-05-01T08:42:48.798Z</time></trkpt><trkpt lat="45.9611723" lon="11.7424811"><ele>574.0</ele><time>2026-05-01T08:42:49.788Z</time></trkpt><trkpt lat="45.9611746" lon="11.74232"><ele>575.0</ele><time>2026-05-01T08:42:50.795Z</time></trkpt><trkpt lat="45.9611725" lon="11.7421741"><ele>576.0</ele><time>2026-05-01T08:42:51.799Z</time></trkpt><trkpt lat="45.9611651" lon="11.7420352"><ele>577.0</ele><time>2026-05-01T08:42:52.812Z</time></trkpt><trkpt lat="45.9611507" lon="11.7419216"><ele>578.0</ele><time>2026-05-01T08:42:53.79Z</time></trkpt><trkpt lat="45.9611355" lon="11.7417939"><ele>579.0</ele><time>2026-05-01T08:42:54.787Z</time></trkpt><trkpt lat="45.9611241" lon="11.7416623"><ele>580.0</ele><time>2026-05-01T08:42:55.78Z</time></trkpt><trkpt lat="45.9611062" lon="11.7415079"><ele>581.0</ele><time>2026-05-01T08:42:56.802Z</time></trkpt><trkpt lat="45.9611018" lon="11.7413684"><ele>582.0</ele><time>2026-05-01T08:42:57.801Z</time></trkpt><trkpt lat="45.9610866" lon="11.7412732"><ele>582.0</ele><time>2026-05-01T08:42:58.79Z</time></trkpt><trkpt lat="45.9610932" lon="11.7411757"><ele>582.0</ele><time>2026-05-01T08:42:59.797Z</time></trkpt><trkpt lat="45.9611342" lon="11.7410378"><ele>582.0</ele><time>2026-05-01T08:43:01.787Z</time></trkpt><trkpt lat="45.9611712" lon="11.7409636"><ele>582.0</ele><time>2026-05-01T08:43:02.8Z</time></trkpt><trkpt lat="45.9612193" lon="11.7408703"><ele>582.0</ele><time>2026-05-01T08:43:03.802Z</time></trkpt><trkpt lat="45.9612758" lon="11.7407509"><ele>582.0</ele><time>2026-05-01T08:43:04.798Z</time></trkpt><trkpt lat="45.9613344" lon="11.7406419"><ele>581.6</ele><time>2026-05-01T08:43:05.782Z</time></trkpt><trkpt lat="45.9613787" lon="11.7405404"><ele>581.2</ele><time>2026-05-01T08:43:06.789Z</time></trkpt><trkpt lat="45.9614353" lon="11.7404186"><ele>580.8</ele><time>2026-05-01T08:43:07.781Z</time></trkpt><trkpt lat="45.9614891" lon="11.7402911"><ele>580.4</ele><time>2026-05-01T08:43:08.798Z</time></trkpt><trkpt lat="45.9615395" lon="11.7401698"><ele>580.0</ele><time>2026-05-01T08:43:09.795Z</time></trkpt><trkpt lat="45.9615814" lon="11.7400578"><ele>583.4</ele><time>2026-05-01T08:43:10.78Z</time></trkpt><trkpt lat="45.9616339" lon="11.7399495"><ele>586.8</ele><time>2026-05-01T08:43:11.762Z</time></trkpt><trkpt lat="45.9616942" lon="11.7398203"><ele>590.2</ele><time>2026-05-01T08:43:12.797Z</time></trkpt><trkpt lat="45.9617488" lon="11.7397025"><ele>593.6</ele><time>2026-05-01T08:43:13.785Z</time></trkpt><trkpt lat="45.961805" lon="11.7396067"><ele>597.0</ele><time>2026-05-01T08:43:14.78Z</time></trkpt><trkpt lat="45.9618538" lon="11.7395112"><ele>599.1666666666666</ele><time>2026-05-01T08:43:15.792Z</time></trkpt><trkpt lat="45.9619176" lon="11.7394202"><ele>601.3333333333334</ele><time>2026-05-01T08:43:16.802Z</time></trkpt><trkpt lat="45.9619688" lon="11.7393459"><ele>603.5</ele><time>2026-05-01T08:43:17.792Z</time></trkpt><trkpt lat="45.9620128" lon="11.7392727"><ele>605.6666666666667</ele><time>2026-05-01T08:43:18.797Z</time></trkpt><trkpt lat="45.9620536" lon="11.7391913"><ele>607.8333333333334</ele><time>2026-05-01T08:43:19.797Z</time></trkpt><trkpt lat="45.9620997" lon="11.7391091"><ele>610.0</ele><time>2026-05-01T08:43:20.787Z</time></trkpt><trkpt lat="45.9621493" lon="11.7390228"><ele>610.0</ele><time>2026-05-01T08:43:21.788Z</time></trkpt><trkpt lat="45.9622008" lon="11.7389323"><ele>610.0</ele><time>2026-05-01T08:43:22.787Z</time></trkpt><trkpt lat="45.9622535" lon="11.7388368"><ele>610.0</ele><time>2026-05-01T08:43:23.795Z</time></trkpt><trkpt lat="45.9623026" lon="11.7387322"><ele>610.0</ele><time>2026-05-01T08:43:24.762Z</time></trkpt><trkpt lat="45.9623532" lon="11.7386072"><ele>610.0</ele><time>2026-05-01T08:43:25.792Z</time></trkpt><trkpt lat="45.9624061" lon="11.7384942"><ele>610.0</ele><time>2026-05-01T08:43:26.792Z</time></trkpt><trkpt lat="45.9624625" lon="11.7383885"><ele>611.1666666666667</ele><time>2026-05-01T08:43:27.803Z</time></trkpt><trkpt lat="45.9625215" lon="11.7383019"><ele>612.3333333333334</ele><time>2026-05-01T08:43:28.788Z</time></trkpt><trkpt lat="45.962583" lon="11.738212"><ele>613.5</ele><time>2026-05-01T08:43:29.794Z</time></trkpt><trkpt lat="45.9626331" lon="11.7381315"><ele>614.6666666666666</ele><time>2026-05-01T08:43:30.789Z</time></trkpt><trkpt lat="45.9626939" lon="11.7380283"><ele>615.8333333333333</ele><time>2026-05-01T08:43:31.794Z</time></trkpt><trkpt lat="45.9627465" lon="11.737953"><ele>617.0</ele><time>2026-05-01T08:43:32.789Z</time></trkpt><trkpt lat="45.9628046" lon="11.737872"><ele>616.8000000000001</ele><time>2026-05-01T08:43:33.812Z</time></trkpt><trkpt lat="45.9629213" lon="11.7377518"><ele>616.6</ele><time>2026-05-01T08:43:42.783Z</time></trkpt><trkpt lat="45.9630308" lon="11.7376487"><ele>616.4000000000001</ele><time>2026-05-01T08:43:44.794Z</time></trkpt><trkpt lat="45.9630979" lon="11.7375876"><ele>616.2</ele><time>2026-05-01T08:43:45.786Z</time></trkpt><trkpt lat="45.963154" lon="11.7375155"><ele>616.0</ele><time>2026-05-01T08:43:46.788Z</time></trkpt><trkpt lat="45.9632404" lon="11.7374165"><ele>616.0</ele><time>2026-05-01T08:43:48.791Z</time></trkpt><trkpt lat="45.9633028" lon="11.7373719"><ele>616.0</ele><time>2026-05-01T08:43:50.781Z</time></trkpt><trkpt lat="45.9633904" lon="11.7372899"><ele>616.0</ele><time>2026-05-01T08:43:52.789Z</time></trkpt><trkpt lat="45.9634516" lon="11.7372255"><ele>616.0</ele><time>2026-05-01T08:43:53.786Z</time></trkpt><trkpt lat="45.9635294" lon="11.7371515"><ele>616.0</ele><time>2026-05-01T08:43:54.792Z</time></trkpt><trkpt lat="45.9635991" lon="11.7370751"><ele>616.0</ele><time>2026-05-01T08:43:55.808Z</time></trkpt><trkpt lat="45.9636707" lon="11.7370008"><ele>618.4</ele><time>2026-05-01T08:43:56.801Z</time></trkpt><trkpt lat="45.9637523" lon="11.7369284"><ele>620.8</ele><time>2026-05-01T08:43:57.79Z</time></trkpt><trkpt lat="45.9638511" lon="11.73686"><ele>623.1999999999999</ele><time>2026-05-01T08:43:58.805Z</time></trkpt><trkpt lat="45.9639488" lon="11.7367962"><ele>625.6</ele><time>2026-05-01T08:43:59.793Z</time></trkpt><trkpt lat="45.96406" lon="11.7367297"><ele>628.0</ele><time>2026-05-01T08:44:00.783Z</time></trkpt><trkpt lat="45.9642106" lon="11.7366321"><ele>631.8</ele><time>2026-05-01T08:44:01.771Z</time></trkpt><trkpt lat="45.9643379" lon="11.7365492"><ele>635.5999999999999</ele><time>2026-05-01T08:44:02.774Z</time></trkpt><trkpt lat="45.96443" lon="11.7365463"><ele>639.4000000000001</ele><time>2026-05-01T08:44:03.776Z</time></trkpt><trkpt lat="45.964509" lon="11.736493"><ele>643.2</ele><time>2026-05-01T08:44:04.754Z</time></trkpt><trkpt lat="45.9646081" lon="11.7364419"><ele>647.0</ele><time>2026-05-01T08:44:05.784Z</time></trkpt><trkpt lat="45.9646913" lon="11.7363886"><ele>647.0</ele><time>2026-05-01T08:44:06.779Z</time></trkpt><trkpt lat="45.9647643" lon="11.7363436"><ele>647.0</ele><time>2026-05-01T08:44:07.801Z</time></trkpt><trkpt lat="45.9648858" lon="11.736264"><ele>647.0</ele><time>2026-05-01T08:44:09.791Z</time></trkpt><trkpt lat="45.9649617" lon="11.7362256"><ele>647.0</ele><time>2026-05-01T08:44:10.792Z</time></trkpt><trkpt lat="45.9650241" lon="11.7361803"><ele>647.0</ele><time>2026-05-01T08:44:11.791Z</time></trkpt><trkpt lat="45.9650933" lon="11.736129"><ele>647.0</ele><time>2026-05-01T08:44:12.789Z</time></trkpt><trkpt lat="45.9651857" lon="11.7360504"><ele>650.75</ele><time>2026-05-01T08:44:13.782Z</time></trkpt><trkpt lat="45.965319" lon="11.7358803"><ele>654.5</ele><time>2026-05-01T08:44:14.801Z</time></trkpt><trkpt lat="45.9654113" lon="11.7357703"><ele>658.25</ele><time>2026-05-01T08:44:15.803Z</time></trkpt><trkpt lat="45.9654847" lon="11.7356738"><ele>662.0</ele><time>2026-05-01T08:44:16.797Z</time></trkpt><trkpt lat="45.965574" lon="11.7355624"><ele>662.0</ele><time>2026-05-01T08:44:17.794Z</time></trkpt><trkpt lat="45.9656588" lon="11.7354557"><ele>662.0</ele><time>2026-05-01T08:44:18.8Z</time></trkpt><trkpt lat="45.9657253" lon="11.7353744"><ele>662.0</ele><time>2026-05-01T08:44:19.793Z</time></trkpt><trkpt lat="45.9657893" lon="11.7352846"><ele>662.0</ele><time>2026-05-01T08:44:20.789Z</time></trkpt><trkpt lat="45.9658474" lon="11.7351879"><ele>662.0</ele><time>2026-05-01T08:44:21.801Z</time></trkpt><trkpt lat="45.9659141" lon="11.7350851"><ele>667.0</ele><time>2026-05-01T08:44:22.784Z</time></trkpt><trkpt lat="45.9659753" lon="11.734988"><ele>672.0</ele><time>2026-05-01T08:44:23.788Z</time></trkpt><trkpt lat="45.966025" lon="11.7348738"><ele>677.0</ele><time>2026-05-01T08:44:24.795Z</time></trkpt><trkpt lat="45.9660803" lon="11.7347541"><ele>682.0</ele><time>2026-05-01T08:44:25.81Z</time></trkpt><trkpt lat="45.9661223" lon="11.7346221"><ele>687.0</ele><time>2026-05-01T08:44:26.797Z</time></trkpt><trkpt lat="45.9661908" lon="11.7344649"><ele>685.25</ele><time>2026-05-01T08:44:27.79Z</time></trkpt><trkpt lat="45.9662458" lon="11.7343154"><ele>683.5</ele><time>2026-05-01T08:44:28.801Z</time></trkpt><trkpt lat="45.9662846" lon="11.7341656"><ele>681.75</ele><time>2026-05-01T08:44:29.795Z</time></trkpt><trkpt lat="45.9663207" lon="11.7340083"><ele>680.0</ele><time>2026-05-01T08:44:30.797Z</time></trkpt><trkpt lat="45.966353" lon="11.7338169"><ele>680.0</ele><time>2026-05-01T08:44:31.795Z</time></trkpt><trkpt lat="45.9663858" lon="11.7336362"><ele>680.0</ele><time>2026-05-01T08:44:32.788Z</time></trkpt><trkpt lat="45.9664208" lon="11.7334606"><ele>680.0</ele><time>2026-05-01T08:44:33.759Z</time></trkpt><trkpt lat="45.966452" lon="11.7332945"><ele>680.0</ele><time>2026-05-01T08:44:34.799Z</time></trkpt><trkpt lat="45.9664824" lon="11.7331362"><ele>680.2</ele><time>2026-05-01T08:44:35.792Z</time></trkpt><trkpt lat="45.9665069" lon="11.7329915"><ele>680.4</ele><time>2026-05-01T08:44:36.784Z</time></trkpt><trkpt lat="45.9665309" lon="11.7328552"><ele>680.5999999999999</ele><time>2026-05-01T08:44:37.782Z</time></trkpt><trkpt lat="45.9665278" lon="11.7327197"><ele>680.8</ele><time>2026-05-01T08:44:38.8Z</time></trkpt><trkpt lat="45.9665179" lon="11.7325815"><ele>681.0</ele><time>2026-05-01T08:44:39.765Z</time></trkpt><trkpt lat="45.9665282" lon="11.7324402"><ele>681.0</ele><time>2026-05-01T08:44:40.782Z</time></trkpt><trkpt lat="45.9665434" lon="11.7322921"><ele>681.0</ele><time>2026-05-01T08:44:41.8Z</time></trkpt><trkpt lat="45.9665518" lon="11.7321451"><ele>681.0</ele><time>2026-05-01T08:44:42.835Z</time></trkpt><trkpt lat="45.9665641" lon="11.7320122"><ele>681.0</ele><time>2026-05-01T08:44:43.795Z</time></trkpt><trkpt lat="45.9665681" lon="11.7318981"><ele>681.0</ele><time>2026-05-01T08:44:44.807Z</time></trkpt><trkpt lat="45.9665507" lon="11.7317526"><ele>681.8</ele><time>2026-05-01T08:44:45.794Z</time></trkpt><trkpt lat="45.9665551" lon="11.7316278"><ele>682.5999999999999</ele><time>2026-05-01T08:44:46.81Z</time></trkpt><trkpt lat="45.966573" lon="11.7315062"><ele>683.4</ele><time>2026-05-01T08:44:47.803Z</time></trkpt><trkpt lat="45.9665866" lon="11.7313709"><ele>684.2</ele><time>2026-05-01T08:44:48.803Z</time></trkpt><trkpt lat="45.9665944" lon="11.731239"><ele>685.0</ele><time>2026-05-01T08:44:49.792Z</time></trkpt><trkpt lat="45.9666118" lon="11.7311025"><ele>683.6</ele><time>2026-05-01T08:44:50.759Z</time></trkpt><trkpt lat="45.9666287" lon="11.7309544"><ele>682.2</ele><time>2026-05-01T08:44:51.788Z</time></trkpt><trkpt lat="45.966633" lon="11.7308173"><ele>680.8</ele><time>2026-05-01T08:44:52.799Z</time></trkpt><trkpt lat="45.9666215" lon="11.7306502"><ele>679.4</ele><time>2026-05-01T08:44:53.782Z</time></trkpt><trkpt lat="45.9666052" lon="11.7304706"><ele>678.0</ele><time>2026-05-01T08:44:54.8Z</time></trkpt><trkpt lat="45.9665816" lon="11.7303226"><ele>677.0</ele><time>2026-05-01T08:44:55.802Z</time></trkpt><trkpt lat="45.9665621" lon="11.7301628"><ele>676.0</ele><time>2026-05-01T08:44:56.787Z</time></trkpt><trkpt lat="45.966541" lon="11.730017"><ele>675.0</ele><time>2026-05-01T08:44:57.783Z</time></trkpt><trkpt lat="45.9665226" lon="11.729894"><ele>674.0</ele><time>2026-05-01T08:44:58.781Z</time></trkpt><trkpt lat="45.9664976" lon="11.7297546"><ele>673.0</ele><time>2026-05-01T08:44:59.79Z</time></trkpt><trkpt lat="45.9664977" lon="11.7296242"><ele>673.0</ele><time>2026-05-01T08:45:00.794Z</time></trkpt><trkpt lat="45.9665654" lon="11.7294779"><ele>673.0</ele><time>2026-05-01T08:45:01.788Z</time></trkpt><trkpt lat="45.9666425" lon="11.7293071"><ele>673.0</ele><time>2026-05-01T08:45:02.79Z</time></trkpt><trkpt lat="45.9666953" lon="11.7291974"><ele>673.0</ele><time>2026-05-01T08:45:03.773Z</time></trkpt><trkpt lat="45.9666874" lon="11.7289843"><ele>671.8</ele><time>2026-05-01T08:45:05.786Z</time></trkpt><trkpt lat="45.9667385" lon="11.7288744"><ele>670.5999999999999</ele><time>2026-05-01T08:45:08.792Z</time></trkpt><trkpt lat="45.9668156" lon="11.7289737"><ele>669.4000000000001</ele><time>2026-05-01T08:45:10.783Z</time></trkpt><trkpt lat="45.9669726" lon="11.7290677"><ele>668.2</ele><time>2026-05-01T08:45:12.791Z</time></trkpt><trkpt lat="45.9670409" lon="11.7291164"><ele>667.0</ele><time>2026-05-01T08:45:13.792Z</time></trkpt><trkpt lat="45.9671769" lon="11.7292899"><ele>667.0</ele><time>2026-05-01T08:45:14.785Z</time></trkpt><trkpt lat="45.9672209" lon="11.7293711"><ele>667.0</ele><time>2026-05-01T08:45:15.789Z</time></trkpt><trkpt lat="45.9672698" lon="11.7294382"><ele>667.0</ele><time>2026-05-01T08:45:16.781Z</time></trkpt><trkpt lat="45.9673801" lon="11.7296923"><ele>667.0</ele><time>2026-05-01T08:45:17.77Z</time></trkpt><trkpt lat="45.9674359" lon="11.7299261"><ele>667.75</ele><time>2026-05-01T08:45:18.789Z</time></trkpt><trkpt lat="45.9674903" lon="11.7301553"><ele>668.5</ele><time>2026-05-01T08:45:19.804Z</time></trkpt><trkpt lat="45.9675518" lon="11.7302844"><ele>669.25</ele><time>2026-05-01T08:45:20.808Z</time></trkpt><trkpt lat="45.9676108" lon="11.730383"><ele>670.0</ele><time>2026-05-01T08:45:21.789Z</time></trkpt><trkpt lat="45.967695" lon="11.7304698"><ele>671.8333333333334</ele><time>2026-05-01T08:45:22.777Z</time></trkpt><trkpt lat="45.9677619" lon="11.7305269"><ele>673.6666666666667</ele><time>2026-05-01T08:45:23.803Z</time></trkpt><trkpt lat="45.9678484" lon="11.7306334"><ele>675.5</ele><time>2026-05-01T08:45:25.791Z</time></trkpt><trkpt lat="45.9679053" lon="11.7306788"><ele>677.3333333333334</ele><time>2026-05-01T08:45:26.807Z</time></trkpt><trkpt lat="45.9679634" lon="11.7307297"><ele>679.1666666666666</ele><time>2026-05-01T08:45:27.809Z</time></trkpt><trkpt lat="45.9680374" lon="11.7308511"><ele>681.0</ele><time>2026-05-01T08:45:29.818Z</time></trkpt><trkpt lat="45.9681393" lon="11.7309396"><ele>684.1999999999999</ele><time>2026-05-01T08:45:31.803Z</time></trkpt><trkpt lat="45.9682146" lon="11.731101"><ele>687.4</ele><time>2026-05-01T08:45:33.804Z</time></trkpt><trkpt lat="45.9682766" lon="11.7311762"><ele>690.6</ele><time>2026-05-01T08:45:34.789Z</time></trkpt><trkpt lat="45.9683358" lon="11.7312587"><ele>693.8</ele><time>2026-05-01T08:45:35.797Z</time></trkpt><trkpt lat="45.9684415" lon="11.7313368"><ele>697.0</ele><time>2026-05-01T08:45:37.807Z</time></trkpt><trkpt lat="45.9685223" lon="11.7314063"><ele>697.0</ele><time>2026-05-01T08:45:39.792Z</time></trkpt><trkpt lat="45.968628" lon="11.731492"><ele>697.0</ele><time>2026-05-01T08:45:41.768Z</time></trkpt><trkpt lat="45.9686869" lon="11.7315432"><ele>697.0</ele><time>2026-05-01T08:45:42.798Z</time></trkpt><trkpt lat="45.9687547" lon="11.7315931"><ele>697.0</ele><time>2026-05-01T08:45:43.775Z</time></trkpt><trkpt lat="45.9688416" lon="11.7316512"><ele>697.0</ele><time>2026-05-01T08:45:44.791Z</time></trkpt><trkpt lat="45.9689272" lon="11.7316928"><ele>697.0</ele><time>2026-05-01T08:45:45.795Z</time></trkpt><trkpt lat="45.9690083" lon="11.7317179"><ele>697.0</ele><time>2026-05-01T08:45:46.793Z</time></trkpt><trkpt lat="45.9690937" lon="11.7317477"><ele>697.0</ele><time>2026-05-01T08:45:47.793Z</time></trkpt><trkpt lat="45.9691791" lon="11.7317689"><ele>697.0</ele><time>2026-05-01T08:45:48.793Z</time></trkpt><trkpt lat="45.9692619" lon="11.7317708"><ele>697.0</ele><time>2026-05-01T08:45:49.812Z</time></trkpt><trkpt lat="45.9693394" lon="11.731768"><ele>697.0</ele><time>2026-05-01T08:45:50.801Z</time></trkpt><trkpt lat="45.9694245" lon="11.7317778"><ele>697.0</ele><time>2026-05-01T08:45:51.788Z</time></trkpt><trkpt lat="45.9695085" lon="11.7317957"><ele>697.0</ele><time>2026-05-01T08:45:52.796Z</time></trkpt><trkpt lat="45.969661" lon="11.7318172"><ele>697.0</ele><time>2026-05-01T08:45:54.805Z</time></trkpt><trkpt lat="45.9697677" lon="11.731823"><ele>697.0</ele><time>2026-05-01T08:45:55.817Z</time></trkpt><trkpt lat="45.9698667" lon="11.7318188"><ele>697.0</ele><time>2026-05-01T08:45:56.801Z</time></trkpt><trkpt lat="45.9699657" lon="11.7318229"><ele>697.1666666666667</ele><time>2026-05-01T08:45:57.799Z</time></trkpt><trkpt lat="45.9700464" lon="11.7318379"><ele>697.3333333333334</ele><time>2026-05-01T08:45:58.79Z</time></trkpt><trkpt lat="45.9701198" lon="11.7318471"><ele>697.5</ele><time>2026-05-01T08:45:59.754Z</time></trkpt><trkpt lat="45.9701943" lon="11.7318554"><ele>697.6666666666666</ele><time>2026-05-01T08:46:00.814Z</time></trkpt><trkpt lat="45.970268" lon="11.7318542"><ele>697.8333333333333</ele><time>2026-05-01T08:46:01.792Z</time></trkpt><trkpt lat="45.9703687" lon="11.7317962"><ele>698.0</ele><time>2026-05-01T08:46:03.805Z</time></trkpt><trkpt lat="45.970427" lon="11.7317591"><ele>698.0</ele><time>2026-05-01T08:46:04.745Z</time></trkpt><trkpt lat="45.9704881" lon="11.7317293"><ele>698.0</ele><time>2026-05-01T08:46:05.748Z</time></trkpt><trkpt lat="45.9705875" lon="11.7316914"><ele>698.0</ele><time>2026-05-01T08:46:07.745Z</time></trkpt><trkpt lat="45.9706787" lon="11.7317202"><ele>698.0</ele><time>2026-05-01T08:46:08.735Z</time></trkpt><trkpt lat="45.970793" lon="11.731776"><ele>698.0</ele><time>2026-05-01T08:46:09.766Z</time></trkpt><trkpt lat="45.9708719" lon="11.731799"><ele>698.0</ele><time>2026-05-01T08:46:10.741Z</time></trkpt><trkpt lat="45.9709498" lon="11.731789"><ele>698.0</ele><time>2026-05-01T08:46:11.742Z</time></trkpt><trkpt lat="45.9710099" lon="11.7317553"><ele>698.0</ele><time>2026-05-01T08:46:12.707Z</time></trkpt><trkpt lat="45.9710864" lon="11.7317281"><ele>698.0</ele><time>2026-05-01T08:46:13.732Z</time></trkpt><trkpt lat="45.9711502" lon="11.7317383"><ele>698.0</ele><time>2026-05-01T08:46:14.747Z</time></trkpt><trkpt lat="45.9712364" lon="11.731761"><ele>698.0</ele><time>2026-05-01T08:46:15.74Z</time></trkpt><trkpt lat="45.9713344" lon="11.7318111"><ele>698.0</ele><time>2026-05-01T08:46:16.742Z</time></trkpt><trkpt lat="45.9714314" lon="11.7318529"><ele>698.0</ele><time>2026-05-01T08:46:17.744Z</time></trkpt><trkpt lat="45.9715331" lon="11.7318681"><ele>698.0</ele><time>2026-05-01T08:46:18.75Z</time></trkpt><trkpt lat="45.97161" lon="11.7318556"><ele>698.0</ele><time>2026-05-01T08:46:19.744Z</time></trkpt><trkpt lat="45.9716714" lon="11.7318303"><ele>698.0</ele><time>2026-05-01T08:46:20.754Z</time></trkpt><trkpt lat="45.971805" lon="11.7318253"><ele>697.6666666666666</ele><time>2026-05-01T08:46:22.749Z</time></trkpt><trkpt lat="45.9718782" lon="11.7318347"><ele>697.3333333333333</ele><time>2026-05-01T08:46:23.755Z</time></trkpt><trkpt lat="45.971943" lon="11.7318181"><ele>697.0</ele><time>2026-05-01T08:46:24.747Z</time></trkpt><trkpt lat="45.9720286" lon="11.7317831"><ele>696.6666666666666</ele><time>2026-05-01T08:46:25.732Z</time></trkpt><trkpt lat="45.9721226" lon="11.7317198"><ele>696.3333333333334</ele><time>2026-05-01T08:46:26.755Z</time></trkpt><trkpt lat="45.9721852" lon="11.7316628"><ele>696.0</ele><time>2026-05-01T08:46:27.741Z</time></trkpt><trkpt lat="45.9722548" lon="11.7316199"><ele>696.0</ele><time>2026-05-01T08:46:28.744Z</time></trkpt><trkpt lat="45.9723234" lon="11.7316219"><ele>696.0</ele><time>2026-05-01T08:46:29.734Z</time></trkpt><trkpt lat="45.9723982" lon="11.7316597"><ele>696.0</ele><time>2026-05-01T08:46:30.749Z</time></trkpt><trkpt lat="45.9725067" lon="11.7316912"><ele>696.0</ele><time>2026-05-01T08:46:31.734Z</time></trkpt><trkpt lat="45.9725962" lon="11.7317012"><ele>696.0</ele><time>2026-05-01T08:46:32.745Z</time></trkpt><trkpt lat="45.9725976" lon="11.7315794"><ele>696.0</ele><time>2026-05-01T08:46:37.086Z</time></trkpt><trkpt lat="45.9726805" lon="11.7315565"><ele>695.5999999999999</ele><time>2026-05-01T08:46:47.805Z</time></trkpt><trkpt lat="45.972765" lon="11.7314819"><ele>695.2</ele><time>2026-05-01T08:46:49.794Z</time></trkpt><trkpt lat="45.9728242" lon="11.7314222"><ele>694.8</ele><time>2026-05-01T08:46:51.797Z</time></trkpt><trkpt lat="45.9729514" lon="11.7313696"><ele>694.4000000000001</ele><time>2026-05-01T08:46:54.785Z</time></trkpt><trkpt lat="45.9730431" lon="11.7313396"><ele>694.0</ele><time>2026-05-01T08:46:56.789Z</time></trkpt><trkpt lat="45.9731097" lon="11.7313147"><ele>694.0</ele><time>2026-05-01T08:46:57.763Z</time></trkpt><trkpt lat="45.9732366" lon="11.7313514"><ele>694.0</ele><time>2026-05-01T08:46:59.79Z</time></trkpt><trkpt lat="45.9733279" lon="11.7313539"><ele>694.0</ele><time>2026-05-01T08:47:00.789Z</time></trkpt><trkpt lat="45.9734046" lon="11.7313475"><ele>694.0</ele><time>2026-05-01T08:47:01.789Z</time></trkpt><trkpt lat="45.9734857" lon="11.7312376"><ele>694.0</ele><time>2026-05-01T08:47:03.804Z</time></trkpt><trkpt lat="45.9735478" lon="11.7311093"><ele>691.0</ele><time>2026-05-01T08:47:05.787Z</time></trkpt><trkpt lat="45.9735791" lon="11.7310218"><ele>688.0</ele><time>2026-05-01T08:47:06.799Z</time></trkpt><trkpt lat="45.9736222" lon="11.7309473"><ele>685.0</ele><time>2026-05-01T08:47:07.796Z</time></trkpt><trkpt lat="45.973671" lon="11.730874"><ele>682.0</ele><time>2026-05-01T08:47:09.794Z</time></trkpt><trkpt lat="45.9736553" lon="11.7307796"><ele>679.0</ele><time>2026-05-01T08:47:11.822Z</time></trkpt><trkpt lat="45.9736438" lon="11.7306387"><ele>676.0</ele><time>2026-05-01T08:47:13.779Z</time></trkpt><trkpt lat="45.9737013" lon="11.7305439"><ele>676.0</ele><time>2026-05-01T08:47:15.794Z</time></trkpt><trkpt lat="45.9737205" lon="11.730438"><ele>676.0</ele><time>2026-05-01T08:47:16.789Z</time></trkpt><trkpt lat="45.9737178" lon="11.7303473"><ele>676.0</ele><time>2026-05-01T08:47:18.816Z</time></trkpt><trkpt lat="45.9738202" lon="11.7304299"><ele>676.0</ele><time>2026-05-01T08:47:23.801Z</time></trkpt><trkpt lat="45.9738747" lon="11.7304939"><ele>676.0</ele><time>2026-05-01T08:47:24.804Z</time></trkpt><trkpt lat="45.9739299" lon="11.7305501"><ele>676.0</ele><time>2026-05-01T08:47:25.761Z</time></trkpt><trkpt lat="45.9740018" lon="11.7306302"><ele>676.0</ele><time>2026-05-01T08:47:26.804Z</time></trkpt><trkpt lat="45.9740989" lon="11.7307618"><ele>676.0</ele><time>2026-05-01T08:47:28.791Z</time></trkpt><trkpt lat="45.9741658" lon="11.7308038"><ele>676.0</ele><time>2026-05-01T08:47:30.799Z</time></trkpt><trkpt lat="45.9742281" lon="11.7308397"><ele>676.0</ele><time>2026-05-01T08:47:32.793Z</time></trkpt><trkpt lat="45.9742452" lon="11.7307159"><ele>676.0</ele><time>2026-05-01T08:47:35.791Z</time></trkpt><trkpt lat="45.974336" lon="11.7307616"><ele>674.5</ele><time>2026-05-01T08:47:37.793Z</time></trkpt><trkpt lat="45.974446" lon="11.7307637"><ele>673.0</ele><time>2026-05-01T08:47:39.813Z</time></trkpt><trkpt lat="45.9745529" lon="11.7307493"><ele>671.5</ele><time>2026-05-01T08:47:41.8Z</time></trkpt><trkpt lat="45.9746668" lon="11.7307263"><ele>670.0</ele><time>2026-05-01T08:47:43.804Z</time></trkpt><trkpt lat="45.9747952" lon="11.7307121"><ele>669.9999999999999</ele><time>2026-05-01T08:47:45.809Z</time></trkpt><trkpt lat="45.9748677" lon="11.7307007"><ele>670.0</ele><time>2026-05-01T08:47:46.798Z</time></trkpt><trkpt lat="45.9749364" lon="11.7306883"><ele>670.0</ele><time>2026-05-01T08:47:47.821Z</time></trkpt><trkpt lat="45.9749995" lon="11.7306603"><ele>670.0</ele><time>2026-05-01T08:47:48.798Z</time></trkpt><trkpt lat="45.9750595" lon="11.7306178"><ele>670.0</ele><time>2026-05-01T08:47:49.789Z</time></trkpt><trkpt lat="45.9751209" lon="11.7305781"><ele>669.9999999999999</ele><time>2026-05-01T08:47:50.787Z</time></trkpt><trkpt lat="45.9751786" lon="11.7305391"><ele>670.0</ele><time>2026-05-01T08:47:51.8Z</time></trkpt><trkpt lat="45.9752488" lon="11.7305055"><ele>670.1666666666667</ele><time>2026-05-01T08:47:52.818Z</time></trkpt><trkpt lat="45.9753685" lon="11.7304764"><ele>670.3333333333334</ele><time>2026-05-01T08:47:54.813Z</time></trkpt><trkpt lat="45.975484" lon="11.730485"><ele>670.5</ele><time>2026-05-01T08:47:56.8Z</time></trkpt><trkpt lat="45.975553" lon="11.7305023"><ele>670.6666666666666</ele><time>2026-05-01T08:47:57.795Z</time></trkpt><trkpt lat="45.9756246" lon="11.7305449"><ele>670.8333333333333</ele><time>2026-05-01T08:47:58.806Z</time></trkpt><trkpt lat="45.9756815" lon="11.7305871"><ele>671.0</ele><time>2026-05-01T08:47:59.819Z</time></trkpt><trkpt lat="45.9757714" lon="11.7306417"><ele>671.0</ele><time>2026-05-01T08:48:01.782Z</time></trkpt><trkpt lat="45.9758309" lon="11.7306743"><ele>671.0</ele><time>2026-05-01T08:48:02.795Z</time></trkpt><trkpt lat="45.9759303" lon="11.7307394"><ele>671.0</ele><time>2026-05-01T08:48:04.799Z</time></trkpt><trkpt lat="45.9759931" lon="11.7307779"><ele>671.0</ele><time>2026-05-01T08:48:05.804Z</time></trkpt><trkpt lat="45.976066" lon="11.7308169"><ele>671.0</ele><time>2026-05-01T08:48:06.801Z</time></trkpt><trkpt lat="45.9761504" lon="11.7308475"><ele>671.0</ele><time>2026-05-01T08:48:07.797Z</time></trkpt><trkpt lat="45.9762264" lon="11.7308973"><ele>669.1999999999999</ele><time>2026-05-01T08:48:08.8Z</time></trkpt><trkpt lat="45.9763403" lon="11.7309395"><ele>667.4</ele><time>2026-05-01T08:48:09.803Z</time></trkpt><trkpt lat="45.9764433" lon="11.7309527"><ele>665.6</ele><time>2026-05-01T08:48:10.799Z</time></trkpt><trkpt lat="45.9765323" lon="11.7309601"><ele>663.8</ele><time>2026-05-01T08:48:11.812Z</time></trkpt><trkpt lat="45.9766081" lon="11.7309774"><ele>662.0</ele><time>2026-05-01T08:48:12.812Z</time></trkpt><trkpt lat="45.9766794" lon="11.7309965"><ele>659.8571428571429</ele><time>2026-05-01T08:48:13.793Z</time></trkpt><trkpt lat="45.976742" lon="11.7310354"><ele>657.7142857142857</ele><time>2026-05-01T08:48:14.804Z</time></trkpt><trkpt lat="45.9768008" lon="11.7311143"><ele>655.5714285714286</ele><time>2026-05-01T08:48:15.806Z</time></trkpt><trkpt lat="45.9768528" lon="11.731194"><ele>653.4285714285714</ele><time>2026-05-01T08:48:16.801Z</time></trkpt><trkpt lat="45.976902" lon="11.7312662"><ele>651.2857142857143</ele><time>2026-05-01T08:48:17.789Z</time></trkpt><trkpt lat="45.9769537" lon="11.7313326"><ele>649.1428571428571</ele><time>2026-05-01T08:48:18.758Z</time></trkpt><trkpt lat="45.9770105" lon="11.7313965"><ele>647.0</ele><time>2026-05-01T08:48:19.798Z</time></trkpt><trkpt lat="45.9770606" lon="11.7314739"><ele>647.0</ele><time>2026-05-01T08:48:20.797Z</time></trkpt><trkpt lat="45.977144" lon="11.7315545"><ele>647.0</ele><time>2026-05-01T08:48:22.801Z</time></trkpt><trkpt lat="45.9772405" lon="11.7314799"><ele>647.0</ele><time>2026-05-01T08:48:23.793Z</time></trkpt><trkpt lat="45.9773193" lon="11.7314583"><ele>647.0</ele><time>2026-05-01T08:48:24.785Z</time></trkpt><trkpt lat="45.9773967" lon="11.7314476"><ele>647.0</ele><time>2026-05-01T08:48:25.793Z</time></trkpt><trkpt lat="45.977467" lon="11.7314635"><ele>647.0</ele><time>2026-05-01T08:48:26.789Z</time></trkpt><trkpt lat="45.9775869" lon="11.7315096"><ele>645.5</ele><time>2026-05-01T08:48:28.792Z</time></trkpt><trkpt lat="45.9776524" lon="11.731537"><ele>644.0</ele><time>2026-05-01T08:48:29.801Z</time></trkpt><trkpt lat="45.97772" lon="11.7315401"><ele>642.5</ele><time>2026-05-01T08:48:30.795Z</time></trkpt><trkpt lat="45.9778391" lon="11.7314945"><ele>641.0</ele><time>2026-05-01T08:48:32.81Z</time></trkpt><trkpt lat="45.9779091" lon="11.7314374"><ele>639.5</ele><time>2026-05-01T08:48:33.81Z</time></trkpt><trkpt lat="45.9780095" lon="11.731379"><ele>638.0</ele><time>2026-05-01T08:48:34.81Z</time></trkpt><trkpt lat="45.9781055" lon="11.7313346"><ele>638.0</ele><time>2026-05-01T08:48:35.809Z</time></trkpt><trkpt lat="45.9781655" lon="11.7313023"><ele>638.0</ele><time>2026-05-01T08:48:36.806Z</time></trkpt><trkpt lat="45.9782453" lon="11.7312088"><ele>638.0</ele><time>2026-05-01T08:48:38.795Z</time></trkpt><trkpt lat="45.9782625" lon="11.7310815"><ele>638.0</ele><time>2026-05-01T08:48:40.809Z</time></trkpt><trkpt lat="45.9782703" lon="11.7309849"><ele>638.0</ele><time>2026-05-01T08:48:41.804Z</time></trkpt><trkpt lat="45.9782805" lon="11.7308389"><ele>638.0</ele><time>2026-05-01T08:48:42.816Z</time></trkpt><trkpt lat="45.9783283" lon="11.7306367"><ele>635.4285714285714</ele><time>2026-05-01T08:48:44.795Z</time></trkpt><trkpt lat="45.9783582" lon="11.7305455"><ele>632.8571428571428</ele><time>2026-05-01T08:48:45.805Z</time></trkpt><trkpt lat="45.9784054" lon="11.7304538"><ele>630.2857142857142</ele><time>2026-05-01T08:48:46.796Z</time></trkpt><trkpt lat="45.9784607" lon="11.7303746"><ele>627.7142857142858</ele><time>2026-05-01T08:48:47.798Z</time></trkpt><trkpt lat="45.9785128" lon="11.7302973"><ele>625.1428571428571</ele><time>2026-05-01T08:48:48.824Z</time></trkpt><trkpt lat="45.9785635" lon="11.7302312"><ele>622.5714285714286</ele><time>2026-05-01T08:48:49.805Z</time></trkpt><trkpt lat="45.9786067" lon="11.7301642"><ele>620.0</ele><time>2026-05-01T08:48:50.795Z</time></trkpt><trkpt lat="45.9786869" lon="11.7300558"><ele>620.0</ele><time>2026-05-01T08:48:52.802Z</time></trkpt><trkpt lat="45.9787832" lon="11.7300331"><ele>620.0</ele><time>2026-05-01T08:48:54.773Z</time></trkpt><trkpt lat="45.978881" lon="11.7300551"><ele>620.0</ele><time>2026-05-01T08:48:56.801Z</time></trkpt><trkpt lat="45.9789585" lon="11.7301057"><ele>620.0</ele><time>2026-05-01T08:48:58.795Z</time></trkpt><trkpt lat="45.979027" lon="11.7301841"><ele>620.0</ele><time>2026-05-01T08:49:00.796Z</time></trkpt><trkpt lat="45.9791195" lon="11.7303292"><ele>620.0</ele><time>2026-05-01T08:49:02.802Z</time></trkpt><trkpt lat="45.9791625" lon="11.7304039"><ele>620.0</ele><time>2026-05-01T08:49:03.805Z</time></trkpt><trkpt lat="45.9792123" lon="11.7304953"><ele>620.0</ele><time>2026-05-01T08:49:04.8Z</time></trkpt><trkpt lat="45.9792622" lon="11.7305725"><ele>620.0</ele><time>2026-05-01T08:49:05.789Z</time></trkpt><trkpt lat="45.9793502" lon="11.7306412"><ele>620.0</ele><time>2026-05-01T08:49:07.757Z</time></trkpt><trkpt lat="45.9794275" lon="11.7307129"><ele>620.0</ele><time>2026-05-01T08:49:10.105Z</time></trkpt><trkpt lat="45.9794962" lon="11.7307887"><ele>618.8333333333333</ele><time>2026-05-01T08:49:12.782Z</time></trkpt><trkpt lat="45.9795662" lon="11.7308033"><ele>617.6666666666666</ele><time>2026-05-01T08:49:14.802Z</time></trkpt><trkpt lat="45.9796306" lon="11.7307866"><ele>616.5</ele><time>2026-05-01T08:49:16.789Z</time></trkpt><trkpt lat="45.9796992" lon="11.7308196"><ele>615.3333333333334</ele><time>2026-05-01T08:49:20.758Z</time></trkpt><trkpt lat="45.9797717" lon="11.7308666"><ele>614.1666666666667</ele><time>2026-05-01T08:49:23.786Z</time></trkpt><trkpt lat="45.9798612" lon="11.7308804"><ele>613.0</ele><time>2026-05-01T08:49:26.807Z</time></trkpt><trkpt lat="45.9799207" lon="11.7307772"><ele>613.0</ele><time>2026-05-01T08:49:28.805Z</time></trkpt><trkpt lat="45.9799137" lon="11.7306626"><ele>613.0</ele><time>2026-05-01T08:49:31.794Z</time></trkpt><trkpt lat="45.979906" lon="11.7305275"><ele>613.0</ele><time>2026-05-01T08:49:34.806Z</time></trkpt><trkpt lat="45.979903" lon="11.7304249"><ele>613.0</ele><time>2026-05-01T08:49:35.804Z</time></trkpt><trkpt lat="45.9798975" lon="11.7303106"><ele>613.0</ele><time>2026-05-01T08:49:37.786Z</time></trkpt><trkpt lat="45.9799013" lon="11.7301879"><ele>613.0</ele><time>2026-05-01T08:49:39.801Z</time></trkpt><trkpt lat="45.9799439" lon="11.7300861"><ele>610.5</ele><time>2026-05-01T08:49:45.788Z</time></trkpt><trkpt lat="45.9799125" lon="11.7299343"><ele>608.0</ele><time>2026-05-01T08:49:47.803Z</time></trkpt><trkpt lat="45.9798772" lon="11.7297878"><ele>605.5</ele><time>2026-05-01T08:49:49.794Z</time></trkpt><trkpt lat="45.9798625" lon="11.7296907"><ele>603.0</ele><time>2026-05-01T08:49:50.811Z</time></trkpt><trkpt lat="45.9798516" lon="11.7295925"><ele>600.5</ele><time>2026-05-01T08:49:51.789Z</time></trkpt><trkpt lat="45.9798095" lon="11.729498"><ele>598.0</ele><time>2026-05-01T08:49:52.782Z</time></trkpt><trkpt lat="45.9797814" lon="11.729382"><ele>595.3333333333334</ele><time>2026-05-01T08:49:55.812Z</time></trkpt><trkpt lat="45.9797624" lon="11.7292338"><ele>592.6666666666667</ele><time>2026-05-01T08:49:57.791Z</time></trkpt><trkpt lat="45.9797616" lon="11.7290931"><ele>590.0</ele><time>2026-05-01T08:49:59.81Z</time></trkpt><trkpt lat="45.9797711" lon="11.7289708"><ele>587.3333333333334</ele><time>2026-05-01T08:50:01.799Z</time></trkpt><trkpt lat="45.9797971" lon="11.7288732"><ele>584.6666666666666</ele><time>2026-05-01T08:50:03.776Z</time></trkpt><trkpt lat="45.9798153" lon="11.7287603"><ele>582.0</ele><time>2026-05-01T08:50:05.801Z</time></trkpt><trkpt lat="45.97985" lon="11.7286575"><ele>582.0</ele><time>2026-05-01T08:50:07.797Z</time></trkpt><trkpt lat="45.979889" lon="11.7285847"><ele>582.0</ele><time>2026-05-01T08:50:09.789Z</time></trkpt><trkpt lat="45.9799239" lon="11.728507"><ele>582.0</ele><time>2026-05-01T08:50:13.794Z</time></trkpt><trkpt lat="45.9799681" lon="11.7284381"><ele>582.0</ele><time>2026-05-01T08:50:21.8Z</time></trkpt><trkpt lat="45.9800345" lon="11.7283554"><ele>582.0</ele><time>2026-05-01T08:50:26.801Z</time></trkpt><trkpt lat="45.9800894" lon="11.7282989"><ele>582.0</ele><time>2026-05-01T08:50:28.799Z</time></trkpt><trkpt lat="45.9801809" lon="11.7283334"><ele>582.0</ele><time>2026-05-01T08:50:32.794Z</time></trkpt><trkpt lat="45.9802506" lon="11.7283594"><ele>579.3333333333334</ele><time>2026-05-01T08:50:34.788Z</time></trkpt><trkpt lat="45.9802784" lon="11.7284901"><ele>576.6666666666666</ele><time>2026-05-01T08:50:42.783Z</time></trkpt><trkpt lat="45.9803293" lon="11.7285639"><ele>574.0</ele><time>2026-05-01T08:50:44.808Z</time></trkpt><trkpt lat="45.9804195" lon="11.7286072"><ele>571.3333333333333</ele><time>2026-05-01T08:50:46.793Z</time></trkpt><trkpt lat="45.9804839" lon="11.7286752"><ele>568.6666666666666</ele><time>2026-05-01T08:50:48.792Z</time></trkpt><trkpt lat="45.9805655" lon="11.7286227"><ele>566.0</ele><time>2026-05-01T08:50:51.785Z</time></trkpt><trkpt lat="45.9806423" lon="11.7285803"><ele>566.0</ele><time>2026-05-01T08:50:53.803Z</time></trkpt><trkpt lat="45.9807164" lon="11.7286303"><ele>566.0</ele><time>2026-05-01T08:50:55.797Z</time></trkpt><trkpt lat="45.9807777" lon="11.7286752"><ele>566.0</ele><time>2026-05-01T08:50:56.808Z</time></trkpt><trkpt lat="45.9808331" lon="11.7287455"><ele>566.0</ele><time>2026-05-01T08:51:11.781Z</time></trkpt><trkpt lat="45.9809105" lon="11.7287462"><ele>566.0</ele><time>2026-05-01T08:51:16.8Z</time></trkpt><trkpt lat="45.9810001" lon="11.7287909"><ele>566.0</ele><time>2026-05-01T08:51:18.801Z</time></trkpt><trkpt lat="45.981109" lon="11.7288651"><ele>562.0</ele><time>2026-05-01T08:51:20.799Z</time></trkpt><trkpt lat="45.9811827" lon="11.7289308"><ele>558.0</ele><time>2026-05-01T08:51:21.807Z</time></trkpt><trkpt lat="45.9812551" lon="11.7290009"><ele>554.0</ele><time>2026-05-01T08:51:22.798Z</time></trkpt><trkpt lat="45.9813704" lon="11.7290741"><ele>550.0</ele><time>2026-05-01T08:51:24.783Z</time></trkpt><trkpt lat="45.9814432" lon="11.7291055"><ele>546.0</ele><time>2026-05-01T08:51:25.807Z</time></trkpt><trkpt lat="45.981538" lon="11.7292131"><ele>546.0</ele><time>2026-05-01T08:51:27.797Z</time></trkpt><trkpt lat="45.9815945" lon="11.7292544"><ele>546.0</ele><time>2026-05-01T08:51:28.799Z</time></trkpt><trkpt lat="45.9816727" lon="11.7293041"><ele>546.0</ele><time>2026-05-01T08:51:29.778Z</time></trkpt><trkpt lat="45.9817388" lon="11.7293317"><ele>546.0</ele><time>2026-05-01T08:51:30.801Z</time></trkpt><trkpt lat="45.981798" lon="11.7293774"><ele>546.0</ele><time>2026-05-01T08:51:31.801Z</time></trkpt><trkpt lat="45.9818678" lon="11.7294102"><ele>546.0</ele><time>2026-05-01T08:51:32.801Z</time></trkpt><trkpt lat="45.9819352" lon="11.7294524"><ele>546.0</ele><time>2026-05-01T08:51:34.798Z</time></trkpt><trkpt lat="45.9820098" lon="11.7295177"><ele>543.4</ele><time>2026-05-01T08:51:36.796Z</time></trkpt><trkpt lat="45.9820763" lon="11.7295585"><ele>540.8</ele><time>2026-05-01T08:51:38.808Z</time></trkpt><trkpt lat="45.9821632" lon="11.7296138"><ele>538.1999999999999</ele><time>2026-05-01T08:51:40.802Z</time></trkpt><trkpt lat="45.9822342" lon="11.7295996"><ele>535.6</ele><time>2026-05-01T08:51:41.808Z</time></trkpt><trkpt lat="45.9823355" lon="11.7296398"><ele>533.0</ele><time>2026-05-01T08:51:44.803Z</time></trkpt><trkpt lat="45.9824569" lon="11.7297111"><ele>527.5714285714286</ele><time>2026-05-01T08:51:46.8Z</time></trkpt><trkpt lat="45.9825218" lon="11.7297595"><ele>522.1428571428571</ele><time>2026-05-01T08:51:47.801Z</time></trkpt><trkpt lat="45.9825827" lon="11.7298209"><ele>516.7142857142857</ele><time>2026-05-01T08:51:48.805Z</time></trkpt><trkpt lat="45.9826293" lon="11.7299065"><ele>511.2857142857142</ele><time>2026-05-01T08:51:49.803Z</time></trkpt><trkpt lat="45.9826792" lon="11.7299804"><ele>505.85714285714283</ele><time>2026-05-01T08:51:50.81Z</time></trkpt><trkpt lat="45.9827271" lon="11.73005"><ele>500.42857142857133</ele><time>2026-05-01T08:51:51.793Z</time></trkpt><trkpt lat="45.9827812" lon="11.7301205"><ele>494.99999999999994</ele><time>2026-05-01T08:51:52.807Z</time></trkpt><trkpt lat="45.9828457" lon="11.7301967"><ele>498.0</ele><time>2026-05-01T08:51:53.805Z</time></trkpt><trkpt lat="45.9829437" lon="11.730312"><ele>501.0</ele><time>2026-05-01T08:51:55.811Z</time></trkpt><trkpt lat="45.9829921" lon="11.730392"><ele>504.0</ele><time>2026-05-01T08:51:56.797Z</time></trkpt><trkpt lat="45.9830288" lon="11.7304743"><ele>507.0</ele><time>2026-05-01T08:51:57.799Z</time></trkpt><trkpt lat="45.9830743" lon="11.7306219"><ele>510.0</ele><time>2026-05-01T08:51:59.802Z</time></trkpt><trkpt lat="45.9831253" lon="11.7307947"><ele>510.0</ele><time>2026-05-01T08:52:01.802Z</time></trkpt><trkpt lat="45.9831777" lon="11.730897"><ele>510.0</ele><time>2026-05-01T08:52:02.804Z</time></trkpt><trkpt lat="45.9832392" lon="11.7309895"><ele>510.0</ele><time>2026-05-01T08:52:03.791Z</time></trkpt><trkpt lat="45.9832953" lon="11.7310716"><ele>510.0</ele><time>2026-05-01T08:52:04.813Z</time></trkpt><trkpt lat="45.983346" lon="11.7311576"><ele>510.0</ele><time>2026-05-01T08:52:05.802Z</time></trkpt><trkpt lat="45.9834063" lon="11.7312624"><ele>510.0</ele><time>2026-05-01T08:52:06.804Z</time></trkpt><trkpt lat="45.983462" lon="11.7313831"><ele>508.8</ele><time>2026-05-01T08:52:07.8Z</time></trkpt><trkpt lat="45.9835343" lon="11.7315477"><ele>507.6</ele><time>2026-05-01T08:52:08.831Z</time></trkpt><trkpt lat="45.9836006" lon="11.7316837"><ele>506.4</ele><time>2026-05-01T08:52:09.802Z</time></trkpt><trkpt lat="45.9836616" lon="11.7317744"><ele>505.2</ele><time>2026-05-01T08:52:10.805Z</time></trkpt><trkpt lat="45.9837216" lon="11.7318483"><ele>504.0</ele><time>2026-05-01T08:52:11.818Z</time></trkpt><trkpt lat="45.983788" lon="11.7319104"><ele>504.0</ele><time>2026-05-01T08:52:12.805Z</time></trkpt><trkpt lat="45.9838501" lon="11.731954"><ele>504.0</ele><time>2026-05-01T08:52:13.808Z</time></trkpt><trkpt lat="45.9839289" lon="11.7319868"><ele>504.0</ele><time>2026-05-01T08:52:14.804Z</time></trkpt><trkpt lat="45.983994" lon="11.7320299"><ele>504.0</ele><time>2026-05-01T08:52:16.788Z</time></trkpt><trkpt lat="45.9839972" lon="11.7321422"><ele>504.0</ele><time>2026-05-01T08:52:18.804Z</time></trkpt><trkpt lat="45.9839994" lon="11.7322559"><ele>504.0</ele><time>2026-05-01T08:52:19.799Z</time></trkpt><trkpt lat="45.984006" lon="11.7323913"><ele>504.0</ele><time>2026-05-01T08:52:20.813Z</time></trkpt><trkpt lat="45.9840178" lon="11.7325363"><ele>504.0</ele><time>2026-05-01T08:52:21.794Z</time></trkpt><trkpt lat="45.984061" lon="11.732817"><ele>504.0</ele><time>2026-05-01T08:52:22.803Z</time></trkpt><trkpt lat="45.9840872" lon="11.7330162"><ele>504.0</ele><time>2026-05-01T08:52:23.759Z</time></trkpt><trkpt lat="45.9840967" lon="11.7331851"><ele>504.0</ele><time>2026-05-01T08:52:24.758Z</time></trkpt><trkpt lat="45.9840889" lon="11.7332987"><ele>504.0</ele><time>2026-05-01T08:52:25.747Z</time></trkpt><trkpt lat="45.9840853" lon="11.7334058"><ele>504.0</ele><time>2026-05-01T08:52:26.753Z</time></trkpt><trkpt lat="45.9840957" lon="11.7335874"><ele>504.0</ele><time>2026-05-01T08:52:28.745Z</time></trkpt><trkpt lat="45.9840959" lon="11.7336927"><ele>504.0</ele><time>2026-05-01T08:52:29.753Z</time></trkpt><trkpt lat="45.9841428" lon="11.7338472"><ele>502.25</ele><time>2026-05-01T08:52:31.755Z</time></trkpt><trkpt lat="45.9841777" lon="11.7339517"><ele>500.5</ele><time>2026-05-01T08:52:32.754Z</time></trkpt><trkpt lat="45.9842111" lon="11.7340761"><ele>498.75</ele><time>2026-05-01T08:52:34.749Z</time></trkpt><trkpt lat="45.9842313" lon="11.7343374"><ele>497.0</ele><time>2026-05-01T08:52:38.797Z</time></trkpt><trkpt lat="45.9842288" lon="11.7344867"><ele>495.16666666666663</ele><time>2026-05-01T08:52:40.801Z</time></trkpt><trkpt lat="45.9842087" lon="11.7345832"><ele>493.3333333333333</ele><time>2026-05-01T08:52:41.807Z</time></trkpt><trkpt lat="45.984133" lon="11.7347359"><ele>491.5</ele><time>2026-05-01T08:52:43.798Z</time></trkpt><trkpt lat="45.9840914" lon="11.7348138"><ele>489.66666666666663</ele><time>2026-05-01T08:52:44.805Z</time></trkpt><trkpt lat="45.9840397" lon="11.7348944"><ele>487.8333333333333</ele><time>2026-05-01T08:52:45.832Z</time></trkpt><trkpt lat="45.9839929" lon="11.7349794"><ele>486.0</ele><time>2026-05-01T08:52:46.811Z</time></trkpt><trkpt lat="45.9839064" lon="11.7351246"><ele>486.0</ele><time>2026-05-01T08:52:48.779Z</time></trkpt><trkpt lat="45.9838572" lon="11.7351973"><ele>486.0</ele><time>2026-05-01T08:52:49.807Z</time></trkpt><trkpt lat="45.983783" lon="11.7353308"><ele>486.0</ele><time>2026-05-01T08:52:51.797Z</time></trkpt><trkpt lat="45.9837571" lon="11.7354422"><ele>486.0</ele><time>2026-05-01T08:52:52.806Z</time></trkpt><trkpt lat="45.9837304" lon="11.735559"><ele>486.0</ele><time>2026-05-01T08:52:53.805Z</time></trkpt><trkpt lat="45.983684" lon="11.7356964"><ele>483.5</ele><time>2026-05-01T08:52:55.805Z</time></trkpt><trkpt lat="45.9836044" lon="11.7358444"><ele>481.0</ele><time>2026-05-01T08:52:57.811Z</time></trkpt><trkpt lat="45.9835739" lon="11.7359391"><ele>478.5</ele><time>2026-05-01T08:52:58.806Z</time></trkpt><trkpt lat="45.9835382" lon="11.7360355"><ele>476.0</ele><time>2026-05-01T08:52:59.801Z</time></trkpt><trkpt lat="45.983507" lon="11.7361323"><ele>473.5</ele><time>2026-05-01T08:53:00.808Z</time></trkpt><trkpt lat="45.9834726" lon="11.7362291"><ele>471.0</ele><time>2026-05-01T08:53:01.786Z</time></trkpt><trkpt lat="45.9834407" lon="11.7363231"><ele>472.20000000000005</ele><time>2026-05-01T08:53:02.804Z</time></trkpt><trkpt lat="45.9833872" lon="11.7364227"><ele>473.40000000000003</ele><time>2026-05-01T08:53:03.806Z</time></trkpt><trkpt lat="45.9833361" lon="11.7365366"><ele>474.6</ele><time>2026-05-01T08:53:04.82Z</time></trkpt><trkpt lat="45.983268" lon="11.736625"><ele>475.8</ele><time>2026-05-01T08:53:05.819Z</time></trkpt><trkpt lat="45.9832189" lon="11.7367387"><ele>477.0</ele><time>2026-05-01T08:53:06.811Z</time></trkpt><trkpt lat="45.9831837" lon="11.7368522"><ele>474.0</ele><time>2026-05-01T08:53:07.807Z</time></trkpt><trkpt lat="45.9831513" lon="11.7369593"><ele>471.0</ele><time>2026-05-01T08:53:08.804Z</time></trkpt><trkpt lat="45.9831232" lon="11.737058"><ele>468.0</ele><time>2026-05-01T08:53:09.808Z</time></trkpt><trkpt lat="45.9831201" lon="11.7371721"><ele>465.0</ele><time>2026-05-01T08:53:10.78Z</time></trkpt><trkpt lat="45.9831054" lon="11.7372885"><ele>462.0</ele><time>2026-05-01T08:53:11.798Z</time></trkpt><trkpt lat="45.9830975" lon="11.7374256"><ele>459.0</ele><time>2026-05-01T08:53:12.805Z</time></trkpt><trkpt lat="45.9830887" lon="11.737617"><ele>456.6666666666667</ele><time>2026-05-01T08:53:13.816Z</time></trkpt><trkpt lat="45.9830771" lon="11.7377998"><ele>454.33333333333337</ele><time>2026-05-01T08:53:14.806Z</time></trkpt><trkpt lat="45.9830493" lon="11.7379405"><ele>452.0</ele><time>2026-05-01T08:53:15.801Z</time></trkpt><trkpt lat="45.98304" lon="11.7380524"><ele>449.6666666666667</ele><time>2026-05-01T08:53:16.804Z</time></trkpt><trkpt lat="45.9830284" lon="11.7381566"><ele>447.33333333333337</ele><time>2026-05-01T08:53:17.808Z</time></trkpt><trkpt lat="45.9830173" lon="11.7382501"><ele>445.0</ele><time>2026-05-01T08:53:18.81Z</time></trkpt><trkpt lat="45.9830119" lon="11.7383718"><ele>445.0</ele><time>2026-05-01T08:53:20.794Z</time></trkpt><trkpt lat="45.9830267" lon="11.7384817"><ele>445.0</ele><time>2026-05-01T08:53:23.797Z</time></trkpt><trkpt lat="45.9830762" lon="11.7385868"><ele>445.0</ele><time>2026-05-01T08:53:25.782Z</time></trkpt><trkpt lat="45.9831841" lon="11.7387221"><ele>445.0</ele><time>2026-05-01T08:53:27.803Z</time></trkpt><trkpt lat="45.9831761" lon="11.7388352"><ele>445.0</ele><time>2026-05-01T08:53:31.793Z</time></trkpt><trkpt lat="45.9831526" lon="11.7389285"><ele>443.6</ele><time>2026-05-01T08:53:33.791Z</time></trkpt><trkpt lat="45.9831802" lon="11.7390222"><ele>442.2</ele><time>2026-05-01T08:53:36.814Z</time></trkpt><trkpt lat="45.9832598" lon="11.7391564"><ele>440.79999999999995</ele><time>2026-05-01T08:53:38.796Z</time></trkpt><trkpt lat="45.9833058" lon="11.7392929"><ele>439.4</ele><time>2026-05-01T08:53:39.781Z</time></trkpt><trkpt lat="45.9833674" lon="11.7394132"><ele>438.0</ele><time>2026-05-01T08:53:40.812Z</time></trkpt><trkpt lat="45.9834371" lon="11.7395391"><ele>430.5</ele><time>2026-05-01T08:53:41.807Z</time></trkpt><trkpt lat="45.9834907" lon="11.7396153"><ele>423.0</ele><time>2026-05-01T08:53:44.782Z</time></trkpt><trkpt lat="45.983575" lon="11.7396275"><ele>415.5</ele><time>2026-05-01T08:53:46.814Z</time></trkpt><trkpt lat="45.9836371" lon="11.7397144"><ele>408.0</ele><time>2026-05-01T08:53:48.806Z</time></trkpt><trkpt lat="45.9836517" lon="11.7398256"><ele>400.5</ele><time>2026-05-01T08:53:50.805Z</time></trkpt><trkpt lat="45.9836902" lon="11.739987"><ele>393.0</ele><time>2026-05-01T08:53:52.788Z</time></trkpt><trkpt lat="45.9837152" lon="11.7401171"><ele>391.0</ele><time>2026-05-01T08:53:53.809Z</time></trkpt><trkpt lat="45.9837238" lon="11.7402181"><ele>389.0</ele><time>2026-05-01T08:53:54.804Z</time></trkpt><trkpt lat="45.9837492" lon="11.7403195"><ele>387.0</ele><time>2026-05-01T08:53:55.81Z</time></trkpt><trkpt lat="45.9837661" lon="11.7404136"><ele>385.0</ele><time>2026-05-01T08:53:56.811Z</time></trkpt><trkpt lat="45.9838315" lon="11.7406083"><ele>383.0</ele><time>2026-05-01T08:53:58.805Z</time></trkpt><trkpt lat="45.9838761" lon="11.7406926"><ele>381.0</ele><time>2026-05-01T08:53:59.81Z</time></trkpt><trkpt lat="45.9839103" lon="11.7407691"><ele>381.0</ele><time>2026-05-01T08:54:00.808Z</time></trkpt><trkpt lat="45.9839635" lon="11.740905"><ele>381.0</ele><time>2026-05-01T08:54:02.801Z</time></trkpt><trkpt lat="45.9839821" lon="11.7409973"><ele>381.0</ele><time>2026-05-01T08:54:04.812Z</time></trkpt><trkpt lat="45.9840494" lon="11.7411102"><ele>381.0</ele><time>2026-05-01T08:54:06.799Z</time></trkpt><trkpt lat="45.984082" lon="11.7411991"><ele>381.0</ele><time>2026-05-01T08:54:08.817Z</time></trkpt><trkpt lat="45.9841475" lon="11.7413518"><ele>375.6666666666667</ele><time>2026-05-01T08:54:10.823Z</time></trkpt><trkpt lat="45.984082" lon="11.7411549"><ele>370.33333333333337</ele><time>2026-05-01T08:54:13.805Z</time></trkpt><trkpt lat="45.984196" lon="11.741297"><ele>365.0</ele><time>2026-05-01T08:54:16.814Z</time></trkpt><trkpt lat="45.9841379" lon="11.7415213"><ele>365.0</ele><time>2026-05-01T08:54:17.821Z</time></trkpt><trkpt lat="45.9840385" lon="11.7417262"><ele>365.0</ele><time>2026-05-01T08:54:18.795Z</time></trkpt><trkpt lat="45.9839373" lon="11.7418651"><ele>365.0</ele><time>2026-05-01T08:54:19.812Z</time></trkpt><trkpt lat="45.9840109" lon="11.7421458"><ele>361.75</ele><time>2026-05-01T08:54:20.778Z</time></trkpt><trkpt lat="45.9840823" lon="11.7423938"><ele>358.5</ele><time>2026-05-01T08:54:21.815Z</time></trkpt><trkpt lat="45.984084" lon="11.7424847"><ele>355.25</ele><time>2026-05-01T08:54:22.758Z</time></trkpt><trkpt lat="45.9840606" lon="11.7426382"><ele>352.0</ele><time>2026-05-01T08:54:24.769Z</time></trkpt><trkpt lat="45.983985" lon="11.742796"><ele>349.8</ele><time>2026-05-01T08:54:26.761Z</time></trkpt><trkpt lat="45.983959" lon="11.7429023"><ele>347.6</ele><time>2026-05-01T08:54:27.751Z</time></trkpt><trkpt lat="45.9839259" lon="11.7430201"><ele>345.40000000000003</ele><time>2026-05-01T08:54:28.76Z</time></trkpt><trkpt lat="45.9839086" lon="11.7431126"><ele>343.20000000000005</ele><time>2026-05-01T08:54:29.75Z</time></trkpt><trkpt lat="45.9838934" lon="11.7432441"><ele>341.0</ele><time>2026-05-01T08:54:31.762Z</time></trkpt><trkpt lat="45.9838487" lon="11.7434187"><ele>341.0</ele><time>2026-05-01T08:54:33.74Z</time></trkpt><trkpt lat="45.9838133" lon="11.7435466"><ele>341.0</ele><time>2026-05-01T08:54:34.758Z</time></trkpt><trkpt lat="45.9837794" lon="11.7436515"><ele>341.0</ele><time>2026-05-01T08:54:35.763Z</time></trkpt><trkpt lat="45.9837588" lon="11.7437508"><ele>341.0</ele><time>2026-05-01T08:54:36.75Z</time></trkpt><trkpt lat="45.9837327" lon="11.7438734"><ele>341.0</ele><time>2026-05-01T08:54:37.741Z</time></trkpt><trkpt lat="45.9837162" lon="11.7440296"><ele>341.0</ele><time>2026-05-01T08:54:38.748Z</time></trkpt><trkpt lat="45.9836686" lon="11.7441531"><ele>339.5</ele><time>2026-05-01T08:54:39.755Z</time></trkpt><trkpt lat="45.9836135" lon="11.7442453"><ele>338.0</ele><time>2026-05-01T08:54:40.745Z</time></trkpt><trkpt lat="45.9835604" lon="11.7443462"><ele>336.5</ele><time>2026-05-01T08:54:41.752Z</time></trkpt><trkpt lat="45.9835144" lon="11.7444605"><ele>335.0</ele><time>2026-05-01T08:54:42.768Z</time></trkpt><trkpt lat="45.9834758" lon="11.7445763"><ele>333.5</ele><time>2026-05-01T08:54:43.761Z</time></trkpt><trkpt lat="45.9834393" lon="11.7446856"><ele>332.0</ele><time>2026-05-01T08:54:44.75Z</time></trkpt><trkpt lat="45.9834022" lon="11.7447825"><ele>332.40000000000003</ele><time>2026-05-01T08:54:45.748Z</time></trkpt><trkpt lat="45.9833636" lon="11.7448993"><ele>332.8</ele><time>2026-05-01T08:54:46.769Z</time></trkpt><trkpt lat="45.9833116" lon="11.745035"><ele>333.2</ele><time>2026-05-01T08:54:47.749Z</time></trkpt><trkpt lat="45.9832542" lon="11.7451771"><ele>333.6</ele><time>2026-05-01T08:54:48.758Z</time></trkpt><trkpt lat="45.9832305" lon="11.745278"><ele>334.0</ele><time>2026-05-01T08:54:49.746Z</time></trkpt><trkpt lat="45.9831804" lon="11.7453698"><ele>332.79999999999995</ele><time>2026-05-01T08:54:50.756Z</time></trkpt><trkpt lat="45.9831079" lon="11.7454829"><ele>331.59999999999997</ele><time>2026-05-01T08:54:51.744Z</time></trkpt><trkpt lat="45.9830445" lon="11.7456079"><ele>330.4</ele><time>2026-05-01T08:54:52.747Z</time></trkpt><trkpt lat="45.9829704" lon="11.745737"><ele>329.2</ele><time>2026-05-01T08:54:53.745Z</time></trkpt><trkpt lat="45.9829159" lon="11.7458606"><ele>328.0</ele><time>2026-05-01T08:54:54.75Z</time></trkpt><trkpt lat="45.9828336" lon="11.7460158"><ele>327.5</ele><time>2026-05-01T08:54:55.747Z</time></trkpt><trkpt lat="45.9827612" lon="11.7461754"><ele>327.0</ele><time>2026-05-01T08:54:56.765Z</time></trkpt><trkpt lat="45.9827097" lon="11.7463053"><ele>326.5</ele><time>2026-05-01T08:54:57.744Z</time></trkpt><trkpt lat="45.982655" lon="11.7464385"><ele>326.0</ele><time>2026-05-01T08:54:58.748Z</time></trkpt><trkpt lat="45.9826157" lon="11.7465798"><ele>326.0</ele><time>2026-05-01T08:54:59.748Z</time></trkpt><trkpt lat="45.9825905" lon="11.7467051"><ele>326.0</ele><time>2026-05-01T08:55:00.765Z</time></trkpt><trkpt lat="45.9825718" lon="11.7468171"><ele>326.0</ele><time>2026-05-01T08:55:01.754Z</time></trkpt><trkpt lat="45.9825676" lon="11.7469298"><ele>326.0</ele><time>2026-05-01T08:55:02.753Z</time></trkpt><trkpt lat="45.9825765" lon="11.7470708"><ele>326.0</ele><time>2026-05-01T08:55:03.75Z</time></trkpt><trkpt lat="45.9825974" lon="11.747232"><ele>326.0</ele><time>2026-05-01T08:55:04.754Z</time></trkpt><trkpt lat="45.9826003" lon="11.7473906"><ele>326.0</ele><time>2026-05-01T08:55:05.748Z</time></trkpt><trkpt lat="45.9826278" lon="11.7475514"><ele>326.0</ele><time>2026-05-01T08:55:06.764Z</time></trkpt><trkpt lat="45.9826257" lon="11.7476946"><ele>326.0</ele><time>2026-05-01T08:55:07.756Z</time></trkpt><trkpt lat="45.9826644" lon="11.7477932"><ele>326.0</ele><time>2026-05-01T08:55:08.755Z</time></trkpt><trkpt lat="45.9826424" lon="11.7479005"><ele>328.6666666666667</ele><time>2026-05-01T08:55:09.749Z</time></trkpt><trkpt lat="45.9826402" lon="11.7480613"><ele>331.33333333333337</ele><time>2026-05-01T08:55:10.766Z</time></trkpt><trkpt lat="45.9826074" lon="11.7481432"><ele>334.0</ele><time>2026-05-01T08:55:11.768Z</time></trkpt><trkpt lat="45.9825748" lon="11.7482331"><ele>336.6666666666667</ele><time>2026-05-01T08:55:12.747Z</time></trkpt><trkpt lat="45.9825185" lon="11.7483556"><ele>339.3333333333333</ele><time>2026-05-01T08:55:14.752Z</time></trkpt><trkpt lat="45.9826105" lon="11.7483822"><ele>342.0</ele><time>2026-05-01T08:55:18.728Z</time></trkpt><trkpt lat="45.9826597" lon="11.7484412"><ele>342.6666666666667</ele><time>2026-05-01T08:55:19.76Z</time></trkpt><trkpt lat="45.9826594" lon="11.7485453"><ele>343.3333333333333</ele><time>2026-05-01T08:55:21.729Z</time></trkpt><trkpt lat="45.9825596" lon="11.7486425"><ele>344.0</ele><time>2026-05-01T08:55:23.762Z</time></trkpt><trkpt lat="45.9824788" lon="11.7487027"><ele>344.66666666666663</ele><time>2026-05-01T08:55:25.735Z</time></trkpt><trkpt lat="45.9824133" lon="11.7487063"><ele>345.3333333333333</ele><time>2026-05-01T08:55:27.742Z</time></trkpt><trkpt lat="45.9823572" lon="11.7487567"><ele>346.0</ele><time>2026-05-01T08:55:28.754Z</time></trkpt><trkpt lat="45.9822348" lon="11.7488337"><ele>346.0</ele><time>2026-05-01T08:55:29.747Z</time></trkpt><trkpt lat="45.9821799" lon="11.748929"><ele>346.0</ele><time>2026-05-01T08:55:30.758Z</time></trkpt><trkpt lat="45.9822637" lon="11.7489606"><ele>346.0</ele><time>2026-05-01T08:55:34.72Z</time></trkpt><trkpt lat="45.9822179" lon="11.7491173"><ele>346.0</ele><time>2026-05-01T08:55:39.738Z</time></trkpt><trkpt lat="45.9821852" lon="11.749234"><ele>346.0</ele><time>2026-05-01T08:55:40.751Z</time></trkpt><trkpt lat="45.982162" lon="11.7493644"><ele>347.5</ele><time>2026-05-01T08:55:41.752Z</time></trkpt><trkpt lat="45.9821119" lon="11.7494197"><ele>349.0</ele><time>2026-05-01T08:55:43.745Z</time></trkpt><trkpt lat="45.9820828" lon="11.749509"><ele>350.5</ele><time>2026-05-01T08:55:45.772Z</time></trkpt><trkpt lat="45.9821212" lon="11.7496062"><ele>352.0</ele><time>2026-05-01T08:55:48.745Z</time></trkpt><trkpt lat="45.9821896" lon="11.7496025"><ele>353.5</ele><time>2026-05-01T08:55:50.757Z</time></trkpt><trkpt lat="45.9822632" lon="11.7496028"><ele>355.0</ele><time>2026-05-01T08:55:52.756Z</time></trkpt><trkpt lat="45.982377" lon="11.749575"><ele>355.0</ele><time>2026-05-01T08:55:54.756Z</time></trkpt><trkpt lat="45.9824784" lon="11.7496098"><ele>355.0</ele><time>2026-05-01T08:55:56.759Z</time></trkpt><trkpt lat="45.9825399" lon="11.7496717"><ele>355.0</ele><time>2026-05-01T08:55:58.753Z</time></trkpt><trkpt lat="45.9826465" lon="11.7497065"><ele>355.0</ele><time>2026-05-01T08:56:00.758Z</time></trkpt><trkpt lat="45.9827398" lon="11.7496738"><ele>355.0</ele><time>2026-05-01T08:56:02.75Z</time></trkpt><trkpt lat="45.9827976" lon="11.7496353"><ele>355.0</ele><time>2026-05-01T08:56:03.753Z</time></trkpt><trkpt lat="45.9828524" lon="11.7495631"><ele>356.16666666666663</ele><time>2026-05-01T08:56:04.76Z</time></trkpt><trkpt lat="45.9828927" lon="11.7494842"><ele>357.3333333333333</ele><time>2026-05-01T08:56:05.75Z</time></trkpt><trkpt lat="45.9829355" lon="11.7494064"><ele>358.5</ele><time>2026-05-01T08:56:06.758Z</time></trkpt><trkpt lat="45.9830271" lon="11.7493705"><ele>359.6666666666667</ele><time>2026-05-01T08:56:08.755Z</time></trkpt><trkpt lat="45.9830983" lon="11.7493476"><ele>360.83333333333337</ele><time>2026-05-01T08:56:09.774Z</time></trkpt><trkpt lat="45.9832056" lon="11.7492888"><ele>362.0</ele><time>2026-05-01T08:56:11.752Z</time></trkpt><trkpt lat="45.9832915" lon="11.7492245"><ele>364.8</ele><time>2026-05-01T08:56:13.724Z</time></trkpt><trkpt lat="45.9834421" lon="11.7491348"><ele>367.6</ele><time>2026-05-01T08:56:15.752Z</time></trkpt><trkpt lat="45.9835452" lon="11.7491055"><ele>370.40000000000003</ele><time>2026-05-01T08:56:16.741Z</time></trkpt><trkpt lat="45.9836159" lon="11.7490914"><ele>373.20000000000005</ele><time>2026-05-01T08:56:17.754Z</time></trkpt><trkpt lat="45.9837209" lon="11.7490957"><ele>376.0</ele><time>2026-05-01T08:56:19.753Z</time></trkpt><trkpt lat="45.9838052" lon="11.7491057"><ele>376.0</ele><time>2026-05-01T08:56:20.727Z</time></trkpt><trkpt lat="45.9839254" lon="11.7491082"><ele>376.0</ele><time>2026-05-01T08:56:21.752Z</time></trkpt><trkpt lat="45.983988" lon="11.7491385"><ele>376.0</ele><time>2026-05-01T08:56:22.746Z</time></trkpt><trkpt lat="45.9840736" lon="11.7491607"><ele>376.0</ele><time>2026-05-01T08:56:24.081Z</time></trkpt><trkpt lat="45.9840334" lon="11.7492533"><ele>376.0</ele><time>2026-05-01T08:56:26.817Z</time></trkpt><trkpt lat="45.9840301" lon="11.7493578"><ele>376.0</ele><time>2026-05-01T08:56:28.797Z</time></trkpt><trkpt lat="45.9840584" lon="11.7494718"><ele>376.5</ele><time>2026-05-01T08:56:29.814Z</time></trkpt><trkpt lat="45.9841135" lon="11.7496222"><ele>377.0</ele><time>2026-05-01T08:56:30.786Z</time></trkpt><trkpt lat="45.9841709" lon="11.7496849"><ele>377.5</ele><time>2026-05-01T08:56:31.818Z</time></trkpt><trkpt lat="45.9842503" lon="11.7496338"><ele>378.0</ele><time>2026-05-01T08:56:33.815Z</time></trkpt><trkpt lat="45.9843158" lon="11.7495335"><ele>378.5</ele><time>2026-05-01T08:56:35.809Z</time></trkpt><trkpt lat="45.9843486" lon="11.749444"><ele>379.0</ele><time>2026-05-01T08:56:36.809Z</time></trkpt><trkpt lat="45.9844024" lon="11.749359"><ele>383.0</ele><time>2026-05-01T08:56:37.8Z</time></trkpt><trkpt lat="45.9844777" lon="11.7492616"><ele>387.0</ele><time>2026-05-01T08:56:38.829Z</time></trkpt><trkpt lat="45.9845894" lon="11.7491517"><ele>391.0</ele><time>2026-05-01T08:56:40.808Z</time></trkpt><trkpt lat="45.9846461" lon="11.7490895"><ele>395.0</ele><time>2026-05-01T08:56:41.814Z</time></trkpt><trkpt lat="45.9847122" lon="11.7490402"><ele>399.0</ele><time>2026-05-01T08:56:42.822Z</time></trkpt><trkpt lat="45.9848452" lon="11.7489598"><ele>399.0</ele><time>2026-05-01T08:56:44.795Z</time></trkpt><trkpt lat="45.9849269" lon="11.7489226"><ele>399.0</ele><time>2026-05-01T08:56:45.814Z</time></trkpt><trkpt lat="45.9850088" lon="11.748971"><ele>399.0</ele><time>2026-05-01T08:56:48.806Z</time></trkpt><trkpt lat="45.9850155" lon="11.749072"><ele>399.0</ele><time>2026-05-01T08:56:50.81Z</time></trkpt><trkpt lat="45.9850041" lon="11.7493219"><ele>399.0</ele><time>2026-05-01T08:56:52.836Z</time></trkpt><trkpt lat="45.9850393" lon="11.749437"><ele>403.2</ele><time>2026-05-01T08:56:53.816Z</time></trkpt><trkpt lat="45.9850983" lon="11.7496202"><ele>407.4</ele><time>2026-05-01T08:56:55.781Z</time></trkpt><trkpt lat="45.9851518" lon="11.7497715"><ele>411.6</ele><time>2026-05-01T08:56:56.812Z</time></trkpt><trkpt lat="45.9852085" lon="11.7498897"><ele>415.8</ele><time>2026-05-01T08:56:58.798Z</time></trkpt><trkpt lat="45.9852926" lon="11.7499399"><ele>420.0</ele><time>2026-05-01T08:56:59.807Z</time></trkpt><trkpt lat="45.9853644" lon="11.7499915"><ele>420.0</ele><time>2026-05-01T08:57:00.808Z</time></trkpt><trkpt lat="45.9854875" lon="11.7500831"><ele>420.0</ele><time>2026-05-01T08:57:02.806Z</time></trkpt><trkpt lat="45.985564" lon="11.7501036"><ele>420.0</ele><time>2026-05-01T08:57:03.801Z</time></trkpt><trkpt lat="45.9856807" lon="11.7500831"><ele>420.0</ele><time>2026-05-01T08:57:05.815Z</time></trkpt><trkpt lat="45.9858089" lon="11.7500544"><ele>421.8333333333333</ele><time>2026-05-01T08:57:07.808Z</time></trkpt><trkpt lat="45.9858812" lon="11.7500376"><ele>423.66666666666663</ele><time>2026-05-01T08:57:08.805Z</time></trkpt><trkpt lat="45.9859516" lon="11.7500315"><ele>425.5</ele><time>2026-05-01T08:57:09.802Z</time></trkpt><trkpt lat="45.9860598" lon="11.7499656"><ele>427.3333333333333</ele><time>2026-05-01T08:57:11.805Z</time></trkpt><trkpt lat="45.986118" lon="11.7498707"><ele>429.16666666666663</ele><time>2026-05-01T08:57:12.799Z</time></trkpt><trkpt lat="45.9861866" lon="11.7497726"><ele>431.0</ele><time>2026-05-01T08:57:13.811Z</time></trkpt><trkpt lat="45.9862639" lon="11.7497301"><ele>430.99999999999994</ele><time>2026-05-01T08:57:14.821Z</time></trkpt><trkpt lat="45.9863284" lon="11.7497327"><ele>431.0</ele><time>2026-05-01T08:57:15.79Z</time></trkpt><trkpt lat="45.9864239" lon="11.7497593"><ele>431.0</ele><time>2026-05-01T08:57:16.807Z</time></trkpt><trkpt lat="45.9865115" lon="11.7497758"><ele>431.0</ele><time>2026-05-01T08:57:17.811Z</time></trkpt><trkpt lat="45.986584" lon="11.7497683"><ele>430.99999999999994</ele><time>2026-05-01T08:57:18.795Z</time></trkpt><trkpt lat="45.9866574" lon="11.7497629"><ele>431.0</ele><time>2026-05-01T08:57:19.815Z</time></trkpt><trkpt lat="45.9867388" lon="11.7497879"><ele>430.99999999999994</ele><time>2026-05-01T08:57:20.807Z</time></trkpt><trkpt lat="45.9868341" lon="11.7497955"><ele>431.0</ele><time>2026-05-01T08:57:21.817Z</time></trkpt><trkpt lat="45.9869046" lon="11.7497797"><ele>431.0</ele><time>2026-05-01T08:57:22.821Z</time></trkpt><trkpt lat="45.9869617" lon="11.7497322"><ele>431.0</ele><time>2026-05-01T08:57:23.8Z</time></trkpt><trkpt lat="45.9870247" lon="11.7497002"><ele>430.99999999999994</ele><time>2026-05-01T08:57:24.818Z</time></trkpt><trkpt lat="45.9871406" lon="11.7495742"><ele>431.0</ele><time>2026-05-01T08:57:26.777Z</time></trkpt><trkpt lat="45.9872107" lon="11.7494981"><ele>431.0</ele><time>2026-05-01T08:57:27.809Z</time></trkpt><trkpt lat="45.9872659" lon="11.7494471"><ele>431.0</ele><time>2026-05-01T08:57:28.801Z</time></trkpt><trkpt lat="45.9873257" lon="11.7494015"><ele>431.0</ele><time>2026-05-01T08:57:29.802Z</time></trkpt><trkpt lat="45.9873822" lon="11.7493438"><ele>431.0</ele><time>2026-05-01T08:57:30.816Z</time></trkpt><trkpt lat="45.9874322" lon="11.749239"><ele>431.0</ele><time>2026-05-01T08:57:31.816Z</time></trkpt><trkpt lat="45.9874704" lon="11.7491421"><ele>431.0</ele><time>2026-05-01T08:57:32.803Z</time></trkpt><trkpt lat="45.9875086" lon="11.7490525"><ele>431.0</ele><time>2026-05-01T08:57:33.81Z</time></trkpt><trkpt lat="45.9875604" lon="11.7489044"><ele>434.49999999999994</ele><time>2026-05-01T08:57:35.809Z</time></trkpt><trkpt lat="45.9875948" lon="11.7488016"><ele>438.0</ele><time>2026-05-01T08:57:36.806Z</time></trkpt><trkpt lat="45.9876429" lon="11.7487049"><ele>441.5</ele><time>2026-05-01T08:57:37.802Z</time></trkpt><trkpt lat="45.9877049" lon="11.7486195"><ele>445.0</ele><time>2026-05-01T08:57:38.823Z</time></trkpt><trkpt lat="45.9877719" lon="11.7485423"><ele>448.49999999999994</ele><time>2026-05-01T08:57:39.807Z</time></trkpt><trkpt lat="45.9878405" lon="11.7484765"><ele>452.0</ele><time>2026-05-01T08:57:40.799Z</time></trkpt><trkpt lat="45.9879105" lon="11.7484115"><ele>453.66666666666663</ele><time>2026-05-01T08:57:41.807Z</time></trkpt><trkpt lat="45.9879838" lon="11.7483604"><ele>455.3333333333333</ele><time>2026-05-01T08:57:42.822Z</time></trkpt><trkpt lat="45.9880556" lon="11.7483149"><ele>457.0</ele><time>2026-05-01T08:57:43.801Z</time></trkpt><trkpt lat="45.9881369" lon="11.7482619"><ele>458.66666666666663</ele><time>2026-05-01T08:57:44.811Z</time></trkpt><trkpt lat="45.9882105" lon="11.7482125"><ele>460.3333333333333</ele><time>2026-05-01T08:57:45.817Z</time></trkpt><trkpt lat="45.9882837" lon="11.7481576"><ele>462.0</ele><time>2026-05-01T08:57:46.824Z</time></trkpt><trkpt lat="45.9883554" lon="11.7481074"><ele>464.40000000000003</ele><time>2026-05-01T08:57:47.807Z</time></trkpt><trkpt lat="45.988432" lon="11.7480544"><ele>466.80000000000007</ele><time>2026-05-01T08:57:48.801Z</time></trkpt><trkpt lat="45.9885174" lon="11.7479911"><ele>469.2</ele><time>2026-05-01T08:57:49.823Z</time></trkpt><trkpt lat="45.9886054" lon="11.7479267"><ele>471.6</ele><time>2026-05-01T08:57:50.818Z</time></trkpt><trkpt lat="45.9886926" lon="11.7478679"><ele>474.0</ele><time>2026-05-01T08:57:51.789Z</time></trkpt><trkpt lat="45.9887993" lon="11.7477904"><ele>473.0</ele><time>2026-05-01T08:57:52.816Z</time></trkpt><trkpt lat="45.9889229" lon="11.747697"><ele>472.0</ele><time>2026-05-01T08:57:53.802Z</time></trkpt><trkpt lat="45.9890665" lon="11.7476036"><ele>471.0</ele><time>2026-05-01T08:57:54.804Z</time></trkpt><trkpt lat="45.9891738" lon="11.7475078"><ele>470.0</ele><time>2026-05-01T08:57:55.8Z</time></trkpt><trkpt lat="45.9892607" lon="11.7474061"><ele>469.4</ele><time>2026-05-01T08:57:56.813Z</time></trkpt><trkpt lat="45.9893435" lon="11.7473198"><ele>468.8</ele><time>2026-05-01T08:57:57.824Z</time></trkpt><trkpt lat="45.9894164" lon="11.7472453"><ele>468.20000000000005</ele><time>2026-05-01T08:57:58.817Z</time></trkpt><trkpt lat="45.9894915" lon="11.7471714"><ele>467.6</ele><time>2026-05-01T08:57:59.808Z</time></trkpt><trkpt lat="45.9895633" lon="11.7470993"><ele>467.0</ele><time>2026-05-01T08:58:00.807Z</time></trkpt><trkpt lat="45.9896267" lon="11.7469297"><ele>467.49999999999994</ele><time>2026-05-01T08:58:02.821Z</time></trkpt><trkpt lat="45.9896379" lon="11.7468293"><ele>468.0</ele><time>2026-05-01T08:58:03.83Z</time></trkpt><trkpt lat="45.989692" lon="11.7466695"><ele>468.5</ele><time>2026-05-01T08:58:05.826Z</time></trkpt><trkpt lat="45.9897498" lon="11.7466012"><ele>469.0</ele><time>2026-05-01T08:58:06.816Z</time></trkpt><trkpt lat="45.9898144" lon="11.7465224"><ele>469.49999999999994</ele><time>2026-05-01T08:58:07.808Z</time></trkpt><trkpt lat="45.9898752" lon="11.7464416"><ele>470.0</ele><time>2026-05-01T08:58:08.814Z</time></trkpt><trkpt lat="45.9899313" lon="11.7463571"><ele>470.0</ele><time>2026-05-01T08:58:09.816Z</time></trkpt><trkpt lat="45.9899806" lon="11.7462698"><ele>470.0</ele><time>2026-05-01T08:58:10.805Z</time></trkpt><trkpt lat="45.9900217" lon="11.746187"><ele>470.0</ele><time>2026-05-01T08:58:11.816Z</time></trkpt><trkpt lat="45.9900565" lon="11.746056"><ele>470.0</ele><time>2026-05-01T08:58:13.826Z</time></trkpt><trkpt lat="45.9900388" lon="11.7458928"><ele>470.0</ele><time>2026-05-01T08:58:15.822Z</time></trkpt><trkpt lat="45.9900099" lon="11.7457097"><ele>470.99999999999994</ele><time>2026-05-01T08:58:17.833Z</time></trkpt><trkpt lat="45.9899862" lon="11.7456249"><ele>472.0</ele><time>2026-05-01T08:58:18.809Z</time></trkpt><trkpt lat="45.9899889" lon="11.7455336"><ele>473.0</ele><time>2026-05-01T08:58:19.824Z</time></trkpt><trkpt lat="45.9899589" lon="11.7454428"><ele>474.0</ele><time>2026-05-01T08:58:20.826Z</time></trkpt><trkpt lat="45.9899498" lon="11.745336"><ele>474.99999999999994</ele><time>2026-05-01T08:58:21.818Z</time></trkpt><trkpt lat="45.989935" lon="11.7452457"><ele>476.0</ele><time>2026-05-01T08:58:22.806Z</time></trkpt><trkpt lat="45.98991" lon="11.7450753"><ele>476.8333333333333</ele><time>2026-05-01T08:58:24.813Z</time></trkpt><trkpt lat="45.9898977" lon="11.7449859"><ele>477.66666666666663</ele><time>2026-05-01T08:58:25.825Z</time></trkpt><trkpt lat="45.9898758" lon="11.7448105"><ele>478.5</ele><time>2026-05-01T08:58:27.797Z</time></trkpt><trkpt lat="45.9898521" lon="11.7447189"><ele>479.33333333333337</ele><time>2026-05-01T08:58:28.804Z</time></trkpt><trkpt lat="45.9898289" lon="11.744622"><ele>480.1666666666667</ele><time>2026-05-01T08:58:29.814Z</time></trkpt><trkpt lat="45.9898047" lon="11.744526"><ele>481.0</ele><time>2026-05-01T08:58:30.819Z</time></trkpt><trkpt lat="45.9897824" lon="11.7444317"><ele>482.6</ele><time>2026-05-01T08:58:31.814Z</time></trkpt><trkpt lat="45.9897643" lon="11.7443357"><ele>484.20000000000005</ele><time>2026-05-01T08:58:32.819Z</time></trkpt><trkpt lat="45.9897587" lon="11.7442347"><ele>485.79999999999995</ele><time>2026-05-01T08:58:33.818Z</time></trkpt><trkpt lat="45.9897531" lon="11.7440358"><ele>487.4</ele><time>2026-05-01T08:58:35.806Z</time></trkpt><trkpt lat="45.9897428" lon="11.7439042"><ele>489.0</ele><time>2026-05-01T08:58:36.806Z</time></trkpt><trkpt lat="45.9897336" lon="11.7437622"><ele>489.0</ele><time>2026-05-01T08:58:37.826Z</time></trkpt><trkpt lat="45.9897216" lon="11.7436541"><ele>489.00000000000006</ele><time>2026-05-01T08:58:38.81Z</time></trkpt><trkpt lat="45.989714" lon="11.7435485"><ele>489.0</ele><time>2026-05-01T08:58:39.821Z</time></trkpt><trkpt lat="45.9897108" lon="11.7434469"><ele>489.0</ele><time>2026-05-01T08:58:40.81Z</time></trkpt><trkpt lat="45.9896984" lon="11.7433423"><ele>489.00000000000006</ele><time>2026-05-01T08:58:41.813Z</time></trkpt><trkpt lat="45.9896891" lon="11.743245"><ele>489.0</ele><time>2026-05-01T08:58:42.814Z</time></trkpt><trkpt lat="45.9896775" lon="11.7431423"><ele>489.0</ele><time>2026-05-01T08:58:43.811Z</time></trkpt><trkpt lat="45.9896584" lon="11.7430328"><ele>489.2</ele><time>2026-05-01T08:58:44.805Z</time></trkpt><trkpt lat="45.9896582" lon="11.7429329"><ele>489.4</ele><time>2026-05-01T08:58:45.798Z</time></trkpt><trkpt lat="45.9896884" lon="11.742813"><ele>489.6</ele><time>2026-05-01T08:58:47.822Z</time></trkpt><trkpt lat="45.9897413" lon="11.7426996"><ele>489.8</ele><time>2026-05-01T08:58:49.802Z</time></trkpt><trkpt lat="45.9898475" lon="11.7426141"><ele>490.0</ele><time>2026-05-01T08:58:51.803Z</time></trkpt><trkpt lat="45.9899577" lon="11.7425398"><ele>491.2</ele><time>2026-05-01T08:58:53.816Z</time></trkpt><trkpt lat="45.99003" lon="11.7425318"><ele>492.4</ele><time>2026-05-01T08:58:54.808Z</time></trkpt><trkpt lat="45.9901104" lon="11.7425105"><ele>493.6</ele><time>2026-05-01T08:58:55.81Z</time></trkpt><trkpt lat="45.9902017" lon="11.7424543"><ele>494.8</ele><time>2026-05-01T08:58:57.808Z</time></trkpt><trkpt lat="45.9902817" lon="11.7423988"><ele>496.0</ele><time>2026-05-01T08:58:59.82Z</time></trkpt><trkpt lat="45.990313" lon="11.7422296"><ele>496.00000000000006</ele><time>2026-05-01T08:59:01.816Z</time></trkpt><trkpt lat="45.9903183" lon="11.742113"><ele>496.0</ele><time>2026-05-01T08:59:02.816Z</time></trkpt><trkpt lat="45.9903218" lon="11.7419973"><ele>496.0</ele><time>2026-05-01T08:59:03.826Z</time></trkpt><trkpt lat="45.9903128" lon="11.7418847"><ele>496.0</ele><time>2026-05-01T08:59:04.813Z</time></trkpt><trkpt lat="45.9903095" lon="11.7417655"><ele>496.00000000000006</ele><time>2026-05-01T08:59:05.812Z</time></trkpt><trkpt lat="45.9903081" lon="11.7416518"><ele>496.0</ele><time>2026-05-01T08:59:06.806Z</time></trkpt><trkpt lat="45.9903023" lon="11.7415367"><ele>496.6666666666667</ele><time>2026-05-01T08:59:07.81Z</time></trkpt><trkpt lat="45.9902921" lon="11.7414161"><ele>497.33333333333337</ele><time>2026-05-01T08:59:08.817Z</time></trkpt><trkpt lat="45.9902897" lon="11.7412869"><ele>498.0</ele><time>2026-05-01T08:59:09.814Z</time></trkpt><trkpt lat="45.9902847" lon="11.741157"><ele>498.66666666666663</ele><time>2026-05-01T08:59:10.821Z</time></trkpt><trkpt lat="45.9902967" lon="11.7410284"><ele>499.3333333333333</ele><time>2026-05-01T08:59:11.81Z</time></trkpt><trkpt lat="45.9903083" lon="11.7409001"><ele>500.0</ele><time>2026-05-01T08:59:12.806Z</time></trkpt><trkpt lat="45.990316" lon="11.7407732"><ele>500.57142857142856</ele><time>2026-05-01T08:59:13.82Z</time></trkpt><trkpt lat="45.9903287" lon="11.7406524"><ele>501.14285714285717</ele><time>2026-05-01T08:59:14.816Z</time></trkpt><trkpt lat="45.9903469" lon="11.7405448"><ele>501.7142857142857</ele><time>2026-05-01T08:59:15.804Z</time></trkpt><trkpt lat="45.9903827" lon="11.7404472"><ele>502.2857142857143</ele><time>2026-05-01T08:59:16.805Z</time></trkpt><trkpt lat="45.9904292" lon="11.7403722"><ele>502.8571428571429</ele><time>2026-05-01T08:59:17.811Z</time></trkpt><trkpt lat="45.9904768" lon="11.7403015"><ele>503.42857142857144</ele><time>2026-05-01T08:59:18.815Z</time></trkpt><trkpt lat="45.9905305" lon="11.740244"><ele>504.0</ele><time>2026-05-01T08:59:19.807Z</time></trkpt><trkpt lat="45.9905956" lon="11.7401816"><ele>504.0</ele><time>2026-05-01T08:59:20.798Z</time></trkpt><trkpt lat="45.990666" lon="11.7401298"><ele>504.0</ele><time>2026-05-01T08:59:21.815Z</time></trkpt><trkpt lat="45.9907266" lon="11.740085"><ele>504.0</ele><time>2026-05-01T08:59:22.818Z</time></trkpt><trkpt lat="45.9907997" lon="11.7400386"><ele>504.0</ele><time>2026-05-01T08:59:23.813Z</time></trkpt><trkpt lat="45.9908698" lon="11.7400023"><ele>504.0</ele><time>2026-05-01T08:59:24.807Z</time></trkpt><trkpt lat="45.9909362" lon="11.7399761"><ele>504.0</ele><time>2026-05-01T08:59:25.807Z</time></trkpt><trkpt lat="45.9909959" lon="11.7399421"><ele>504.0</ele><time>2026-05-01T08:59:26.814Z</time></trkpt><trkpt lat="45.9910933" lon="11.7398481"><ele>507.0</ele><time>2026-05-01T08:59:28.831Z</time></trkpt><trkpt lat="45.9911486" lon="11.7397696"><ele>510.0</ele><time>2026-05-01T08:59:29.818Z</time></trkpt><trkpt lat="45.9911989" lon="11.7396965"><ele>513.0</ele><time>2026-05-01T08:59:30.811Z</time></trkpt><trkpt lat="45.9912436" lon="11.7396242"><ele>516.0</ele><time>2026-05-01T08:59:31.816Z</time></trkpt><trkpt lat="45.9912881" lon="11.7394669"><ele>519.0</ele><time>2026-05-01T08:59:33.819Z</time></trkpt><trkpt lat="45.9912925" lon="11.7392833"><ele>520.5</ele><time>2026-05-01T08:59:35.822Z</time></trkpt><trkpt lat="45.9912879" lon="11.7391684"><ele>522.0</ele><time>2026-05-01T08:59:36.812Z</time></trkpt><trkpt lat="45.9912823" lon="11.7390257"><ele>523.5</ele><time>2026-05-01T08:59:38.806Z</time></trkpt><trkpt lat="45.9913057" lon="11.7389344"><ele>525.0</ele><time>2026-05-01T08:59:40.827Z</time></trkpt><trkpt lat="45.9914002" lon="11.7388142"><ele>526.5</ele><time>2026-05-01T08:59:42.813Z</time></trkpt><trkpt lat="45.9914565" lon="11.7387446"><ele>528.0</ele><time>2026-05-01T08:59:43.81Z</time></trkpt><trkpt lat="45.9915165" lon="11.738652"><ele>528.0</ele><time>2026-05-01T08:59:45.824Z</time></trkpt><trkpt lat="45.9915872" lon="11.7385896"><ele>528.0</ele><time>2026-05-01T08:59:48.811Z</time></trkpt><trkpt lat="45.9916531" lon="11.7385574"><ele>528.0</ele><time>2026-05-01T08:59:50.806Z</time></trkpt><trkpt lat="45.9917244" lon="11.738525"><ele>528.0</ele><time>2026-05-01T08:59:56.813Z</time></trkpt><trkpt lat="45.991781" lon="11.7384784"><ele>528.0</ele><time>2026-05-01T09:00:00.775Z</time></trkpt><trkpt lat="45.9918424" lon="11.7384472"><ele>528.0</ele><time>2026-05-01T09:00:24.802Z</time></trkpt><trkpt lat="45.9919127" lon="11.7384152"><ele>528.0</ele><time>2026-05-01T09:00:26.816Z</time></trkpt><trkpt lat="45.9920004" lon="11.7383769"><ele>530.0</ele><time>2026-05-01T09:00:28.812Z</time></trkpt><trkpt lat="45.9920893" lon="11.7383209"><ele>532.0</ele><time>2026-05-01T09:00:30.805Z</time></trkpt><trkpt lat="45.9921684" lon="11.7382053"><ele>534.0</ele><time>2026-05-01T09:00:32.807Z</time></trkpt><trkpt lat="45.9922392" lon="11.7380753"><ele>536.0</ele><time>2026-05-01T09:00:34.811Z</time></trkpt><trkpt lat="45.9922766" lon="11.7379956"><ele>538.0</ele><time>2026-05-01T09:00:35.806Z</time></trkpt><trkpt lat="45.9923143" lon="11.7379222"><ele>538.0</ele><time>2026-05-01T09:00:36.812Z</time></trkpt><trkpt lat="45.9923818" lon="11.7377919"><ele>538.0</ele><time>2026-05-01T09:00:38.815Z</time></trkpt><trkpt lat="45.992424" lon="11.73769"><ele>538.0</ele><time>2026-05-01T09:00:39.824Z</time></trkpt><trkpt lat="45.9924268" lon="11.7375341"><ele>538.0</ele><time>2026-05-01T09:00:41.791Z</time></trkpt><trkpt lat="45.9924313" lon="11.737431"><ele>538.0</ele><time>2026-05-01T09:00:42.811Z</time></trkpt><trkpt lat="45.9924345" lon="11.7372366"><ele>538.3333333333334</ele><time>2026-05-01T09:00:44.81Z</time></trkpt><trkpt lat="45.9924309" lon="11.7371266"><ele>538.6666666666667</ele><time>2026-05-01T09:00:45.813Z</time></trkpt><trkpt lat="45.9924417" lon="11.7370238"><ele>539.0</ele><time>2026-05-01T09:00:46.807Z</time></trkpt><trkpt lat="45.9924653" lon="11.7369395"><ele>539.3333333333334</ele><time>2026-05-01T09:00:47.779Z</time></trkpt><trkpt lat="45.9925076" lon="11.7367831"><ele>539.6666666666666</ele><time>2026-05-01T09:00:48.784Z</time></trkpt><trkpt lat="45.9925526" lon="11.7366728"><ele>540.0</ele><time>2026-05-01T09:00:49.819Z</time></trkpt><trkpt lat="45.9925558" lon="11.7365215"><ele>545.5</ele><time>2026-05-01T09:00:51.809Z</time></trkpt><trkpt lat="45.9925565" lon="11.7366206"><ele>551.0</ele><time>2026-05-01T09:00:57.802Z</time></trkpt><trkpt lat="45.992599" lon="11.7367872"><ele>556.5</ele><time>2026-05-01T09:00:59.811Z</time></trkpt><trkpt lat="45.9925872" lon="11.736921"><ele>562.0</ele><time>2026-05-01T09:01:00.8Z</time></trkpt><trkpt lat="45.9925842" lon="11.7370258"><ele>567.5</ele><time>2026-05-01T09:01:01.815Z</time></trkpt><trkpt lat="45.9926038" lon="11.7371312"><ele>573.0</ele><time>2026-05-01T09:01:02.793Z</time></trkpt><trkpt lat="45.9926468" lon="11.7372296"><ele>573.0</ele><time>2026-05-01T09:01:03.809Z</time></trkpt><trkpt lat="45.99271" lon="11.7373645"><ele>573.0</ele><time>2026-05-01T09:01:05.799Z</time></trkpt><trkpt lat="45.9927624" lon="11.7374498"><ele>573.0</ele><time>2026-05-01T09:01:07.812Z</time></trkpt><trkpt lat="45.9928334" lon="11.7375241"><ele>573.0</ele><time>2026-05-01T09:01:09.799Z</time></trkpt><trkpt lat="45.9928956" lon="11.7376682"><ele>573.0</ele><time>2026-05-01T09:01:11.828Z</time></trkpt><trkpt lat="45.9929537" lon="11.7378302"><ele>571.6666666666666</ele><time>2026-05-01T09:01:13.814Z</time></trkpt><trkpt lat="45.992964" lon="11.7379307"><ele>570.3333333333334</ele><time>2026-05-01T09:01:14.812Z</time></trkpt><trkpt lat="45.9930019" lon="11.7380691"><ele>569.0</ele><time>2026-05-01T09:01:16.808Z</time></trkpt><trkpt lat="45.9930498" lon="11.73815"><ele>567.6666666666667</ele><time>2026-05-01T09:01:17.826Z</time></trkpt><trkpt lat="45.9930869" lon="11.7382429"><ele>566.3333333333334</ele><time>2026-05-01T09:01:18.818Z</time></trkpt><trkpt lat="45.9931381" lon="11.7383329"><ele>565.0</ele><time>2026-05-01T09:01:19.821Z</time></trkpt><trkpt lat="45.9931816" lon="11.738402"><ele>565.0</ele><time>2026-05-01T09:01:20.805Z</time></trkpt><trkpt lat="45.9932264" lon="11.738491"><ele>565.0</ele><time>2026-05-01T09:01:23.814Z</time></trkpt><trkpt lat="45.993188" lon="11.7385834"><ele>565.0</ele><time>2026-05-01T09:01:26.761Z</time></trkpt><trkpt lat="45.993227" lon="11.7386995"><ele>565.0</ele><time>2026-05-01T09:01:28.12Z</time></trkpt><trkpt lat="45.9932315" lon="11.738918"><ele>565.0</ele><time>2026-05-01T09:01:29.809Z</time></trkpt><trkpt lat="45.9932545" lon="11.7390279"><ele>563.8333333333334</ele><time>2026-05-01T09:01:30.819Z</time></trkpt><trkpt lat="45.9932685" lon="11.7391261"><ele>562.6666666666667</ele><time>2026-05-01T09:01:31.813Z</time></trkpt><trkpt lat="45.9933061" lon="11.7392231"><ele>561.5</ele><time>2026-05-01T09:01:32.812Z</time></trkpt><trkpt lat="45.993352" lon="11.7393128"><ele>560.3333333333334</ele><time>2026-05-01T09:01:33.809Z</time></trkpt><trkpt lat="45.9934141" lon="11.739401"><ele>559.1666666666666</ele><time>2026-05-01T09:01:34.817Z</time></trkpt><trkpt lat="45.993459" lon="11.7394942"><ele>558.0</ele><time>2026-05-01T09:01:35.814Z</time></trkpt><trkpt lat="45.9935086" lon="11.7395949"><ele>561.1666666666666</ele><time>2026-05-01T09:01:36.814Z</time></trkpt><trkpt lat="45.9935431" lon="11.7396853"><ele>564.3333333333334</ele><time>2026-05-01T09:01:37.815Z</time></trkpt><trkpt lat="45.9935782" lon="11.7397782"><ele>567.5</ele><time>2026-05-01T09:01:38.833Z</time></trkpt><trkpt lat="45.9936058" lon="11.7399418"><ele>570.6666666666667</ele><time>2026-05-01T09:01:40.814Z</time></trkpt><trkpt lat="45.9936349" lon="11.7400263"><ele>573.8333333333334</ele><time>2026-05-01T09:01:42.786Z</time></trkpt><trkpt lat="45.9936957" lon="11.73994"><ele>577.0</ele><time>2026-05-01T09:01:54.751Z</time></trkpt><trkpt lat="45.9937663" lon="11.7398827"><ele>577.0</ele><time>2026-05-01T09:01:56.789Z</time></trkpt><trkpt lat="45.9939023" lon="11.7397621"><ele>577.0</ele><time>2026-05-01T09:01:58.762Z</time></trkpt><trkpt lat="45.9939983" lon="11.7399314"><ele>577.0</ele><time>2026-05-01T09:02:02.773Z</time></trkpt><trkpt lat="45.9940287" lon="11.740034"><ele>577.0</ele><time>2026-05-01T09:02:03.751Z</time></trkpt><trkpt lat="45.9940582" lon="11.7401513"><ele>575.8333333333334</ele><time>2026-05-01T09:02:04.756Z</time></trkpt><trkpt lat="45.9940816" lon="11.740256"><ele>574.6666666666667</ele><time>2026-05-01T09:02:05.767Z</time></trkpt><trkpt lat="45.9940999" lon="11.7403632"><ele>573.5</ele><time>2026-05-01T09:02:06.757Z</time></trkpt><trkpt lat="45.994127" lon="11.7404551"><ele>572.3333333333334</ele><time>2026-05-01T09:02:07.756Z</time></trkpt><trkpt lat="45.9941634" lon="11.740551"><ele>571.1666666666666</ele><time>2026-05-01T09:02:08.757Z</time></trkpt><trkpt lat="45.9942157" lon="11.7406762"><ele>570.0</ele><time>2026-05-01T09:02:10.74Z</time></trkpt><trkpt lat="45.9942582" lon="11.7407964"><ele>572.8571428571429</ele><time>2026-05-01T09:02:12.762Z</time></trkpt><trkpt lat="45.9942791" lon="11.7408956"><ele>575.7142857142858</ele><time>2026-05-01T09:02:13.749Z</time></trkpt><trkpt lat="45.9942947" lon="11.7409846"><ele>578.5714285714287</ele><time>2026-05-01T09:02:14.745Z</time></trkpt><trkpt lat="45.9943055" lon="11.7410861"><ele>581.4285714285714</ele><time>2026-05-01T09:02:15.75Z</time></trkpt><trkpt lat="45.9943203" lon="11.7411958"><ele>584.2857142857143</ele><time>2026-05-01T09:02:16.758Z</time></trkpt><trkpt lat="45.9943211" lon="11.741288"><ele>587.1428571428572</ele><time>2026-05-01T09:02:17.762Z</time></trkpt><trkpt lat="45.9943171" lon="11.7414041"><ele>590.0</ele><time>2026-05-01T09:02:19.767Z</time></trkpt><trkpt lat="45.9943586" lon="11.7415091"><ele>590.0</ele><time>2026-05-01T09:02:22.761Z</time></trkpt><trkpt lat="45.9943857" lon="11.7416287"><ele>590.0</ele><time>2026-05-01T09:02:24.765Z</time></trkpt><trkpt lat="45.9944144" lon="11.7417369"><ele>590.0</ele><time>2026-05-01T09:02:26.743Z</time></trkpt><trkpt lat="45.9944501" lon="11.7418316"><ele>590.0</ele><time>2026-05-01T09:02:29.755Z</time></trkpt><trkpt lat="45.9944974" lon="11.7419273"><ele>590.0</ele><time>2026-05-01T09:02:31.754Z</time></trkpt><trkpt lat="45.994527" lon="11.7420874"><ele>590.0</ele><time>2026-05-01T09:02:33.75Z</time></trkpt><trkpt lat="45.9945198" lon="11.7422481"><ele>588.3333333333333</ele><time>2026-05-01T09:02:35.759Z</time></trkpt><trkpt lat="45.9945308" lon="11.7423953"><ele>586.6666666666666</ele><time>2026-05-01T09:02:37.761Z</time></trkpt><trkpt lat="45.9945453" lon="11.7425333"><ele>585.0</ele><time>2026-05-01T09:02:39.766Z</time></trkpt><trkpt lat="45.9945616" lon="11.7426574"><ele>583.3333333333334</ele><time>2026-05-01T09:02:41.759Z</time></trkpt><trkpt lat="45.9945807" lon="11.7427462"><ele>581.6666666666667</ele><time>2026-05-01T09:02:44.722Z</time></trkpt><trkpt lat="45.9946356" lon="11.7428207"><ele>580.0</ele><time>2026-05-01T09:02:47.761Z</time></trkpt><trkpt lat="45.9947089" lon="11.7428296"><ele>579.8333333333334</ele><time>2026-05-01T09:02:49.752Z</time></trkpt><trkpt lat="45.9948129" lon="11.7428309"><ele>579.6666666666667</ele><time>2026-05-01T09:02:51.743Z</time></trkpt><trkpt lat="45.9948818" lon="11.7428143"><ele>579.5</ele><time>2026-05-01T09:02:52.784Z</time></trkpt><trkpt lat="45.994985" lon="11.7427781"><ele>579.3333333333334</ele><time>2026-05-01T09:02:53.747Z</time></trkpt><trkpt lat="45.9950583" lon="11.742741"><ele>579.1666666666666</ele><time>2026-05-01T09:02:54.757Z</time></trkpt><trkpt lat="45.9951387" lon="11.7426821"><ele>579.0</ele><time>2026-05-01T09:02:55.756Z</time></trkpt><trkpt lat="45.9952202" lon="11.7426303"><ele>583.1666666666666</ele><time>2026-05-01T09:02:56.755Z</time></trkpt><trkpt lat="45.9953148" lon="11.7425854"><ele>587.3333333333334</ele><time>2026-05-01T09:02:57.772Z</time></trkpt><trkpt lat="45.9954052" lon="11.7425408"><ele>591.5</ele><time>2026-05-01T09:02:58.767Z</time></trkpt><trkpt lat="45.9954877" lon="11.742507"><ele>595.6666666666667</ele><time>2026-05-01T09:02:59.753Z</time></trkpt><trkpt lat="45.9955704" lon="11.7424751"><ele>599.8333333333334</ele><time>2026-05-01T09:03:00.757Z</time></trkpt><trkpt lat="45.9956386" lon="11.742459"><ele>604.0</ele><time>2026-05-01T09:03:01.756Z</time></trkpt><trkpt lat="45.9958772" lon="11.7425539"><ele>607.6666666666667</ele><time>2026-05-01T09:03:05.757Z</time></trkpt><trkpt lat="45.9959444" lon="11.7425721"><ele>611.3333333333334</ele><time>2026-05-01T09:03:06.766Z</time></trkpt><trkpt lat="45.9960178" lon="11.7426212"><ele>615.0</ele><time>2026-05-01T09:03:07.756Z</time></trkpt><trkpt lat="45.996102" lon="11.7426612"><ele>618.6666666666666</ele><time>2026-05-01T09:03:09.778Z</time></trkpt><trkpt lat="45.996179" lon="11.742701"><ele>622.3333333333333</ele><time>2026-05-01T09:03:12.76Z</time></trkpt><trkpt lat="45.9962497" lon="11.7427455"><ele>626.0</ele><time>2026-05-01T09:03:14.742Z</time></trkpt><trkpt lat="45.9963288" lon="11.7427992"><ele>626.0</ele><time>2026-05-01T09:03:16.757Z</time></trkpt><trkpt lat="45.9964398" lon="11.7428639"><ele>626.0</ele><time>2026-05-01T09:03:18.756Z</time></trkpt><trkpt lat="45.9965124" lon="11.7429111"><ele>626.0</ele><time>2026-05-01T09:03:20.757Z</time></trkpt><trkpt lat="45.996393" lon="11.7429862"><ele>626.0</ele><time>2026-05-01T09:03:23.788Z</time></trkpt><trkpt lat="45.9963451" lon="11.7430664"><ele>626.0</ele><time>2026-05-01T09:03:24.808Z</time></trkpt><trkpt lat="45.9962446" lon="11.7431492"><ele>626.0</ele><time>2026-05-01T09:03:26.831Z</time></trkpt><trkpt lat="45.9961939" lon="11.7432197"><ele>626.0</ele><time>2026-05-01T09:03:28.786Z</time></trkpt><trkpt lat="45.9962568" lon="11.7432081"><ele>626.0</ele><time>2026-05-01T09:03:30.823Z</time></trkpt><trkpt lat="45.9963431" lon="11.7431817"><ele>626.0</ele><time>2026-05-01T09:03:31.814Z</time></trkpt><trkpt lat="45.996421" lon="11.7431778"><ele>626.0</ele><time>2026-05-01T09:03:32.822Z</time></trkpt><trkpt lat="45.9964899" lon="11.7431744"><ele>626.0</ele><time>2026-05-01T09:03:33.787Z</time></trkpt><trkpt lat="45.9965464" lon="11.7432607"><ele>626.0</ele><time>2026-05-01T09:03:34.81Z</time></trkpt><trkpt lat="45.9966423" lon="11.7433522"><ele>626.0</ele><time>2026-05-01T09:03:35.822Z</time></trkpt><trkpt lat="45.9967192" lon="11.7434222"><ele>626.0</ele><time>2026-05-01T09:03:37.827Z</time></trkpt><trkpt lat="45.9967944" lon="11.7433985"><ele>626.0</ele><time>2026-05-01T09:03:39.817Z</time></trkpt><trkpt lat="45.9968747" lon="11.7433365"><ele>626.0</ele><time>2026-05-01T09:03:41.786Z</time></trkpt><trkpt lat="45.9967976" lon="11.7433443"><ele>628.6666666666666</ele><time>2026-05-01T09:03:48.815Z</time></trkpt><trkpt lat="45.9967162" lon="11.7434115"><ele>631.3333333333333</ele><time>2026-05-01T09:03:50.815Z</time></trkpt><trkpt lat="45.9967788" lon="11.7433801"><ele>634.0</ele><time>2026-05-01T09:03:54.822Z</time></trkpt><trkpt lat="45.9967941" lon="11.7434791"><ele>636.6666666666666</ele><time>2026-05-01T09:04:04.825Z</time></trkpt><trkpt lat="45.9967536" lon="11.7435832"><ele>639.3333333333334</ele><time>2026-05-01T09:04:07.83Z</time></trkpt><trkpt lat="45.9967804" lon="11.7436673"><ele>642.0</ele><time>2026-05-01T09:04:13.821Z</time></trkpt><trkpt lat="45.9968222" lon="11.743761"><ele>642.0</ele><time>2026-05-01T09:04:17.813Z</time></trkpt><trkpt lat="45.9968472" lon="11.7438462"><ele>642.0</ele><time>2026-05-01T09:04:22.804Z</time></trkpt><trkpt lat="45.9969261" lon="11.7439478"><ele>642.0</ele><time>2026-05-01T09:04:27.817Z</time></trkpt><trkpt lat="45.9969767" lon="11.7440537"><ele>642.0</ele><time>2026-05-01T09:04:29.789Z</time></trkpt><trkpt lat="45.9970087" lon="11.7441448"><ele>642.0</ele><time>2026-05-01T09:04:30.809Z</time></trkpt><trkpt lat="45.9970372" lon="11.7442814"><ele>642.0</ele><time>2026-05-01T09:04:31.816Z</time></trkpt><trkpt lat="45.9970363" lon="11.7443915"><ele>644.2</ele><time>2026-05-01T09:04:32.812Z</time></trkpt><trkpt lat="45.9970049" lon="11.7445053"><ele>646.4000000000001</ele><time>2026-05-01T09:04:33.813Z</time></trkpt><trkpt lat="45.9969718" lon="11.7446343"><ele>648.5999999999999</ele><time>2026-05-01T09:04:34.8Z</time></trkpt><trkpt lat="45.9969316" lon="11.7447991"><ele>650.8</ele><time>2026-05-01T09:04:35.807Z</time></trkpt><trkpt lat="45.9968815" lon="11.7449458"><ele>653.0</ele><time>2026-05-01T09:04:36.815Z</time></trkpt><trkpt lat="45.9968442" lon="11.7450826"><ele>653.0</ele><time>2026-05-01T09:04:38.827Z</time></trkpt><trkpt lat="45.996837" lon="11.7452317"><ele>653.0</ele><time>2026-05-01T09:04:40.812Z</time></trkpt><trkpt lat="45.9968362" lon="11.7453287"><ele>653.0</ele><time>2026-05-01T09:04:41.818Z</time></trkpt><trkpt lat="45.9968152" lon="11.7454864"><ele>653.0</ele><time>2026-05-01T09:04:43.818Z</time></trkpt><trkpt lat="45.9968343" lon="11.7453836"><ele>653.0</ele><time>2026-05-01T09:04:49.816Z</time></trkpt><trkpt lat="45.99685" lon="11.7452703"><ele>653.0</ele><time>2026-05-01T09:04:50.813Z</time></trkpt><trkpt lat="45.996862" lon="11.7451813"><ele>653.0</ele><time>2026-05-01T09:04:51.818Z</time></trkpt><trkpt lat="45.9968415" lon="11.7450589"><ele>653.0</ele><time>2026-05-01T09:04:53.818Z</time></trkpt><trkpt lat="45.9968548" lon="11.7449657"><ele>653.0</ele><time>2026-05-01T09:04:54.847Z</time></trkpt><trkpt lat="45.9968691" lon="11.7448573"><ele>653.0</ele><time>2026-05-01T09:04:55.826Z</time></trkpt><trkpt lat="45.9968864" lon="11.7447377"><ele>653.0</ele><time>2026-05-01T09:04:56.798Z</time></trkpt><trkpt lat="45.9968982" lon="11.744597"><ele>653.0</ele><time>2026-05-01T09:04:57.819Z</time></trkpt><trkpt lat="45.9969046" lon="11.744492"><ele>653.0</ele><time>2026-05-01T09:04:58.822Z</time></trkpt><trkpt lat="45.9969244" lon="11.7444022"><ele>653.0</ele><time>2026-05-01T09:04:59.818Z</time></trkpt><trkpt lat="45.9969727" lon="11.7442538"><ele>653.0</ele><time>2026-05-01T09:05:01.811Z</time></trkpt><trkpt lat="45.9970482" lon="11.7441481"><ele>653.0</ele><time>2026-05-01T09:05:03.824Z</time></trkpt><trkpt lat="45.997144" lon="11.7440687"><ele>653.0</ele><time>2026-05-01T09:05:05.818Z</time></trkpt><trkpt lat="45.9971565" lon="11.7439668"><ele>651.5999999999999</ele><time>2026-05-01T09:05:07.818Z</time></trkpt><trkpt lat="45.997127" lon="11.7437751"><ele>650.1999999999999</ele><time>2026-05-01T09:05:09.838Z</time></trkpt><trkpt lat="45.9970936" lon="11.7436548"><ele>648.8</ele><time>2026-05-01T09:05:10.799Z</time></trkpt><trkpt lat="45.9970353" lon="11.7435836"><ele>647.4</ele><time>2026-05-01T09:05:11.821Z</time></trkpt><trkpt lat="45.9969782" lon="11.7435403"><ele>646.0</ele><time>2026-05-01T09:05:12.814Z</time></trkpt><trkpt lat="45.9968798" lon="11.7434663"><ele>646.0</ele><time>2026-05-01T09:05:14.823Z</time></trkpt><trkpt lat="45.9968442" lon="11.7433867"><ele>646.0</ele><time>2026-05-01T09:05:15.807Z</time></trkpt><trkpt lat="45.996806" lon="11.7432364"><ele>646.0</ele><time>2026-05-01T09:05:17.812Z</time></trkpt><trkpt lat="45.9967808" lon="11.743111"><ele>646.0</ele><time>2026-05-01T09:05:19.819Z</time></trkpt><trkpt lat="45.9968456" lon="11.7431076"><ele>646.0</ele><time>2026-05-01T09:05:23.827Z</time></trkpt><trkpt lat="45.9969151" lon="11.7431799"><ele>646.0</ele><time>2026-05-01T09:05:27.807Z</time></trkpt><trkpt lat="45.9969753" lon="11.7432563"><ele>646.0</ele><time>2026-05-01T09:05:30.815Z</time></trkpt><trkpt lat="45.9970446" lon="11.7433288"><ele>646.0</ele><time>2026-05-01T09:05:32.821Z</time></trkpt><trkpt lat="45.9971033" lon="11.7433837"><ele>646.0</ele><time>2026-05-01T09:05:34.81Z</time></trkpt><trkpt lat="45.9971757" lon="11.7435026"><ele>646.0</ele><time>2026-05-01T09:05:37.818Z</time></trkpt><trkpt lat="45.9972332" lon="11.7435826"><ele>646.0</ele><time>2026-05-01T09:05:39.826Z</time></trkpt><trkpt lat="45.99731" lon="11.7436572"><ele>646.0</ele><time>2026-05-01T09:05:40.805Z</time></trkpt><trkpt lat="45.9973795" lon="11.7437603"><ele>645.1999999999999</ele><time>2026-05-01T09:05:41.794Z</time></trkpt><trkpt lat="45.9974612" lon="11.7438554"><ele>644.4</ele><time>2026-05-01T09:05:42.811Z</time></trkpt><trkpt lat="45.9975337" lon="11.743962"><ele>643.6</ele><time>2026-05-01T09:05:43.807Z</time></trkpt><trkpt lat="45.9975349" lon="11.7440571"><ele>642.8</ele><time>2026-05-01T09:05:44.801Z</time></trkpt><trkpt lat="45.9974849" lon="11.7441365"><ele>642.0</ele><time>2026-05-01T09:05:45.825Z</time></trkpt><trkpt lat="45.9974202" lon="11.7442874"><ele>642.0</ele><time>2026-05-01T09:05:47.802Z</time></trkpt><trkpt lat="45.9973812" lon="11.7443738"><ele>642.0</ele><time>2026-05-01T09:05:48.822Z</time></trkpt><trkpt lat="45.9973334" lon="11.744469"><ele>642.0</ele><time>2026-05-01T09:05:49.793Z</time></trkpt><trkpt lat="45.9972892" lon="11.7445641"><ele>642.0</ele><time>2026-05-01T09:05:50.828Z</time></trkpt><trkpt lat="45.9972402" lon="11.7447072"><ele>642.0</ele><time>2026-05-01T09:05:52.818Z</time></trkpt><trkpt lat="45.9972189" lon="11.7447966"><ele>642.0</ele><time>2026-05-01T09:05:54.822Z</time></trkpt><trkpt lat="45.9971941" lon="11.7449297"><ele>644.2</ele><time>2026-05-01T09:05:56.809Z</time></trkpt><trkpt lat="45.9972194" lon="11.7450458"><ele>646.4000000000001</ele><time>2026-05-01T09:05:58.835Z</time></trkpt><trkpt lat="45.9972993" lon="11.7452012"><ele>648.5999999999999</ele><time>2026-05-01T09:05:59.796Z</time></trkpt><trkpt lat="45.9973274" lon="11.745364"><ele>650.8</ele><time>2026-05-01T09:06:00.831Z</time></trkpt><trkpt lat="45.9973452" lon="11.7454988"><ele>653.0</ele><time>2026-05-01T09:06:01.818Z</time></trkpt><trkpt lat="45.9973574" lon="11.7455902"><ele>654.0</ele><time>2026-05-01T09:06:02.826Z</time></trkpt><trkpt lat="45.9973282" lon="11.7457446"><ele>655.0</ele><time>2026-05-01T09:06:04.817Z</time></trkpt><trkpt lat="45.997301" lon="11.7458355"><ele>656.0</ele><time>2026-05-01T09:06:05.818Z</time></trkpt><trkpt lat="45.9972602" lon="11.7459422"><ele>657.0</ele><time>2026-05-01T09:06:06.817Z</time></trkpt><trkpt lat="45.9972307" lon="11.7460583"><ele>658.0</ele><time>2026-05-01T09:06:07.829Z</time></trkpt><trkpt lat="45.9971971" lon="11.7461422"><ele>659.0</ele><time>2026-05-01T09:06:08.834Z</time></trkpt><trkpt lat="45.9971589" lon="11.7462288"><ele>660.1666666666666</ele><time>2026-05-01T09:06:09.815Z</time></trkpt><trkpt lat="45.9971143" lon="11.7463056"><ele>661.3333333333333</ele><time>2026-05-01T09:06:10.819Z</time></trkpt><trkpt lat="45.9970332" lon="11.7463931"><ele>662.5</ele><time>2026-05-01T09:06:12.824Z</time></trkpt><trkpt lat="45.9969524" lon="11.7464047"><ele>663.6666666666666</ele><time>2026-05-01T09:06:14.817Z</time></trkpt><trkpt lat="45.9969527" lon="11.7465042"><ele>664.8333333333334</ele><time>2026-05-01T09:06:19.825Z</time></trkpt><trkpt lat="45.9970421" lon="11.7465642"><ele>666.0</ele><time>2026-05-01T09:06:21.798Z</time></trkpt><trkpt lat="45.9971401" lon="11.7466442"><ele>666.0</ele><time>2026-05-01T09:06:23.811Z</time></trkpt><trkpt lat="45.9972297" lon="11.7468389"><ele>666.0</ele><time>2026-05-01T09:06:25.829Z</time></trkpt><trkpt lat="45.9972424" lon="11.7469812"><ele>666.0</ele><time>2026-05-01T09:06:27.824Z</time></trkpt><trkpt lat="45.9972428" lon="11.7471033"><ele>666.0</ele><time>2026-05-01T09:06:29.819Z</time></trkpt><trkpt lat="45.9971202" lon="11.7471307"><ele>667.5999999999999</ele><time>2026-05-01T09:06:32.825Z</time></trkpt><trkpt lat="45.9970012" lon="11.7471303"><ele>669.2</ele><time>2026-05-01T09:06:33.814Z</time></trkpt><trkpt lat="45.996919" lon="11.747116"><ele>670.8</ele><time>2026-05-01T09:06:34.821Z</time></trkpt><trkpt lat="45.9968269" lon="11.7470375"><ele>672.4000000000001</ele><time>2026-05-01T09:06:35.798Z</time></trkpt><trkpt lat="45.9967293" lon="11.7470135"><ele>674.0</ele><time>2026-05-01T09:06:36.818Z</time></trkpt><trkpt lat="45.9966258" lon="11.7470233"><ele>674.0</ele><time>2026-05-01T09:06:37.817Z</time></trkpt><trkpt lat="45.9965248" lon="11.747061"><ele>674.0</ele><time>2026-05-01T09:06:38.831Z</time></trkpt><trkpt lat="45.9964289" lon="11.7471101"><ele>674.0</ele><time>2026-05-01T09:06:39.823Z</time></trkpt><trkpt lat="45.9963338" lon="11.7471767"><ele>674.0</ele><time>2026-05-01T09:06:40.824Z</time></trkpt><trkpt lat="45.996239" lon="11.7472518"><ele>674.0</ele><time>2026-05-01T09:06:41.822Z</time></trkpt><trkpt lat="45.9961382" lon="11.7473395"><ele>674.0</ele><time>2026-05-01T09:06:42.831Z</time></trkpt><trkpt lat="45.9960543" lon="11.7474348"><ele>674.0</ele><time>2026-05-01T09:06:43.787Z</time></trkpt><trkpt lat="45.9959696" lon="11.7475448"><ele>674.0</ele><time>2026-05-01T09:06:44.822Z</time></trkpt><trkpt lat="45.9958935" lon="11.7476544"><ele>674.0</ele><time>2026-05-01T09:06:45.825Z</time></trkpt><trkpt lat="45.9958131" lon="11.7477617"><ele>674.0</ele><time>2026-05-01T09:06:46.821Z</time></trkpt><trkpt lat="45.9957299" lon="11.7478697"><ele>674.0</ele><time>2026-05-01T09:06:47.811Z</time></trkpt><trkpt lat="45.9956494" lon="11.7479916"><ele>674.0</ele><time>2026-05-01T09:06:48.819Z</time></trkpt><trkpt lat="45.9955762" lon="11.7481214"><ele>674.0</ele><time>2026-05-01T09:06:49.814Z</time></trkpt><trkpt lat="45.9955089" lon="11.748263"><ele>674.0</ele><time>2026-05-01T09:06:50.821Z</time></trkpt><trkpt lat="45.9954452" lon="11.7484047"><ele>678.5</ele><time>2026-05-01T09:06:51.803Z</time></trkpt><trkpt lat="45.9953781" lon="11.7485488"><ele>683.0</ele><time>2026-05-01T09:06:52.818Z</time></trkpt><trkpt lat="45.9953144" lon="11.7486938"><ele>687.5</ele><time>2026-05-01T09:06:53.831Z</time></trkpt><trkpt lat="45.9952511" lon="11.7488332"><ele>692.0</ele><time>2026-05-01T09:06:54.814Z</time></trkpt><trkpt lat="45.9951916" lon="11.7489794"><ele>692.0</ele><time>2026-05-01T09:06:55.813Z</time></trkpt><trkpt lat="45.9951443" lon="11.7491376"><ele>692.0</ele><time>2026-05-01T09:06:56.83Z</time></trkpt><trkpt lat="45.9951118" lon="11.749293"><ele>692.0</ele><time>2026-05-01T09:06:57.832Z</time></trkpt><trkpt lat="45.9950885" lon="11.7494548"><ele>692.0</ele><time>2026-05-01T09:06:58.82Z</time></trkpt><trkpt lat="45.9950781" lon="11.7496286"><ele>693.0</ele><time>2026-05-01T09:06:59.837Z</time></trkpt><trkpt lat="45.9950763" lon="11.7497943"><ele>694.0</ele><time>2026-05-01T09:07:00.819Z</time></trkpt><trkpt lat="45.9950767" lon="11.7499559"><ele>695.0</ele><time>2026-05-01T09:07:01.818Z</time></trkpt><trkpt lat="45.9950699" lon="11.7501093"><ele>696.0</ele><time>2026-05-01T09:07:02.836Z</time></trkpt><trkpt lat="45.9950563" lon="11.7502576"><ele>697.0</ele><time>2026-05-01T09:07:03.826Z</time></trkpt><trkpt lat="45.9950212" lon="11.7503911"><ele>688.2</ele><time>2026-05-01T09:07:04.829Z</time></trkpt><trkpt lat="45.9949701" lon="11.7505225"><ele>679.4000000000001</ele><time>2026-05-01T09:07:05.827Z</time></trkpt><trkpt lat="45.994907" lon="11.7506439"><ele>670.5999999999999</ele><time>2026-05-01T09:07:06.801Z</time></trkpt><trkpt lat="45.9948392" lon="11.7507786"><ele>661.8</ele><time>2026-05-01T09:07:07.829Z</time></trkpt><trkpt lat="45.9947851" lon="11.750917"><ele>653.0</ele><time>2026-05-01T09:07:08.812Z</time></trkpt><trkpt lat="45.9947332" lon="11.7510572"><ele>653.0</ele><time>2026-05-01T09:07:09.818Z</time></trkpt><trkpt lat="45.9946815" lon="11.7512341"><ele>653.0</ele><time>2026-05-01T09:07:10.773Z</time></trkpt><trkpt lat="45.9946394" lon="11.7514033"><ele>653.0</ele><time>2026-05-01T09:07:11.779Z</time></trkpt><trkpt lat="45.9946027" lon="11.7515552"><ele>653.0</ele><time>2026-05-01T09:07:12.772Z</time></trkpt><trkpt lat="45.9945652" lon="11.7517178"><ele>653.75</ele><time>2026-05-01T09:07:13.766Z</time></trkpt><trkpt lat="45.9945284" lon="11.7518959"><ele>654.5</ele><time>2026-05-01T09:07:14.789Z</time></trkpt><trkpt lat="45.9944929" lon="11.7520758"><ele>655.25</ele><time>2026-05-01T09:07:15.771Z</time></trkpt><trkpt lat="45.9944603" lon="11.7522521"><ele>656.0</ele><time>2026-05-01T09:07:16.787Z</time></trkpt><trkpt lat="45.9944299" lon="11.7524235"><ele>656.0</ele><time>2026-05-01T09:07:17.77Z</time></trkpt><trkpt lat="45.9944024" lon="11.7525986"><ele>656.0</ele><time>2026-05-01T09:07:18.782Z</time></trkpt><trkpt lat="45.9943806" lon="11.7527494"><ele>656.0</ele><time>2026-05-01T09:07:19.778Z</time></trkpt><trkpt lat="45.994361" lon="11.7529105"><ele>656.0</ele><time>2026-05-01T09:07:20.766Z</time></trkpt><trkpt lat="45.9943417" lon="11.7530715"><ele>656.25</ele><time>2026-05-01T09:07:21.739Z</time></trkpt><trkpt lat="45.9943263" lon="11.7532516"><ele>656.5</ele><time>2026-05-01T09:07:22.766Z</time></trkpt><trkpt lat="45.9943268" lon="11.7534213"><ele>656.75</ele><time>2026-05-01T09:07:23.747Z</time></trkpt><trkpt lat="45.9943339" lon="11.7535929"><ele>657.0</ele><time>2026-05-01T09:07:24.779Z</time></trkpt><trkpt lat="45.9943423" lon="11.7537451"><ele>655.2</ele><time>2026-05-01T09:07:25.777Z</time></trkpt><trkpt lat="45.9943514" lon="11.7538999"><ele>653.4000000000001</ele><time>2026-05-01T09:07:26.762Z</time></trkpt><trkpt lat="45.9943565" lon="11.7540656"><ele>651.5999999999999</ele><time>2026-05-01T09:07:27.784Z</time></trkpt><trkpt lat="45.9943533" lon="11.7542095"><ele>649.8</ele><time>2026-05-01T09:07:28.765Z</time></trkpt><trkpt lat="45.9943512" lon="11.7543534"><ele>648.0</ele><time>2026-05-01T09:07:29.775Z</time></trkpt><trkpt lat="45.9943552" lon="11.7544945"><ele>647.0</ele><time>2026-05-01T09:07:30.774Z</time></trkpt><trkpt lat="45.9943686" lon="11.7546139"><ele>646.0</ele><time>2026-05-01T09:07:31.765Z</time></trkpt><trkpt lat="45.9944007" lon="11.7547281"><ele>645.0</ele><time>2026-05-01T09:07:32.77Z</time></trkpt><trkpt lat="45.9944303" lon="11.7548487"><ele>644.0</ele><time>2026-05-01T09:07:33.772Z</time></trkpt><trkpt lat="45.9944421" lon="11.7549714"><ele>643.0</ele><time>2026-05-01T09:07:34.76Z</time></trkpt><trkpt lat="45.9944314" lon="11.7551178"><ele>642.0</ele><time>2026-05-01T09:07:35.779Z</time></trkpt><trkpt lat="45.9944282" lon="11.7552662"><ele>642.0</ele><time>2026-05-01T09:07:36.769Z</time></trkpt><trkpt lat="45.9944297" lon="11.7554099"><ele>642.0</ele><time>2026-05-01T09:07:37.767Z</time></trkpt><trkpt lat="45.9944138" lon="11.7555704"><ele>642.0</ele><time>2026-05-01T09:07:39.766Z</time></trkpt><trkpt lat="45.9943754" lon="11.7556434"><ele>642.0</ele><time>2026-05-01T09:07:40.782Z</time></trkpt><trkpt lat="45.9942898" lon="11.7556732"><ele>642.0</ele><time>2026-05-01T09:07:41.765Z</time></trkpt><trkpt lat="45.9942167" lon="11.755725"><ele>642.0</ele><time>2026-05-01T09:07:42.765Z</time></trkpt><trkpt lat="45.994161" lon="11.7558058"><ele>635.2</ele><time>2026-05-01T09:07:43.771Z</time></trkpt><trkpt lat="45.994127" lon="11.7558964"><ele>628.4000000000001</ele><time>2026-05-01T09:07:44.779Z</time></trkpt><trkpt lat="45.9941129" lon="11.7560462"><ele>621.5999999999999</ele><time>2026-05-01T09:07:45.775Z</time></trkpt><trkpt lat="45.994107" lon="11.7561874"><ele>614.8</ele><time>2026-05-01T09:07:46.783Z</time></trkpt><trkpt lat="45.9941073" lon="11.756326"><ele>608.0</ele><time>2026-05-01T09:07:47.764Z</time></trkpt><trkpt lat="45.9941155" lon="11.7565402"><ele>608.0</ele><time>2026-05-01T09:07:48.769Z</time></trkpt><trkpt lat="45.9941185" lon="11.7567141"><ele>608.0</ele><time>2026-05-01T09:07:49.769Z</time></trkpt><trkpt lat="45.9941247" lon="11.7568589"><ele>608.0</ele><time>2026-05-01T09:07:50.775Z</time></trkpt><trkpt lat="45.9941274" lon="11.7569867"><ele>608.0</ele><time>2026-05-01T09:07:51.757Z</time></trkpt><trkpt lat="45.9941371" lon="11.757115"><ele>608.0</ele><time>2026-05-01T09:07:52.765Z</time></trkpt><trkpt lat="45.9941393" lon="11.7572325"><ele>609.4</ele><time>2026-05-01T09:07:53.776Z</time></trkpt><trkpt lat="45.9941378" lon="11.7573466"><ele>610.8</ele><time>2026-05-01T09:07:54.76Z</time></trkpt><trkpt lat="45.9941713" lon="11.7574894"><ele>612.2</ele><time>2026-05-01T09:07:56.771Z</time></trkpt><trkpt lat="45.994235" lon="11.7576579"><ele>613.6</ele><time>2026-05-01T09:07:58.767Z</time></trkpt><trkpt lat="45.9942693" lon="11.7577536"><ele>615.0</ele><time>2026-05-01T09:07:59.764Z</time></trkpt><trkpt lat="45.994307" lon="11.7578489"><ele>615.0</ele><time>2026-05-01T09:08:00.775Z</time></trkpt><trkpt lat="45.9943479" lon="11.7579978"><ele>615.0</ele><time>2026-05-01T09:08:02.758Z</time></trkpt><trkpt lat="45.9943634" lon="11.7580925"><ele>615.0</ele><time>2026-05-01T09:08:04.738Z</time></trkpt><trkpt lat="45.994391" lon="11.7582077"><ele>615.0</ele><time>2026-05-01T09:08:06.761Z</time></trkpt><trkpt lat="45.9944704" lon="11.7583817"><ele>615.0</ele><time>2026-05-01T09:08:08.764Z</time></trkpt><trkpt lat="45.9945006" lon="11.758476"><ele>613.6</ele><time>2026-05-01T09:08:09.769Z</time></trkpt><trkpt lat="45.9945312" lon="11.7585702"><ele>612.2</ele><time>2026-05-01T09:08:10.768Z</time></trkpt><trkpt lat="45.9945792" lon="11.7586767"><ele>610.8</ele><time>2026-05-01T09:08:11.754Z</time></trkpt><trkpt lat="45.9946041" lon="11.7588055"><ele>609.4</ele><time>2026-05-01T09:08:13.767Z</time></trkpt><trkpt lat="45.9946361" lon="11.7589352"><ele>608.0</ele><time>2026-05-01T09:08:15.764Z</time></trkpt><trkpt lat="45.9946482" lon="11.7590869"><ele>608.0</ele><time>2026-05-01T09:08:17.771Z</time></trkpt><trkpt lat="45.9946692" lon="11.7591728"><ele>608.0</ele><time>2026-05-01T09:08:18.763Z</time></trkpt><trkpt lat="45.994704" lon="11.7592652"><ele>608.0</ele><time>2026-05-01T09:08:19.764Z</time></trkpt><trkpt lat="45.9947465" lon="11.7593489"><ele>608.0</ele><time>2026-05-01T09:08:20.762Z</time></trkpt><trkpt lat="45.9948074" lon="11.7594067"><ele>608.0</ele><time>2026-05-01T09:08:23.765Z</time></trkpt><trkpt lat="45.9948336" lon="11.7595254"><ele>608.0</ele><time>2026-05-01T09:08:26.772Z</time></trkpt><trkpt lat="45.9948528" lon="11.7596274"><ele>608.0</ele><time>2026-05-01T09:08:30.774Z</time></trkpt><trkpt lat="45.9948114" lon="11.7597321"><ele>604.0</ele><time>2026-05-01T09:08:32.772Z</time></trkpt><trkpt lat="45.9948087" lon="11.7598343"><ele>604.0</ele><time>2026-05-01T09:08:34.779Z</time></trkpt><trkpt lat="45.9948544" lon="11.7599718"><ele>604.0</ele><time>2026-05-01T09:08:37.815Z</time></trkpt><trkpt lat="45.9949212" lon="11.7599264"><ele>604.0</ele><time>2026-05-01T09:08:40.821Z</time></trkpt><trkpt lat="45.9949806" lon="11.7598494"><ele>604.0</ele><time>2026-05-01T09:08:42.824Z</time></trkpt><trkpt lat="45.9949888" lon="11.7597536"><ele>604.0</ele><time>2026-05-01T09:08:44.815Z</time></trkpt><trkpt lat="45.9949888" lon="11.7597536"><ele>604.0</ele><time>2026-05-01T09:08:44.815Z</time></trkpt><trkpt lat="45.9949888" lon="11.7597536"><ele>604.0</ele><time>2026-05-01T09:08:44.815Z</time></trkpt></trkseg></trk></gpx>